<?xml version="1.0" encoding="UTF-8" standalone="no" ?>
<gpx xmlns="http://www.topografix.com/GPX/1/1" xmlns:xsi="http://www.w3.org/2001/XMLSchema-instance" xsi:schemaLocation="http://www.topografix.com/GPX/1/1 http://www.topografix.com/GPX/1/1/gpx.xsd" version="1.1" creator="VisuGPX - https://www.visugpx.com">
  <metadata>
    <name>Tour de la foret Verte</name>
    <desc><![CDATA[Tour de la Foret Verte Départ de Canteleu 40 Kms]]></desc>
  </metadata>
  <trk>
    <name><![CDATA[Tour de la foret Verte_1]]></name>
    <trkseg>
      <trkpt lat="49.44923" lon="1.0214">
        <ele>123</ele>
        <time>2018-07-07T06:01:45Z</time>
      </trkpt>
      <trkpt lat="49.4494" lon="1.02189">
        <ele>123</ele>
        <time>2018-07-07T06:03:20Z</time>
      </trkpt>
      <trkpt lat="49.44939" lon="1.0221">
        <ele>123</ele>
        <time>2018-07-07T06:03:25Z</time>
      </trkpt>
      <trkpt lat="49.44935" lon="1.02234">
        <ele>124</ele>
        <time>2018-07-07T06:03:30Z</time>
      </trkpt>
      <trkpt lat="49.44939" lon="1.02261">
        <ele>124</ele>
        <time>2018-07-07T06:03:35Z</time>
      </trkpt>
      <trkpt lat="49.44948" lon="1.02285">
        <ele>124</ele>
        <time>2018-07-07T06:03:40Z</time>
      </trkpt>
      <trkpt lat="49.44963" lon="1.02296">
        <ele>124</ele>
        <time>2018-07-07T06:03:45Z</time>
      </trkpt>
      <trkpt lat="49.4498" lon="1.02301">
        <ele>124</ele>
        <time>2018-07-07T06:03:50Z</time>
      </trkpt>
      <trkpt lat="49.44996" lon="1.02298">
        <ele>124</ele>
        <time>2018-07-07T06:03:55Z</time>
      </trkpt>
      <trkpt lat="49.45011" lon="1.02291">
        <ele>125</ele>
        <time>2018-07-07T06:04:00Z</time>
      </trkpt>
      <trkpt lat="49.45019" lon="1.02305">
        <ele>125</ele>
        <time>2018-07-07T06:04:05Z</time>
      </trkpt>
      <trkpt lat="49.45024" lon="1.02328">
        <ele>125</ele>
        <time>2018-07-07T06:04:10Z</time>
      </trkpt>
      <trkpt lat="49.45029" lon="1.02352">
        <ele>125</ele>
        <time>2018-07-07T06:04:15Z</time>
      </trkpt>
      <trkpt lat="49.45036" lon="1.02374">
        <ele>125</ele>
        <time>2018-07-07T06:04:20Z</time>
      </trkpt>
      <trkpt lat="49.4505" lon="1.02383">
        <ele>125</ele>
        <time>2018-07-07T06:04:25Z</time>
      </trkpt>
      <trkpt lat="49.45065" lon="1.02394">
        <ele>126</ele>
        <time>2018-07-07T06:04:30Z</time>
      </trkpt>
      <trkpt lat="49.45079" lon="1.02407">
        <ele>126</ele>
        <time>2018-07-07T06:04:35Z</time>
      </trkpt>
      <trkpt lat="49.45081" lon="1.02433">
        <ele>126</ele>
        <time>2018-07-07T06:04:40Z</time>
      </trkpt>
      <trkpt lat="49.45084" lon="1.02459">
        <ele>127</ele>
        <time>2018-07-07T06:04:45Z</time>
      </trkpt>
      <trkpt lat="49.45102" lon="1.02467">
        <ele>127</ele>
        <time>2018-07-07T06:04:50Z</time>
      </trkpt>
      <trkpt lat="49.4512" lon="1.02466">
        <ele>127</ele>
        <time>2018-07-07T06:04:55Z</time>
      </trkpt>
      <trkpt lat="49.45134" lon="1.02475">
        <ele>127</ele>
        <time>2018-07-07T06:05:00Z</time>
      </trkpt>
      <trkpt lat="49.45133" lon="1.02503">
        <ele>127</ele>
        <time>2018-07-07T06:05:05Z</time>
      </trkpt>
      <trkpt lat="49.45131" lon="1.02533">
        <ele>127</ele>
        <time>2018-07-07T06:05:10Z</time>
      </trkpt>
      <trkpt lat="49.45129" lon="1.02568">
        <ele>127</ele>
        <time>2018-07-07T06:05:15Z</time>
      </trkpt>
      <trkpt lat="49.4513" lon="1.02605">
        <ele>127</ele>
        <time>2018-07-07T06:05:20Z</time>
      </trkpt>
      <trkpt lat="49.45129" lon="1.02641">
        <ele>127</ele>
        <time>2018-07-07T06:05:25Z</time>
      </trkpt>
      <trkpt lat="49.45129" lon="1.02675">
        <ele>127</ele>
        <time>2018-07-07T06:05:30Z</time>
      </trkpt>
      <trkpt lat="49.4513" lon="1.02708">
        <ele>127</ele>
        <time>2018-07-07T06:05:35Z</time>
      </trkpt>
      <trkpt lat="49.4513" lon="1.0274">
        <ele>127</ele>
        <time>2018-07-07T06:05:40Z</time>
      </trkpt>
      <trkpt lat="49.45131" lon="1.02772">
        <ele>127</ele>
        <time>2018-07-07T06:05:45Z</time>
      </trkpt>
      <trkpt lat="49.45131" lon="1.02802">
        <ele>127</ele>
        <time>2018-07-07T06:05:50Z</time>
      </trkpt>
      <trkpt lat="49.45132" lon="1.02829">
        <ele>127</ele>
        <time>2018-07-07T06:05:55Z</time>
      </trkpt>
      <trkpt lat="49.45131" lon="1.02861">
        <ele>128</ele>
        <time>2018-07-07T06:06:01Z</time>
      </trkpt>
      <trkpt lat="49.4513" lon="1.02888">
        <ele>128</ele>
        <time>2018-07-07T06:06:06Z</time>
      </trkpt>
      <trkpt lat="49.45126" lon="1.02916">
        <ele>128</ele>
        <time>2018-07-07T06:06:11Z</time>
      </trkpt>
      <trkpt lat="49.45122" lon="1.02942">
        <ele>129</ele>
        <time>2018-07-07T06:06:16Z</time>
      </trkpt>
      <trkpt lat="49.45118" lon="1.02967">
        <ele>129</ele>
        <time>2018-07-07T06:06:22Z</time>
      </trkpt>
      <trkpt lat="49.45111" lon="1.02978">
        <ele>129</ele>
        <time>2018-07-07T06:06:27Z</time>
      </trkpt>
      <trkpt lat="49.45119" lon="1.02992">
        <ele>129</ele>
        <time>2018-07-07T06:06:33Z</time>
      </trkpt>
      <trkpt lat="49.45136" lon="1.02996">
        <ele>129</ele>
        <time>2018-07-07T06:06:38Z</time>
      </trkpt>
      <trkpt lat="49.45143" lon="1.03018">
        <ele>129</ele>
        <time>2018-07-07T06:06:43Z</time>
      </trkpt>
      <trkpt lat="49.45144" lon="1.03043">
        <ele>129</ele>
        <time>2018-07-07T06:06:48Z</time>
      </trkpt>
      <trkpt lat="49.45139" lon="1.03053">
        <ele>129</ele>
        <time>2018-07-07T06:06:53Z</time>
      </trkpt>
      <trkpt lat="49.45133" lon="1.03066">
        <ele>129</ele>
        <time>2018-07-07T06:06:58Z</time>
      </trkpt>
      <trkpt lat="49.45128" lon="1.03086">
        <ele>129</ele>
        <time>2018-07-07T06:07:03Z</time>
      </trkpt>
      <trkpt lat="49.45126" lon="1.03106">
        <ele>129</ele>
        <time>2018-07-07T06:07:08Z</time>
      </trkpt>
      <trkpt lat="49.45125" lon="1.03121">
        <ele>129</ele>
        <time>2018-07-07T06:07:13Z</time>
      </trkpt>
      <trkpt lat="49.45124" lon="1.03136">
        <ele>130</ele>
        <time>2018-07-07T06:07:18Z</time>
      </trkpt>
      <trkpt lat="49.45122" lon="1.03161">
        <ele>130</ele>
        <time>2018-07-07T06:07:23Z</time>
      </trkpt>
      <trkpt lat="49.45122" lon="1.03188">
        <ele>132</ele>
        <time>2018-07-07T06:07:28Z</time>
      </trkpt>
      <trkpt lat="49.45122" lon="1.03218">
        <ele>132</ele>
        <time>2018-07-07T06:07:33Z</time>
      </trkpt>
      <trkpt lat="49.45123" lon="1.0325">
        <ele>133</ele>
        <time>2018-07-07T06:07:38Z</time>
      </trkpt>
      <trkpt lat="49.45124" lon="1.03282">
        <ele>134</ele>
        <time>2018-07-07T06:07:43Z</time>
      </trkpt>
      <trkpt lat="49.45124" lon="1.0331">
        <ele>134</ele>
        <time>2018-07-07T06:07:48Z</time>
      </trkpt>
      <trkpt lat="49.45121" lon="1.03338">
        <ele>133</ele>
        <time>2018-07-07T06:07:53Z</time>
      </trkpt>
      <trkpt lat="49.45113" lon="1.03346">
        <ele>133</ele>
        <time>2018-07-07T06:07:58Z</time>
      </trkpt>
      <trkpt lat="49.45109" lon="1.03357">
        <ele>133</ele>
        <time>2018-07-07T06:08:03Z</time>
      </trkpt>
      <trkpt lat="49.45117" lon="1.03372">
        <ele>133</ele>
        <time>2018-07-07T06:08:08Z</time>
      </trkpt>
      <trkpt lat="49.45122" lon="1.03396">
        <ele>133</ele>
        <time>2018-07-07T06:08:13Z</time>
      </trkpt>
      <trkpt lat="49.45116" lon="1.0342">
        <ele>131</ele>
        <time>2018-07-07T06:08:18Z</time>
      </trkpt>
      <trkpt lat="49.45102" lon="1.03438">
        <ele>131</ele>
        <time>2018-07-07T06:08:23Z</time>
      </trkpt>
      <trkpt lat="49.45087" lon="1.03455">
        <ele>131</ele>
        <time>2018-07-07T06:08:28Z</time>
      </trkpt>
      <trkpt lat="49.45068" lon="1.03465">
        <ele>131</ele>
        <time>2018-07-07T06:08:33Z</time>
      </trkpt>
      <trkpt lat="49.4505" lon="1.03474">
        <ele>131</ele>
        <time>2018-07-07T06:08:38Z</time>
      </trkpt>
      <trkpt lat="49.45039" lon="1.03485">
        <ele>131</ele>
        <time>2018-07-07T06:08:43Z</time>
      </trkpt>
      <trkpt lat="49.45035" lon="1.03503">
        <ele>130</ele>
        <time>2018-07-07T06:08:48Z</time>
      </trkpt>
      <trkpt lat="49.45029" lon="1.0352">
        <ele>130</ele>
        <time>2018-07-07T06:08:53Z</time>
      </trkpt>
      <trkpt lat="49.45024" lon="1.03521">
        <ele>130</ele>
        <time>2018-07-07T06:09:02Z</time>
      </trkpt>
      <trkpt lat="49.45021" lon="1.03522">
        <ele>130</ele>
        <time>2018-07-07T06:09:07Z</time>
      </trkpt>
      <trkpt lat="49.45014" lon="1.03525">
        <ele>130</ele>
        <time>2018-07-07T06:09:17Z</time>
      </trkpt>
      <trkpt lat="49.45016" lon="1.03526">
        <ele>130</ele>
        <time>2018-07-07T06:09:53Z</time>
      </trkpt>
      <trkpt lat="49.45017" lon="1.03519">
        <ele>130</ele>
        <time>2018-07-07T06:10:00Z</time>
      </trkpt>
      <trkpt lat="49.4501" lon="1.0352">
        <ele>131</ele>
        <time>2018-07-07T06:10:11Z</time>
      </trkpt>
      <trkpt lat="49.45012" lon="1.0352">
        <ele>131</ele>
        <time>2018-07-07T06:10:19Z</time>
      </trkpt>
      <trkpt lat="49.45015" lon="1.03531">
        <ele>130</ele>
        <time>2018-07-07T06:10:30Z</time>
      </trkpt>
      <trkpt lat="49.45014" lon="1.03534">
        <ele>130</ele>
        <time>2018-07-07T06:10:36Z</time>
      </trkpt>
      <trkpt lat="49.45015" lon="1.03526">
        <ele>130</ele>
        <time>2018-07-07T06:10:55Z</time>
      </trkpt>
      <trkpt lat="49.4502" lon="1.03523">
        <ele>130</ele>
        <time>2018-07-07T06:11:02Z</time>
      </trkpt>
      <trkpt lat="49.45023" lon="1.03526">
        <ele>130</ele>
        <time>2018-07-07T06:11:07Z</time>
      </trkpt>
      <trkpt lat="49.45026" lon="1.03527">
        <ele>130</ele>
        <time>2018-07-07T06:11:12Z</time>
      </trkpt>
      <trkpt lat="49.45029" lon="1.03522">
        <ele>130</ele>
        <time>2018-07-07T06:11:17Z</time>
      </trkpt>
      <trkpt lat="49.45035" lon="1.03509">
        <ele>130</ele>
        <time>2018-07-07T06:11:22Z</time>
      </trkpt>
      <trkpt lat="49.45045" lon="1.03496">
        <ele>131</ele>
        <time>2018-07-07T06:11:27Z</time>
      </trkpt>
      <trkpt lat="49.45058" lon="1.03486">
        <ele>131</ele>
        <time>2018-07-07T06:11:32Z</time>
      </trkpt>
      <trkpt lat="49.45071" lon="1.03478">
        <ele>131</ele>
        <time>2018-07-07T06:11:37Z</time>
      </trkpt>
      <trkpt lat="49.45084" lon="1.03472">
        <ele>131</ele>
        <time>2018-07-07T06:11:42Z</time>
      </trkpt>
      <trkpt lat="49.451" lon="1.03463">
        <ele>131</ele>
        <time>2018-07-07T06:11:47Z</time>
      </trkpt>
      <trkpt lat="49.45118" lon="1.03451">
        <ele>131</ele>
        <time>2018-07-07T06:11:52Z</time>
      </trkpt>
      <trkpt lat="49.45132" lon="1.03433">
        <ele>131</ele>
        <time>2018-07-07T06:11:57Z</time>
      </trkpt>
      <trkpt lat="49.4514" lon="1.03422">
        <ele>132</ele>
        <time>2018-07-07T06:12:02Z</time>
      </trkpt>
      <trkpt lat="49.45149" lon="1.03411">
        <ele>133</ele>
        <time>2018-07-07T06:12:07Z</time>
      </trkpt>
      <trkpt lat="49.45163" lon="1.03393">
        <ele>133</ele>
        <time>2018-07-07T06:12:12Z</time>
      </trkpt>
      <trkpt lat="49.45177" lon="1.03372">
        <ele>135</ele>
        <time>2018-07-07T06:12:17Z</time>
      </trkpt>
      <trkpt lat="49.45191" lon="1.03351">
        <ele>135</ele>
        <time>2018-07-07T06:12:22Z</time>
      </trkpt>
      <trkpt lat="49.45206" lon="1.0333">
        <ele>136</ele>
        <time>2018-07-07T06:12:27Z</time>
      </trkpt>
      <trkpt lat="49.45222" lon="1.03309">
        <ele>136</ele>
        <time>2018-07-07T06:12:32Z</time>
      </trkpt>
      <trkpt lat="49.45239" lon="1.03287">
        <ele>136</ele>
        <time>2018-07-07T06:12:37Z</time>
      </trkpt>
      <trkpt lat="49.45257" lon="1.03267">
        <ele>136</ele>
        <time>2018-07-07T06:12:42Z</time>
      </trkpt>
      <trkpt lat="49.45275" lon="1.03245">
        <ele>135</ele>
        <time>2018-07-07T06:12:47Z</time>
      </trkpt>
      <trkpt lat="49.45287" lon="1.03221">
        <ele>134</ele>
        <time>2018-07-07T06:12:52Z</time>
      </trkpt>
      <trkpt lat="49.45295" lon="1.03195">
        <ele>134</ele>
        <time>2018-07-07T06:12:57Z</time>
      </trkpt>
      <trkpt lat="49.45312" lon="1.03182">
        <ele>134</ele>
        <time>2018-07-07T06:13:02Z</time>
      </trkpt>
      <trkpt lat="49.45325" lon="1.03171">
        <ele>134</ele>
        <time>2018-07-07T06:13:07Z</time>
      </trkpt>
      <trkpt lat="49.45343" lon="1.03171">
        <ele>134</ele>
        <time>2018-07-07T06:13:12Z</time>
      </trkpt>
      <trkpt lat="49.45361" lon="1.03172">
        <ele>134</ele>
        <time>2018-07-07T06:13:17Z</time>
      </trkpt>
      <trkpt lat="49.45378" lon="1.03171">
        <ele>134</ele>
        <time>2018-07-07T06:13:22Z</time>
      </trkpt>
      <trkpt lat="49.45399" lon="1.0317">
        <ele>134</ele>
        <time>2018-07-07T06:13:28Z</time>
      </trkpt>
      <trkpt lat="49.45416" lon="1.03169">
        <ele>134</ele>
        <time>2018-07-07T06:13:33Z</time>
      </trkpt>
      <trkpt lat="49.45433" lon="1.03168">
        <ele>135</ele>
        <time>2018-07-07T06:13:38Z</time>
      </trkpt>
      <trkpt lat="49.45451" lon="1.03167">
        <ele>136</ele>
        <time>2018-07-07T06:13:43Z</time>
      </trkpt>
      <trkpt lat="49.45469" lon="1.03167">
        <ele>137</ele>
        <time>2018-07-07T06:13:48Z</time>
      </trkpt>
      <trkpt lat="49.45486" lon="1.03168">
        <ele>138</ele>
        <time>2018-07-07T06:13:53Z</time>
      </trkpt>
      <trkpt lat="49.45504" lon="1.03166">
        <ele>140</ele>
        <time>2018-07-07T06:13:58Z</time>
      </trkpt>
      <trkpt lat="49.45522" lon="1.03169">
        <ele>140</ele>
        <time>2018-07-07T06:14:03Z</time>
      </trkpt>
      <trkpt lat="49.45538" lon="1.03169">
        <ele>140</ele>
        <time>2018-07-07T06:14:08Z</time>
      </trkpt>
      <trkpt lat="49.45558" lon="1.03171">
        <ele>140</ele>
        <time>2018-07-07T06:14:13Z</time>
      </trkpt>
      <trkpt lat="49.45578" lon="1.03172">
        <ele>141</ele>
        <time>2018-07-07T06:14:18Z</time>
      </trkpt>
      <trkpt lat="49.45595" lon="1.03177">
        <ele>141</ele>
        <time>2018-07-07T06:14:23Z</time>
      </trkpt>
      <trkpt lat="49.45614" lon="1.03175">
        <ele>141</ele>
        <time>2018-07-07T06:14:28Z</time>
      </trkpt>
      <trkpt lat="49.45634" lon="1.03174">
        <ele>141</ele>
        <time>2018-07-07T06:14:33Z</time>
      </trkpt>
      <trkpt lat="49.45655" lon="1.0317">
        <ele>142</ele>
        <time>2018-07-07T06:14:38Z</time>
      </trkpt>
      <trkpt lat="49.45678" lon="1.03164">
        <ele>144</ele>
        <time>2018-07-07T06:14:43Z</time>
      </trkpt>
      <trkpt lat="49.457" lon="1.03161">
        <ele>144</ele>
        <time>2018-07-07T06:14:48Z</time>
      </trkpt>
      <trkpt lat="49.45723" lon="1.03159">
        <ele>144</ele>
        <time>2018-07-07T06:14:53Z</time>
      </trkpt>
      <trkpt lat="49.45743" lon="1.03161">
        <ele>143</ele>
        <time>2018-07-07T06:14:58Z</time>
      </trkpt>
      <trkpt lat="49.45763" lon="1.03162">
        <ele>143</ele>
        <time>2018-07-07T06:15:03Z</time>
      </trkpt>
      <trkpt lat="49.45785" lon="1.03159">
        <ele>144</ele>
        <time>2018-07-07T06:15:08Z</time>
      </trkpt>
      <trkpt lat="49.45808" lon="1.03158">
        <ele>144</ele>
        <time>2018-07-07T06:15:13Z</time>
      </trkpt>
      <trkpt lat="49.4583" lon="1.03158">
        <ele>144</ele>
        <time>2018-07-07T06:15:18Z</time>
      </trkpt>
      <trkpt lat="49.45853" lon="1.03159">
        <ele>144</ele>
        <time>2018-07-07T06:15:23Z</time>
      </trkpt>
      <trkpt lat="49.45876" lon="1.03155">
        <ele>143</ele>
        <time>2018-07-07T06:15:28Z</time>
      </trkpt>
      <trkpt lat="49.459" lon="1.03152">
        <ele>143</ele>
        <time>2018-07-07T06:15:33Z</time>
      </trkpt>
      <trkpt lat="49.45925" lon="1.03148">
        <ele>141</ele>
        <time>2018-07-07T06:15:38Z</time>
      </trkpt>
      <trkpt lat="49.45949" lon="1.03145">
        <ele>141</ele>
        <time>2018-07-07T06:15:43Z</time>
      </trkpt>
      <trkpt lat="49.45979" lon="1.03141">
        <ele>141</ele>
        <time>2018-07-07T06:15:49Z</time>
      </trkpt>
      <trkpt lat="49.46002" lon="1.0314">
        <ele>140</ele>
        <time>2018-07-07T06:15:54Z</time>
      </trkpt>
      <trkpt lat="49.46024" lon="1.03139">
        <ele>140</ele>
        <time>2018-07-07T06:15:59Z</time>
      </trkpt>
      <trkpt lat="49.46047" lon="1.03137">
        <ele>140</ele>
        <time>2018-07-07T06:16:04Z</time>
      </trkpt>
      <trkpt lat="49.4607" lon="1.03135">
        <ele>140</ele>
        <time>2018-07-07T06:16:09Z</time>
      </trkpt>
      <trkpt lat="49.46095" lon="1.0313">
        <ele>141</ele>
        <time>2018-07-07T06:16:14Z</time>
      </trkpt>
      <trkpt lat="49.46121" lon="1.03128">
        <ele>141</ele>
        <time>2018-07-07T06:16:19Z</time>
      </trkpt>
      <trkpt lat="49.46148" lon="1.03124">
        <ele>141</ele>
        <time>2018-07-07T06:16:24Z</time>
      </trkpt>
      <trkpt lat="49.46172" lon="1.03126">
        <ele>141</ele>
        <time>2018-07-07T06:16:29Z</time>
      </trkpt>
      <trkpt lat="49.46196" lon="1.03127">
        <ele>141</ele>
        <time>2018-07-07T06:16:34Z</time>
      </trkpt>
      <trkpt lat="49.46215" lon="1.03132">
        <ele>141</ele>
        <time>2018-07-07T06:16:39Z</time>
      </trkpt>
      <trkpt lat="49.46238" lon="1.03131">
        <ele>140</ele>
        <time>2018-07-07T06:16:44Z</time>
      </trkpt>
      <trkpt lat="49.46261" lon="1.03129">
        <ele>140</ele>
        <time>2018-07-07T06:16:49Z</time>
      </trkpt>
      <trkpt lat="49.46284" lon="1.0313">
        <ele>140</ele>
        <time>2018-07-07T06:16:54Z</time>
      </trkpt>
      <trkpt lat="49.46309" lon="1.03129">
        <ele>140</ele>
        <time>2018-07-07T06:16:59Z</time>
      </trkpt>
      <trkpt lat="49.46333" lon="1.03128">
        <ele>140</ele>
        <time>2018-07-07T06:17:04Z</time>
      </trkpt>
      <trkpt lat="49.46358" lon="1.03123">
        <ele>142</ele>
        <time>2018-07-07T06:17:09Z</time>
      </trkpt>
      <trkpt lat="49.46381" lon="1.03118">
        <ele>143</ele>
        <time>2018-07-07T06:17:14Z</time>
      </trkpt>
      <trkpt lat="49.46404" lon="1.03118">
        <ele>143</ele>
        <time>2018-07-07T06:17:19Z</time>
      </trkpt>
      <trkpt lat="49.46429" lon="1.03114">
        <ele>144</ele>
        <time>2018-07-07T06:17:24Z</time>
      </trkpt>
      <trkpt lat="49.46455" lon="1.03111">
        <ele>144</ele>
        <time>2018-07-07T06:17:29Z</time>
      </trkpt>
      <trkpt lat="49.4648" lon="1.0311">
        <ele>144</ele>
        <time>2018-07-07T06:17:34Z</time>
      </trkpt>
      <trkpt lat="49.46505" lon="1.03108">
        <ele>143</ele>
        <time>2018-07-07T06:17:39Z</time>
      </trkpt>
      <trkpt lat="49.46532" lon="1.03108">
        <ele>143</ele>
        <time>2018-07-07T06:17:44Z</time>
      </trkpt>
      <trkpt lat="49.46557" lon="1.03109">
        <ele>143</ele>
        <time>2018-07-07T06:17:49Z</time>
      </trkpt>
      <trkpt lat="49.46582" lon="1.03109">
        <ele>143</ele>
        <time>2018-07-07T06:17:54Z</time>
      </trkpt>
      <trkpt lat="49.46607" lon="1.0311">
        <ele>142</ele>
        <time>2018-07-07T06:17:59Z</time>
      </trkpt>
      <trkpt lat="49.46634" lon="1.03106">
        <ele>142</ele>
        <time>2018-07-07T06:18:04Z</time>
      </trkpt>
      <trkpt lat="49.46658" lon="1.03105">
        <ele>142</ele>
        <time>2018-07-07T06:18:09Z</time>
      </trkpt>
      <trkpt lat="49.46683" lon="1.03104">
        <ele>141</ele>
        <time>2018-07-07T06:18:14Z</time>
      </trkpt>
      <trkpt lat="49.46704" lon="1.03102">
        <ele>141</ele>
        <time>2018-07-07T06:18:19Z</time>
      </trkpt>
      <trkpt lat="49.46728" lon="1.03102">
        <ele>141</ele>
        <time>2018-07-07T06:18:24Z</time>
      </trkpt>
      <trkpt lat="49.46745" lon="1.031">
        <ele>141</ele>
        <time>2018-07-07T06:18:29Z</time>
      </trkpt>
      <trkpt lat="49.46754" lon="1.03098">
        <ele>139</ele>
        <time>2018-07-07T06:18:34Z</time>
      </trkpt>
      <trkpt lat="49.46768" lon="1.03096">
        <ele>138</ele>
        <time>2018-07-07T06:18:39Z</time>
      </trkpt>
      <trkpt lat="49.46784" lon="1.03094">
        <ele>137</ele>
        <time>2018-07-07T06:18:44Z</time>
      </trkpt>
      <trkpt lat="49.46807" lon="1.03092">
        <ele>136</ele>
        <time>2018-07-07T06:18:49Z</time>
      </trkpt>
      <trkpt lat="49.46835" lon="1.03086">
        <ele>135</ele>
        <time>2018-07-07T06:18:54Z</time>
      </trkpt>
      <trkpt lat="49.46863" lon="1.03083">
        <ele>134</ele>
        <time>2018-07-07T06:18:59Z</time>
      </trkpt>
      <trkpt lat="49.46889" lon="1.03069">
        <ele>134</ele>
        <time>2018-07-07T06:19:04Z</time>
      </trkpt>
      <trkpt lat="49.46904" lon="1.03046">
        <ele>134</ele>
        <time>2018-07-07T06:19:09Z</time>
      </trkpt>
      <trkpt lat="49.46916" lon="1.0302">
        <ele>133</ele>
        <time>2018-07-07T06:19:14Z</time>
      </trkpt>
      <trkpt lat="49.46929" lon="1.02991">
        <ele>131</ele>
        <time>2018-07-07T06:19:19Z</time>
      </trkpt>
      <trkpt lat="49.46941" lon="1.02964">
        <ele>131</ele>
        <time>2018-07-07T06:19:24Z</time>
      </trkpt>
      <trkpt lat="49.46952" lon="1.02938">
        <ele>131</ele>
        <time>2018-07-07T06:19:29Z</time>
      </trkpt>
      <trkpt lat="49.46963" lon="1.02913">
        <ele>133</ele>
        <time>2018-07-07T06:19:34Z</time>
      </trkpt>
      <trkpt lat="49.46974" lon="1.02889">
        <ele>133</ele>
        <time>2018-07-07T06:19:39Z</time>
      </trkpt>
      <trkpt lat="49.46986" lon="1.02865">
        <ele>133</ele>
        <time>2018-07-07T06:19:44Z</time>
      </trkpt>
      <trkpt lat="49.46997" lon="1.02839">
        <ele>132</ele>
        <time>2018-07-07T06:19:49Z</time>
      </trkpt>
      <trkpt lat="49.47008" lon="1.02814">
        <ele>130</ele>
        <time>2018-07-07T06:19:54Z</time>
      </trkpt>
      <trkpt lat="49.4702" lon="1.02788">
        <ele>130</ele>
        <time>2018-07-07T06:19:59Z</time>
      </trkpt>
      <trkpt lat="49.47033" lon="1.02766">
        <ele>130</ele>
        <time>2018-07-07T06:20:04Z</time>
      </trkpt>
      <trkpt lat="49.47044" lon="1.02742">
        <ele>131</ele>
        <time>2018-07-07T06:20:09Z</time>
      </trkpt>
      <trkpt lat="49.47052" lon="1.02718">
        <ele>131</ele>
        <time>2018-07-07T06:20:14Z</time>
      </trkpt>
      <trkpt lat="49.47064" lon="1.02693">
        <ele>131</ele>
        <time>2018-07-07T06:20:19Z</time>
      </trkpt>
      <trkpt lat="49.47078" lon="1.02665">
        <ele>131</ele>
        <time>2018-07-07T06:20:24Z</time>
      </trkpt>
      <trkpt lat="49.4709" lon="1.02639">
        <ele>132</ele>
        <time>2018-07-07T06:20:29Z</time>
      </trkpt>
      <trkpt lat="49.47103" lon="1.02613">
        <ele>133</ele>
        <time>2018-07-07T06:20:34Z</time>
      </trkpt>
      <trkpt lat="49.47114" lon="1.02586">
        <ele>134</ele>
        <time>2018-07-07T06:20:39Z</time>
      </trkpt>
      <trkpt lat="49.4712" lon="1.02563">
        <ele>137</ele>
        <time>2018-07-07T06:20:44Z</time>
      </trkpt>
      <trkpt lat="49.4713" lon="1.02556">
        <ele>137</ele>
        <time>2018-07-07T06:20:49Z</time>
      </trkpt>
      <trkpt lat="49.47139" lon="1.02566">
        <ele>137</ele>
        <time>2018-07-07T06:20:54Z</time>
      </trkpt>
      <trkpt lat="49.47139" lon="1.02588">
        <ele>134</ele>
        <time>2018-07-07T06:20:59Z</time>
      </trkpt>
      <trkpt lat="49.47142" lon="1.02609">
        <ele>133</ele>
        <time>2018-07-07T06:21:04Z</time>
      </trkpt>
      <trkpt lat="49.47148" lon="1.0263">
        <ele>132</ele>
        <time>2018-07-07T06:21:09Z</time>
      </trkpt>
      <trkpt lat="49.47155" lon="1.02653">
        <ele>130</ele>
        <time>2018-07-07T06:21:14Z</time>
      </trkpt>
      <trkpt lat="49.47161" lon="1.02679">
        <ele>126</ele>
        <time>2018-07-07T06:21:19Z</time>
      </trkpt>
      <trkpt lat="49.47164" lon="1.02702">
        <ele>124</ele>
        <time>2018-07-07T06:21:24Z</time>
      </trkpt>
      <trkpt lat="49.4717" lon="1.02724">
        <ele>119</ele>
        <time>2018-07-07T06:21:29Z</time>
      </trkpt>
      <trkpt lat="49.47171" lon="1.02743">
        <ele>116</ele>
        <time>2018-07-07T06:21:34Z</time>
      </trkpt>
      <trkpt lat="49.47184" lon="1.02753">
        <ele>113</ele>
        <time>2018-07-07T06:21:39Z</time>
      </trkpt>
      <trkpt lat="49.47208" lon="1.02769">
        <ele>112</ele>
        <time>2018-07-07T06:21:44Z</time>
      </trkpt>
      <trkpt lat="49.47231" lon="1.02804">
        <ele>110</ele>
        <time>2018-07-07T06:21:49Z</time>
      </trkpt>
      <trkpt lat="49.47251" lon="1.02834">
        <ele>106</ele>
        <time>2018-07-07T06:21:54Z</time>
      </trkpt>
      <trkpt lat="49.47283" lon="1.02847">
        <ele>105</ele>
        <time>2018-07-07T06:21:59Z</time>
      </trkpt>
      <trkpt lat="49.47327" lon="1.02891">
        <ele>102</ele>
        <time>2018-07-07T06:22:04Z</time>
      </trkpt>
      <trkpt lat="49.47355" lon="1.02915">
        <ele>102</ele>
        <time>2018-07-07T06:22:09Z</time>
      </trkpt>
      <trkpt lat="49.47377" lon="1.02965">
        <ele>99</ele>
        <time>2018-07-07T06:22:14Z</time>
      </trkpt>
      <trkpt lat="49.47387" lon="1.03018">
        <ele>97</ele>
        <time>2018-07-07T06:22:19Z</time>
      </trkpt>
      <trkpt lat="49.47377" lon="1.03077">
        <ele>95</ele>
        <time>2018-07-07T06:22:24Z</time>
      </trkpt>
      <trkpt lat="49.47364" lon="1.03137">
        <ele>90</ele>
        <time>2018-07-07T06:22:29Z</time>
      </trkpt>
      <trkpt lat="49.47355" lon="1.032">
        <ele>87</ele>
        <time>2018-07-07T06:22:34Z</time>
      </trkpt>
      <trkpt lat="49.47347" lon="1.03267">
        <ele>84</ele>
        <time>2018-07-07T06:22:39Z</time>
      </trkpt>
      <trkpt lat="49.4734" lon="1.03335">
        <ele>80</ele>
        <time>2018-07-07T06:22:44Z</time>
      </trkpt>
      <trkpt lat="49.47334" lon="1.03403">
        <ele>79</ele>
        <time>2018-07-07T06:22:49Z</time>
      </trkpt>
      <trkpt lat="49.47337" lon="1.03474">
        <ele>74</ele>
        <time>2018-07-07T06:22:54Z</time>
      </trkpt>
      <trkpt lat="49.4737" lon="1.03529">
        <ele>67</ele>
        <time>2018-07-07T06:22:59Z</time>
      </trkpt>
      <trkpt lat="49.4742" lon="1.03546">
        <ele>64</ele>
        <time>2018-07-07T06:23:04Z</time>
      </trkpt>
      <trkpt lat="49.47472" lon="1.03544">
        <ele>63</ele>
        <time>2018-07-07T06:23:09Z</time>
      </trkpt>
      <trkpt lat="49.47523" lon="1.03524">
        <ele>59</ele>
        <time>2018-07-07T06:23:14Z</time>
      </trkpt>
      <trkpt lat="49.47574" lon="1.03502">
        <ele>57</ele>
        <time>2018-07-07T06:23:19Z</time>
      </trkpt>
      <trkpt lat="49.47624" lon="1.03482">
        <ele>64</ele>
        <time>2018-07-07T06:23:24Z</time>
      </trkpt>
      <trkpt lat="49.47675" lon="1.03485">
        <ele>58</ele>
        <time>2018-07-07T06:23:29Z</time>
      </trkpt>
      <trkpt lat="49.47723" lon="1.03518">
        <ele>48</ele>
        <time>2018-07-07T06:23:34Z</time>
      </trkpt>
      <trkpt lat="49.4777" lon="1.03552">
        <ele>43</ele>
        <time>2018-07-07T06:23:39Z</time>
      </trkpt>
      <trkpt lat="49.47821" lon="1.03558">
        <ele>41</ele>
        <time>2018-07-07T06:23:44Z</time>
      </trkpt>
      <trkpt lat="49.47871" lon="1.03537">
        <ele>43</ele>
        <time>2018-07-07T06:23:49Z</time>
      </trkpt>
      <trkpt lat="49.47923" lon="1.03545">
        <ele>46</ele>
        <time>2018-07-07T06:23:54Z</time>
      </trkpt>
      <trkpt lat="49.47972" lon="1.0357">
        <ele>45</ele>
        <time>2018-07-07T06:23:59Z</time>
      </trkpt>
      <trkpt lat="49.4802" lon="1.03596">
        <ele>36</ele>
        <time>2018-07-07T06:24:04Z</time>
      </trkpt>
      <trkpt lat="49.48067" lon="1.03619">
        <ele>35</ele>
        <time>2018-07-07T06:24:09Z</time>
      </trkpt>
      <trkpt lat="49.48112" lon="1.03647">
        <ele>32</ele>
        <time>2018-07-07T06:24:14Z</time>
      </trkpt>
      <trkpt lat="49.48153" lon="1.03673">
        <ele>27</ele>
        <time>2018-07-07T06:24:19Z</time>
      </trkpt>
      <trkpt lat="49.48178" lon="1.03694">
        <ele>27</ele>
        <time>2018-07-07T06:24:24Z</time>
      </trkpt>
      <trkpt lat="49.48184" lon="1.03709">
        <ele>27</ele>
        <time>2018-07-07T06:24:29Z</time>
      </trkpt>
      <trkpt lat="49.48184" lon="1.03743">
        <ele>26</ele>
        <time>2018-07-07T06:24:34Z</time>
      </trkpt>
      <trkpt lat="49.48187" lon="1.03779">
        <ele>25</ele>
        <time>2018-07-07T06:24:39Z</time>
      </trkpt>
      <trkpt lat="49.48189" lon="1.03814">
        <ele>25</ele>
        <time>2018-07-07T06:24:44Z</time>
      </trkpt>
      <trkpt lat="49.48193" lon="1.03851">
        <ele>23</ele>
        <time>2018-07-07T06:24:49Z</time>
      </trkpt>
      <trkpt lat="49.48198" lon="1.03887">
        <ele>23</ele>
        <time>2018-07-07T06:24:54Z</time>
      </trkpt>
      <trkpt lat="49.482" lon="1.03923">
        <ele>22</ele>
        <time>2018-07-07T06:24:59Z</time>
      </trkpt>
      <trkpt lat="49.48203" lon="1.03958">
        <ele>22</ele>
        <time>2018-07-07T06:25:04Z</time>
      </trkpt>
      <trkpt lat="49.48208" lon="1.03993">
        <ele>21</ele>
        <time>2018-07-07T06:25:09Z</time>
      </trkpt>
      <trkpt lat="49.48209" lon="1.04023">
        <ele>21</ele>
        <time>2018-07-07T06:25:14Z</time>
      </trkpt>
      <trkpt lat="49.48207" lon="1.04033">
        <ele>21</ele>
        <time>2018-07-07T06:25:20Z</time>
      </trkpt>
      <trkpt lat="49.48205" lon="1.04028">
        <ele>21</ele>
        <time>2018-07-07T06:25:25Z</time>
      </trkpt>
      <trkpt lat="49.48214" lon="1.04038">
        <ele>21</ele>
        <time>2018-07-07T06:25:30Z</time>
      </trkpt>
      <trkpt lat="49.48222" lon="1.04046">
        <ele>21</ele>
        <time>2018-07-07T06:25:35Z</time>
      </trkpt>
      <trkpt lat="49.48225" lon="1.04067">
        <ele>21</ele>
        <time>2018-07-07T06:25:40Z</time>
      </trkpt>
      <trkpt lat="49.48228" lon="1.04095">
        <ele>21</ele>
        <time>2018-07-07T06:25:45Z</time>
      </trkpt>
      <trkpt lat="49.48231" lon="1.04124">
        <ele>21</ele>
        <time>2018-07-07T06:25:50Z</time>
      </trkpt>
      <trkpt lat="49.48234" lon="1.04151">
        <ele>20</ele>
        <time>2018-07-07T06:25:55Z</time>
      </trkpt>
      <trkpt lat="49.48236" lon="1.04175">
        <ele>20</ele>
        <time>2018-07-07T06:26:00Z</time>
      </trkpt>
      <trkpt lat="49.48237" lon="1.04203">
        <ele>20</ele>
        <time>2018-07-07T06:26:05Z</time>
      </trkpt>
      <trkpt lat="49.48241" lon="1.04232">
        <ele>20</ele>
        <time>2018-07-07T06:26:10Z</time>
      </trkpt>
      <trkpt lat="49.48248" lon="1.04251">
        <ele>20</ele>
        <time>2018-07-07T06:26:15Z</time>
      </trkpt>
      <trkpt lat="49.48248" lon="1.04265">
        <ele>20</ele>
        <time>2018-07-07T06:26:20Z</time>
      </trkpt>
      <trkpt lat="49.48244" lon="1.04275">
        <ele>20</ele>
        <time>2018-07-07T06:26:25Z</time>
      </trkpt>
      <trkpt lat="49.48247" lon="1.04282">
        <ele>20</ele>
        <time>2018-07-07T06:26:30Z</time>
      </trkpt>
      <trkpt lat="49.48244" lon="1.04291">
        <ele>20</ele>
        <time>2018-07-07T06:26:35Z</time>
      </trkpt>
      <trkpt lat="49.48242" lon="1.04308">
        <ele>20</ele>
        <time>2018-07-07T06:26:40Z</time>
      </trkpt>
      <trkpt lat="49.4824" lon="1.04332">
        <ele>19</ele>
        <time>2018-07-07T06:26:45Z</time>
      </trkpt>
      <trkpt lat="49.48243" lon="1.04361">
        <ele>19</ele>
        <time>2018-07-07T06:26:50Z</time>
      </trkpt>
      <trkpt lat="49.48249" lon="1.04395">
        <ele>20</ele>
        <time>2018-07-07T06:26:55Z</time>
      </trkpt>
      <trkpt lat="49.48249" lon="1.04426">
        <ele>20</ele>
        <time>2018-07-07T06:27:00Z</time>
      </trkpt>
      <trkpt lat="49.48243" lon="1.04452">
        <ele>21</ele>
        <time>2018-07-07T06:27:05Z</time>
      </trkpt>
      <trkpt lat="49.4825" lon="1.04479">
        <ele>23</ele>
        <time>2018-07-07T06:27:10Z</time>
      </trkpt>
      <trkpt lat="49.48259" lon="1.04505">
        <ele>24</ele>
        <time>2018-07-07T06:27:15Z</time>
      </trkpt>
      <trkpt lat="49.4827" lon="1.04522">
        <ele>24</ele>
        <time>2018-07-07T06:27:20Z</time>
      </trkpt>
      <trkpt lat="49.48285" lon="1.04537">
        <ele>24</ele>
        <time>2018-07-07T06:27:25Z</time>
      </trkpt>
      <trkpt lat="49.48307" lon="1.0455">
        <ele>23</ele>
        <time>2018-07-07T06:27:30Z</time>
      </trkpt>
      <trkpt lat="49.4833" lon="1.0456">
        <ele>23</ele>
        <time>2018-07-07T06:27:35Z</time>
      </trkpt>
      <trkpt lat="49.48352" lon="1.04569">
        <ele>23</ele>
        <time>2018-07-07T06:27:40Z</time>
      </trkpt>
      <trkpt lat="49.48371" lon="1.04575">
        <ele>22</ele>
        <time>2018-07-07T06:27:45Z</time>
      </trkpt>
      <trkpt lat="49.48387" lon="1.0458">
        <ele>22</ele>
        <time>2018-07-07T06:27:50Z</time>
      </trkpt>
      <trkpt lat="49.48405" lon="1.04586">
        <ele>22</ele>
        <time>2018-07-07T06:27:55Z</time>
      </trkpt>
      <trkpt lat="49.48426" lon="1.04594">
        <ele>22</ele>
        <time>2018-07-07T06:28:00Z</time>
      </trkpt>
      <trkpt lat="49.48445" lon="1.04603">
        <ele>23</ele>
        <time>2018-07-07T06:28:05Z</time>
      </trkpt>
      <trkpt lat="49.48463" lon="1.04619">
        <ele>23</ele>
        <time>2018-07-07T06:28:10Z</time>
      </trkpt>
      <trkpt lat="49.48479" lon="1.04641">
        <ele>23</ele>
        <time>2018-07-07T06:28:15Z</time>
      </trkpt>
      <trkpt lat="49.4849" lon="1.04668">
        <ele>24</ele>
        <time>2018-07-07T06:28:20Z</time>
      </trkpt>
      <trkpt lat="49.48492" lon="1.04696">
        <ele>24</ele>
        <time>2018-07-07T06:28:25Z</time>
      </trkpt>
      <trkpt lat="49.48491" lon="1.04722">
        <ele>25</ele>
        <time>2018-07-07T06:28:30Z</time>
      </trkpt>
      <trkpt lat="49.48487" lon="1.04747">
        <ele>25</ele>
        <time>2018-07-07T06:28:35Z</time>
      </trkpt>
      <trkpt lat="49.48483" lon="1.04769">
        <ele>26</ele>
        <time>2018-07-07T06:28:40Z</time>
      </trkpt>
      <trkpt lat="49.48479" lon="1.04788">
        <ele>27</ele>
        <time>2018-07-07T06:28:45Z</time>
      </trkpt>
      <trkpt lat="49.48477" lon="1.04801">
        <ele>27</ele>
        <time>2018-07-07T06:28:50Z</time>
      </trkpt>
      <trkpt lat="49.48475" lon="1.04812">
        <ele>27</ele>
        <time>2018-07-07T06:28:55Z</time>
      </trkpt>
      <trkpt lat="49.48479" lon="1.04812">
        <ele>28</ele>
        <time>2018-07-07T06:29:02Z</time>
      </trkpt>
      <trkpt lat="49.48482" lon="1.04814">
        <ele>28</ele>
        <time>2018-07-07T06:29:08Z</time>
      </trkpt>
      <trkpt lat="49.48484" lon="1.04819">
        <ele>28</ele>
        <time>2018-07-07T06:29:15Z</time>
      </trkpt>
      <trkpt lat="49.48482" lon="1.04826">
        <ele>28</ele>
        <time>2018-07-07T06:29:20Z</time>
      </trkpt>
      <trkpt lat="49.48469" lon="1.04847">
        <ele>30</ele>
        <time>2018-07-07T06:29:25Z</time>
      </trkpt>
      <trkpt lat="49.48458" lon="1.04874">
        <ele>31</ele>
        <time>2018-07-07T06:29:30Z</time>
      </trkpt>
      <trkpt lat="49.48444" lon="1.04898">
        <ele>31</ele>
        <time>2018-07-07T06:29:35Z</time>
      </trkpt>
      <trkpt lat="49.4843" lon="1.04923">
        <ele>33</ele>
        <time>2018-07-07T06:29:40Z</time>
      </trkpt>
      <trkpt lat="49.48416" lon="1.04946">
        <ele>29</ele>
        <time>2018-07-07T06:29:45Z</time>
      </trkpt>
      <trkpt lat="49.48402" lon="1.0497">
        <ele>30</ele>
        <time>2018-07-07T06:29:50Z</time>
      </trkpt>
      <trkpt lat="49.48397" lon="1.05004">
        <ele>35</ele>
        <time>2018-07-07T06:29:55Z</time>
      </trkpt>
      <trkpt lat="49.48402" lon="1.05041">
        <ele>36</ele>
        <time>2018-07-07T06:30:00Z</time>
      </trkpt>
      <trkpt lat="49.48378" lon="1.05122">
        <ele>37</ele>
        <time>2018-07-07T06:30:13Z</time>
      </trkpt>
      <trkpt lat="49.48356" lon="1.05141">
        <ele>35</ele>
        <time>2018-07-07T06:30:18Z</time>
      </trkpt>
      <trkpt lat="49.48333" lon="1.05144">
        <ele>30</ele>
        <time>2018-07-07T06:30:23Z</time>
      </trkpt>
      <trkpt lat="49.48328" lon="1.05148">
        <ele>30</ele>
        <time>2018-07-07T06:30:28Z</time>
      </trkpt>
      <trkpt lat="49.48328" lon="1.05165">
        <ele>29</ele>
        <time>2018-07-07T06:30:33Z</time>
      </trkpt>
      <trkpt lat="49.4833" lon="1.05197">
        <ele>28</ele>
        <time>2018-07-07T06:30:38Z</time>
      </trkpt>
      <trkpt lat="49.4833" lon="1.05231">
        <ele>28</ele>
        <time>2018-07-07T06:30:43Z</time>
      </trkpt>
      <trkpt lat="49.48332" lon="1.05266">
        <ele>27</ele>
        <time>2018-07-07T06:30:48Z</time>
      </trkpt>
      <trkpt lat="49.48333" lon="1.05301">
        <ele>34</ele>
        <time>2018-07-07T06:30:53Z</time>
      </trkpt>
      <trkpt lat="49.48335" lon="1.05336">
        <ele>29</ele>
        <time>2018-07-07T06:30:58Z</time>
      </trkpt>
      <trkpt lat="49.48336" lon="1.05371">
        <ele>34</ele>
        <time>2018-07-07T06:31:03Z</time>
      </trkpt>
      <trkpt lat="49.48336" lon="1.05407">
        <ele>31</ele>
        <time>2018-07-07T06:31:08Z</time>
      </trkpt>
      <trkpt lat="49.48336" lon="1.05442">
        <ele>34</ele>
        <time>2018-07-07T06:31:13Z</time>
      </trkpt>
      <trkpt lat="49.48335" lon="1.05475">
        <ele>34</ele>
        <time>2018-07-07T06:31:18Z</time>
      </trkpt>
      <trkpt lat="49.48335" lon="1.05509">
        <ele>32</ele>
        <time>2018-07-07T06:31:23Z</time>
      </trkpt>
      <trkpt lat="49.48333" lon="1.05543">
        <ele>29</ele>
        <time>2018-07-07T06:31:28Z</time>
      </trkpt>
      <trkpt lat="49.48331" lon="1.05576">
        <ele>30</ele>
        <time>2018-07-07T06:31:33Z</time>
      </trkpt>
      <trkpt lat="49.4833" lon="1.05609">
        <ele>30</ele>
        <time>2018-07-07T06:31:38Z</time>
      </trkpt>
      <trkpt lat="49.48328" lon="1.0564">
        <ele>30</ele>
        <time>2018-07-07T06:31:43Z</time>
      </trkpt>
      <trkpt lat="49.48327" lon="1.05669">
        <ele>30</ele>
        <time>2018-07-07T06:31:48Z</time>
      </trkpt>
      <trkpt lat="49.48327" lon="1.05697">
        <ele>31</ele>
        <time>2018-07-07T06:31:53Z</time>
      </trkpt>
      <trkpt lat="49.48329" lon="1.05726">
        <ele>31</ele>
        <time>2018-07-07T06:31:58Z</time>
      </trkpt>
      <trkpt lat="49.48335" lon="1.05755">
        <ele>31</ele>
        <time>2018-07-07T06:32:03Z</time>
      </trkpt>
      <trkpt lat="49.48344" lon="1.0578">
        <ele>35</ele>
        <time>2018-07-07T06:32:08Z</time>
      </trkpt>
      <trkpt lat="49.48347" lon="1.05806">
        <ele>35</ele>
        <time>2018-07-07T06:32:13Z</time>
      </trkpt>
      <trkpt lat="49.48348" lon="1.05828">
        <ele>34</ele>
        <time>2018-07-07T06:32:18Z</time>
      </trkpt>
      <trkpt lat="49.48339" lon="1.05846">
        <ele>33</ele>
        <time>2018-07-07T06:32:23Z</time>
      </trkpt>
      <trkpt lat="49.48324" lon="1.05855">
        <ele>34</ele>
        <time>2018-07-07T06:32:28Z</time>
      </trkpt>
      <trkpt lat="49.4831" lon="1.05867">
        <ele>35</ele>
        <time>2018-07-07T06:32:33Z</time>
      </trkpt>
      <trkpt lat="49.48295" lon="1.05875">
        <ele>35</ele>
        <time>2018-07-07T06:32:38Z</time>
      </trkpt>
      <trkpt lat="49.4828" lon="1.05882">
        <ele>36</ele>
        <time>2018-07-07T06:32:43Z</time>
      </trkpt>
      <trkpt lat="49.48267" lon="1.05896">
        <ele>38</ele>
        <time>2018-07-07T06:32:48Z</time>
      </trkpt>
      <trkpt lat="49.48262" lon="1.05916">
        <ele>39</ele>
        <time>2018-07-07T06:32:53Z</time>
      </trkpt>
      <trkpt lat="49.4825" lon="1.0592">
        <ele>43</ele>
        <time>2018-07-07T06:32:58Z</time>
      </trkpt>
      <trkpt lat="49.48239" lon="1.0592">
        <ele>45</ele>
        <time>2018-07-07T06:33:03Z</time>
      </trkpt>
      <trkpt lat="49.48231" lon="1.05916">
        <ele>41</ele>
        <time>2018-07-07T06:33:13Z</time>
      </trkpt>
      <trkpt lat="49.48223" lon="1.05917">
        <ele>47</ele>
        <time>2018-07-07T06:33:18Z</time>
      </trkpt>
      <trkpt lat="49.48214" lon="1.05922">
        <ele>47</ele>
        <time>2018-07-07T06:33:23Z</time>
      </trkpt>
      <trkpt lat="49.48201" lon="1.0593">
        <ele>48</ele>
        <time>2018-07-07T06:33:28Z</time>
      </trkpt>
      <trkpt lat="49.48188" lon="1.05939">
        <ele>48</ele>
        <time>2018-07-07T06:33:33Z</time>
      </trkpt>
      <trkpt lat="49.48174" lon="1.05949">
        <ele>49</ele>
        <time>2018-07-07T06:33:38Z</time>
      </trkpt>
      <trkpt lat="49.4816" lon="1.05958">
        <ele>49</ele>
        <time>2018-07-07T06:33:43Z</time>
      </trkpt>
      <trkpt lat="49.48144" lon="1.0597">
        <ele>49</ele>
        <time>2018-07-07T06:33:48Z</time>
      </trkpt>
      <trkpt lat="49.48128" lon="1.05983">
        <ele>49</ele>
        <time>2018-07-07T06:33:53Z</time>
      </trkpt>
      <trkpt lat="49.48112" lon="1.05996">
        <ele>48</ele>
        <time>2018-07-07T06:33:58Z</time>
      </trkpt>
      <trkpt lat="49.48097" lon="1.06013">
        <ele>52</ele>
        <time>2018-07-07T06:34:03Z</time>
      </trkpt>
      <trkpt lat="49.48083" lon="1.06033">
        <ele>50</ele>
        <time>2018-07-07T06:34:08Z</time>
      </trkpt>
      <trkpt lat="49.48074" lon="1.06055">
        <ele>52</ele>
        <time>2018-07-07T06:34:13Z</time>
      </trkpt>
      <trkpt lat="49.48067" lon="1.06083">
        <ele>53</ele>
        <time>2018-07-07T06:34:18Z</time>
      </trkpt>
      <trkpt lat="49.48059" lon="1.06111">
        <ele>55</ele>
        <time>2018-07-07T06:34:23Z</time>
      </trkpt>
      <trkpt lat="49.48051" lon="1.06134">
        <ele>56</ele>
        <time>2018-07-07T06:34:28Z</time>
      </trkpt>
      <trkpt lat="49.48044" lon="1.06155">
        <ele>56</ele>
        <time>2018-07-07T06:34:33Z</time>
      </trkpt>
      <trkpt lat="49.4804" lon="1.06182">
        <ele>59</ele>
        <time>2018-07-07T06:34:38Z</time>
      </trkpt>
      <trkpt lat="49.48039" lon="1.06205">
        <ele>59</ele>
        <time>2018-07-07T06:34:43Z</time>
      </trkpt>
      <trkpt lat="49.48039" lon="1.06229">
        <ele>59</ele>
        <time>2018-07-07T06:34:48Z</time>
      </trkpt>
      <trkpt lat="49.48035" lon="1.06251">
        <ele>61</ele>
        <time>2018-07-07T06:34:53Z</time>
      </trkpt>
      <trkpt lat="49.48032" lon="1.06278">
        <ele>61</ele>
        <time>2018-07-07T06:34:58Z</time>
      </trkpt>
      <trkpt lat="49.4803" lon="1.06305">
        <ele>62</ele>
        <time>2018-07-07T06:35:03Z</time>
      </trkpt>
      <trkpt lat="49.48032" lon="1.06329">
        <ele>62</ele>
        <time>2018-07-07T06:35:08Z</time>
      </trkpt>
      <trkpt lat="49.48031" lon="1.06358">
        <ele>65</ele>
        <time>2018-07-07T06:35:13Z</time>
      </trkpt>
      <trkpt lat="49.48027" lon="1.06384">
        <ele>65</ele>
        <time>2018-07-07T06:35:18Z</time>
      </trkpt>
      <trkpt lat="49.48029" lon="1.06411">
        <ele>65</ele>
        <time>2018-07-07T06:35:23Z</time>
      </trkpt>
      <trkpt lat="49.48032" lon="1.06437">
        <ele>69</ele>
        <time>2018-07-07T06:35:28Z</time>
      </trkpt>
      <trkpt lat="49.48036" lon="1.06461">
        <ele>70</ele>
        <time>2018-07-07T06:35:33Z</time>
      </trkpt>
      <trkpt lat="49.4804" lon="1.06484">
        <ele>71</ele>
        <time>2018-07-07T06:35:38Z</time>
      </trkpt>
      <trkpt lat="49.48033" lon="1.06504">
        <ele>72</ele>
        <time>2018-07-07T06:35:43Z</time>
      </trkpt>
      <trkpt lat="49.48024" lon="1.06526">
        <ele>71</ele>
        <time>2018-07-07T06:35:48Z</time>
      </trkpt>
      <trkpt lat="49.48014" lon="1.06546">
        <ele>71</ele>
        <time>2018-07-07T06:35:53Z</time>
      </trkpt>
      <trkpt lat="49.48004" lon="1.06567">
        <ele>68</ele>
        <time>2018-07-07T06:35:58Z</time>
      </trkpt>
      <trkpt lat="49.47995" lon="1.06586">
        <ele>63</ele>
        <time>2018-07-07T06:36:03Z</time>
      </trkpt>
      <trkpt lat="49.47992" lon="1.06599">
        <ele>64</ele>
        <time>2018-07-07T06:36:08Z</time>
      </trkpt>
      <trkpt lat="49.47987" lon="1.0662">
        <ele>65</ele>
        <time>2018-07-07T06:36:13Z</time>
      </trkpt>
      <trkpt lat="49.47981" lon="1.06639">
        <ele>67</ele>
        <time>2018-07-07T06:36:18Z</time>
      </trkpt>
      <trkpt lat="49.47978" lon="1.06652">
        <ele>67</ele>
        <time>2018-07-07T06:36:23Z</time>
      </trkpt>
      <trkpt lat="49.47976" lon="1.06667">
        <ele>68</ele>
        <time>2018-07-07T06:36:28Z</time>
      </trkpt>
      <trkpt lat="49.47972" lon="1.06681">
        <ele>71</ele>
        <time>2018-07-07T06:36:33Z</time>
      </trkpt>
      <trkpt lat="49.47966" lon="1.06693">
        <ele>71</ele>
        <time>2018-07-07T06:36:38Z</time>
      </trkpt>
      <trkpt lat="49.47958" lon="1.06708">
        <ele>71</ele>
        <time>2018-07-07T06:36:43Z</time>
      </trkpt>
      <trkpt lat="49.47953" lon="1.06719">
        <ele>71</ele>
        <time>2018-07-07T06:36:48Z</time>
      </trkpt>
      <trkpt lat="49.47946" lon="1.0673">
        <ele>71</ele>
        <time>2018-07-07T06:36:53Z</time>
      </trkpt>
      <trkpt lat="49.47941" lon="1.06742">
        <ele>70</ele>
        <time>2018-07-07T06:36:58Z</time>
      </trkpt>
      <trkpt lat="49.47937" lon="1.06752">
        <ele>75</ele>
        <time>2018-07-07T06:37:03Z</time>
      </trkpt>
      <trkpt lat="49.47933" lon="1.06762">
        <ele>75</ele>
        <time>2018-07-07T06:37:08Z</time>
      </trkpt>
      <trkpt lat="49.47927" lon="1.06772">
        <ele>76</ele>
        <time>2018-07-07T06:37:13Z</time>
      </trkpt>
      <trkpt lat="49.47923" lon="1.0678">
        <ele>78</ele>
        <time>2018-07-07T06:37:18Z</time>
      </trkpt>
      <trkpt lat="49.47917" lon="1.06792">
        <ele>79</ele>
        <time>2018-07-07T06:37:23Z</time>
      </trkpt>
      <trkpt lat="49.47911" lon="1.06808">
        <ele>72</ele>
        <time>2018-07-07T06:37:28Z</time>
      </trkpt>
      <trkpt lat="49.47907" lon="1.06821">
        <ele>74</ele>
        <time>2018-07-07T06:37:33Z</time>
      </trkpt>
      <trkpt lat="49.47901" lon="1.06835">
        <ele>77</ele>
        <time>2018-07-07T06:37:38Z</time>
      </trkpt>
      <trkpt lat="49.47895" lon="1.06847">
        <ele>77</ele>
        <time>2018-07-07T06:37:43Z</time>
      </trkpt>
      <trkpt lat="49.47889" lon="1.0686">
        <ele>76</ele>
        <time>2018-07-07T06:37:48Z</time>
      </trkpt>
      <trkpt lat="49.47881" lon="1.06879">
        <ele>76</ele>
        <time>2018-07-07T06:37:54Z</time>
      </trkpt>
      <trkpt lat="49.47874" lon="1.06898">
        <ele>76</ele>
        <time>2018-07-07T06:37:59Z</time>
      </trkpt>
      <trkpt lat="49.47871" lon="1.06922">
        <ele>78</ele>
        <time>2018-07-07T06:38:04Z</time>
      </trkpt>
      <trkpt lat="49.47869" lon="1.06948">
        <ele>78</ele>
        <time>2018-07-07T06:38:09Z</time>
      </trkpt>
      <trkpt lat="49.47868" lon="1.06974">
        <ele>79</ele>
        <time>2018-07-07T06:38:14Z</time>
      </trkpt>
      <trkpt lat="49.4787" lon="1.06997">
        <ele>79</ele>
        <time>2018-07-07T06:38:19Z</time>
      </trkpt>
      <trkpt lat="49.47877" lon="1.07021">
        <ele>81</ele>
        <time>2018-07-07T06:38:24Z</time>
      </trkpt>
      <trkpt lat="49.4788" lon="1.07044">
        <ele>81</ele>
        <time>2018-07-07T06:38:29Z</time>
      </trkpt>
      <trkpt lat="49.47884" lon="1.07062">
        <ele>82</ele>
        <time>2018-07-07T06:38:34Z</time>
      </trkpt>
      <trkpt lat="49.47888" lon="1.07085">
        <ele>82</ele>
        <time>2018-07-07T06:38:39Z</time>
      </trkpt>
      <trkpt lat="49.47892" lon="1.07103">
        <ele>82</ele>
        <time>2018-07-07T06:38:44Z</time>
      </trkpt>
      <trkpt lat="49.47895" lon="1.07117">
        <ele>81</ele>
        <time>2018-07-07T06:38:49Z</time>
      </trkpt>
      <trkpt lat="49.479" lon="1.07131">
        <ele>81</ele>
        <time>2018-07-07T06:38:54Z</time>
      </trkpt>
      <trkpt lat="49.47905" lon="1.07141">
        <ele>81</ele>
        <time>2018-07-07T06:38:59Z</time>
      </trkpt>
      <trkpt lat="49.47911" lon="1.07149">
        <ele>81</ele>
        <time>2018-07-07T06:39:04Z</time>
      </trkpt>
      <trkpt lat="49.47918" lon="1.07157">
        <ele>87</ele>
        <time>2018-07-07T06:39:09Z</time>
      </trkpt>
      <trkpt lat="49.47923" lon="1.07169">
        <ele>85</ele>
        <time>2018-07-07T06:39:14Z</time>
      </trkpt>
      <trkpt lat="49.47932" lon="1.07176">
        <ele>88</ele>
        <time>2018-07-07T06:39:19Z</time>
      </trkpt>
      <trkpt lat="49.47938" lon="1.0719">
        <ele>89</ele>
        <time>2018-07-07T06:39:24Z</time>
      </trkpt>
      <trkpt lat="49.47947" lon="1.07198">
        <ele>91</ele>
        <time>2018-07-07T06:39:29Z</time>
      </trkpt>
      <trkpt lat="49.47955" lon="1.07213">
        <ele>92</ele>
        <time>2018-07-07T06:39:34Z</time>
      </trkpt>
      <trkpt lat="49.47961" lon="1.07234">
        <ele>92</ele>
        <time>2018-07-07T06:39:39Z</time>
      </trkpt>
      <trkpt lat="49.47968" lon="1.07254">
        <ele>92</ele>
        <time>2018-07-07T06:39:44Z</time>
      </trkpt>
      <trkpt lat="49.47982" lon="1.07277">
        <ele>93</ele>
        <time>2018-07-07T06:39:49Z</time>
      </trkpt>
      <trkpt lat="49.47995" lon="1.07303">
        <ele>94</ele>
        <time>2018-07-07T06:39:54Z</time>
      </trkpt>
      <trkpt lat="49.48003" lon="1.07324">
        <ele>101</ele>
        <time>2018-07-07T06:39:59Z</time>
      </trkpt>
      <trkpt lat="49.48005" lon="1.0734">
        <ele>100</ele>
        <time>2018-07-07T06:40:04Z</time>
      </trkpt>
      <trkpt lat="49.48006" lon="1.07355">
        <ele>103</ele>
        <time>2018-07-07T06:40:09Z</time>
      </trkpt>
      <trkpt lat="49.48008" lon="1.07377">
        <ele>104</ele>
        <time>2018-07-07T06:40:14Z</time>
      </trkpt>
      <trkpt lat="49.48008" lon="1.07392">
        <ele>103</ele>
        <time>2018-07-07T06:40:19Z</time>
      </trkpt>
      <trkpt lat="49.48012" lon="1.07408">
        <ele>101</ele>
        <time>2018-07-07T06:40:24Z</time>
      </trkpt>
      <trkpt lat="49.48015" lon="1.07425">
        <ele>101</ele>
        <time>2018-07-07T06:40:29Z</time>
      </trkpt>
      <trkpt lat="49.48015" lon="1.07441">
        <ele>103</ele>
        <time>2018-07-07T06:40:34Z</time>
      </trkpt>
      <trkpt lat="49.48017" lon="1.07455">
        <ele>104</ele>
        <time>2018-07-07T06:40:39Z</time>
      </trkpt>
      <trkpt lat="49.48018" lon="1.07472">
        <ele>104</ele>
        <time>2018-07-07T06:40:44Z</time>
      </trkpt>
      <trkpt lat="49.48024" lon="1.07491">
        <ele>104</ele>
        <time>2018-07-07T06:40:49Z</time>
      </trkpt>
      <trkpt lat="49.48022" lon="1.07506">
        <ele>103</ele>
        <time>2018-07-07T06:40:54Z</time>
      </trkpt>
      <trkpt lat="49.48026" lon="1.07523">
        <ele>105</ele>
        <time>2018-07-07T06:40:59Z</time>
      </trkpt>
      <trkpt lat="49.48028" lon="1.07545">
        <ele>106</ele>
        <time>2018-07-07T06:41:04Z</time>
      </trkpt>
      <trkpt lat="49.4803" lon="1.0757">
        <ele>106</ele>
        <time>2018-07-07T06:41:09Z</time>
      </trkpt>
      <trkpt lat="49.48032" lon="1.07602">
        <ele>108</ele>
        <time>2018-07-07T06:41:14Z</time>
      </trkpt>
      <trkpt lat="49.48029" lon="1.07637">
        <ele>108</ele>
        <time>2018-07-07T06:41:19Z</time>
      </trkpt>
      <trkpt lat="49.48026" lon="1.07675">
        <ele>109</ele>
        <time>2018-07-07T06:41:24Z</time>
      </trkpt>
      <trkpt lat="49.48021" lon="1.07702">
        <ele>110</ele>
        <time>2018-07-07T06:41:29Z</time>
      </trkpt>
      <trkpt lat="49.48016" lon="1.07722">
        <ele>110</ele>
        <time>2018-07-07T06:41:34Z</time>
      </trkpt>
      <trkpt lat="49.48013" lon="1.07746">
        <ele>107</ele>
        <time>2018-07-07T06:41:39Z</time>
      </trkpt>
      <trkpt lat="49.48009" lon="1.07765">
        <ele>109</ele>
        <time>2018-07-07T06:41:44Z</time>
      </trkpt>
      <trkpt lat="49.48004" lon="1.07784">
        <ele>111</ele>
        <time>2018-07-07T06:41:49Z</time>
      </trkpt>
      <trkpt lat="49.48005" lon="1.07803">
        <ele>111</ele>
        <time>2018-07-07T06:41:54Z</time>
      </trkpt>
      <trkpt lat="49.48" lon="1.07822">
        <ele>109</ele>
        <time>2018-07-07T06:41:59Z</time>
      </trkpt>
      <trkpt lat="49.47998" lon="1.07837">
        <ele>106</ele>
        <time>2018-07-07T06:42:04Z</time>
      </trkpt>
      <trkpt lat="49.47997" lon="1.07857">
        <ele>107</ele>
        <time>2018-07-07T06:42:09Z</time>
      </trkpt>
      <trkpt lat="49.47996" lon="1.07875">
        <ele>107</ele>
        <time>2018-07-07T06:42:14Z</time>
      </trkpt>
      <trkpt lat="49.47993" lon="1.07896">
        <ele>108</ele>
        <time>2018-07-07T06:42:19Z</time>
      </trkpt>
      <trkpt lat="49.47992" lon="1.07915">
        <ele>108</ele>
        <time>2018-07-07T06:42:24Z</time>
      </trkpt>
      <trkpt lat="49.4799" lon="1.07938">
        <ele>110</ele>
        <time>2018-07-07T06:42:29Z</time>
      </trkpt>
      <trkpt lat="49.47986" lon="1.07963">
        <ele>111</ele>
        <time>2018-07-07T06:42:34Z</time>
      </trkpt>
      <trkpt lat="49.4798" lon="1.07984">
        <ele>111</ele>
        <time>2018-07-07T06:42:39Z</time>
      </trkpt>
      <trkpt lat="49.47979" lon="1.08005">
        <ele>113</ele>
        <time>2018-07-07T06:42:44Z</time>
      </trkpt>
      <trkpt lat="49.47976" lon="1.08025">
        <ele>113</ele>
        <time>2018-07-07T06:42:49Z</time>
      </trkpt>
      <trkpt lat="49.47977" lon="1.08033">
        <ele>113</ele>
        <time>2018-07-07T06:42:54Z</time>
      </trkpt>
      <trkpt lat="49.47976" lon="1.08049">
        <ele>113</ele>
        <time>2018-07-07T06:43:00Z</time>
      </trkpt>
      <trkpt lat="49.47974" lon="1.0807">
        <ele>113</ele>
        <time>2018-07-07T06:43:05Z</time>
      </trkpt>
      <trkpt lat="49.47973" lon="1.08087">
        <ele>114</ele>
        <time>2018-07-07T06:43:10Z</time>
      </trkpt>
      <trkpt lat="49.47975" lon="1.08113">
        <ele>114</ele>
        <time>2018-07-07T06:43:16Z</time>
      </trkpt>
      <trkpt lat="49.47971" lon="1.08132">
        <ele>114</ele>
        <time>2018-07-07T06:43:21Z</time>
      </trkpt>
      <trkpt lat="49.47976" lon="1.08153">
        <ele>115</ele>
        <time>2018-07-07T06:43:26Z</time>
      </trkpt>
      <trkpt lat="49.47982" lon="1.08183">
        <ele>116</ele>
        <time>2018-07-07T06:43:31Z</time>
      </trkpt>
      <trkpt lat="49.47987" lon="1.08204">
        <ele>116</ele>
        <time>2018-07-07T06:43:36Z</time>
      </trkpt>
      <trkpt lat="49.47995" lon="1.08225">
        <ele>116</ele>
        <time>2018-07-07T06:43:41Z</time>
      </trkpt>
      <trkpt lat="49.48001" lon="1.08242">
        <ele>118</ele>
        <time>2018-07-07T06:43:46Z</time>
      </trkpt>
      <trkpt lat="49.4801" lon="1.08262">
        <ele>118</ele>
        <time>2018-07-07T06:43:51Z</time>
      </trkpt>
      <trkpt lat="49.48017" lon="1.08282">
        <ele>120</ele>
        <time>2018-07-07T06:43:56Z</time>
      </trkpt>
      <trkpt lat="49.4802" lon="1.083">
        <ele>121</ele>
        <time>2018-07-07T06:44:01Z</time>
      </trkpt>
      <trkpt lat="49.48024" lon="1.08313">
        <ele>120</ele>
        <time>2018-07-07T06:44:06Z</time>
      </trkpt>
      <trkpt lat="49.48032" lon="1.08331">
        <ele>121</ele>
        <time>2018-07-07T06:44:12Z</time>
      </trkpt>
      <trkpt lat="49.48035" lon="1.08343">
        <ele>121</ele>
        <time>2018-07-07T06:44:17Z</time>
      </trkpt>
      <trkpt lat="49.4804" lon="1.08362">
        <ele>122</ele>
        <time>2018-07-07T06:44:22Z</time>
      </trkpt>
      <trkpt lat="49.48045" lon="1.08375">
        <ele>122</ele>
        <time>2018-07-07T06:44:27Z</time>
      </trkpt>
      <trkpt lat="49.48051" lon="1.08387">
        <ele>122</ele>
        <time>2018-07-07T06:44:33Z</time>
      </trkpt>
      <trkpt lat="49.48058" lon="1.08396">
        <ele>123</ele>
        <time>2018-07-07T06:44:38Z</time>
      </trkpt>
      <trkpt lat="49.4807" lon="1.08407">
        <ele>122</ele>
        <time>2018-07-07T06:44:43Z</time>
      </trkpt>
      <trkpt lat="49.48081" lon="1.0842">
        <ele>123</ele>
        <time>2018-07-07T06:44:48Z</time>
      </trkpt>
      <trkpt lat="49.48098" lon="1.08436">
        <ele>126</ele>
        <time>2018-07-07T06:44:53Z</time>
      </trkpt>
      <trkpt lat="49.48111" lon="1.08445">
        <ele>128</ele>
        <time>2018-07-07T06:44:58Z</time>
      </trkpt>
      <trkpt lat="49.48124" lon="1.08457">
        <ele>128</ele>
        <time>2018-07-07T06:45:03Z</time>
      </trkpt>
      <trkpt lat="49.4814" lon="1.08471">
        <ele>129</ele>
        <time>2018-07-07T06:45:08Z</time>
      </trkpt>
      <trkpt lat="49.4815" lon="1.08484">
        <ele>129</ele>
        <time>2018-07-07T06:45:13Z</time>
      </trkpt>
      <trkpt lat="49.48161" lon="1.08508">
        <ele>130</ele>
        <time>2018-07-07T06:45:19Z</time>
      </trkpt>
      <trkpt lat="49.48166" lon="1.0853">
        <ele>130</ele>
        <time>2018-07-07T06:45:24Z</time>
      </trkpt>
      <trkpt lat="49.4817" lon="1.08543">
        <ele>134</ele>
        <time>2018-07-07T06:45:29Z</time>
      </trkpt>
      <trkpt lat="49.48171" lon="1.08558">
        <ele>133</ele>
        <time>2018-07-07T06:45:34Z</time>
      </trkpt>
      <trkpt lat="49.48175" lon="1.08572">
        <ele>132</ele>
        <time>2018-07-07T06:45:39Z</time>
      </trkpt>
      <trkpt lat="49.48178" lon="1.0859">
        <ele>132</ele>
        <time>2018-07-07T06:45:44Z</time>
      </trkpt>
      <trkpt lat="49.48179" lon="1.086">
        <ele>133</ele>
        <time>2018-07-07T06:45:49Z</time>
      </trkpt>
      <trkpt lat="49.48176" lon="1.08615">
        <ele>133</ele>
        <time>2018-07-07T06:45:54Z</time>
      </trkpt>
      <trkpt lat="49.48178" lon="1.08631">
        <ele>134</ele>
        <time>2018-07-07T06:45:59Z</time>
      </trkpt>
      <trkpt lat="49.48181" lon="1.0865">
        <ele>133</ele>
        <time>2018-07-07T06:46:04Z</time>
      </trkpt>
      <trkpt lat="49.48192" lon="1.0867">
        <ele>135</ele>
        <time>2018-07-07T06:46:09Z</time>
      </trkpt>
      <trkpt lat="49.48201" lon="1.08687">
        <ele>136</ele>
        <time>2018-07-07T06:46:14Z</time>
      </trkpt>
      <trkpt lat="49.48211" lon="1.08707">
        <ele>136</ele>
        <time>2018-07-07T06:46:20Z</time>
      </trkpt>
      <trkpt lat="49.48221" lon="1.08723">
        <ele>137</ele>
        <time>2018-07-07T06:46:25Z</time>
      </trkpt>
      <trkpt lat="49.48227" lon="1.08733">
        <ele>137</ele>
        <time>2018-07-07T06:46:30Z</time>
      </trkpt>
      <trkpt lat="49.48233" lon="1.08745">
        <ele>137</ele>
        <time>2018-07-07T06:46:37Z</time>
      </trkpt>
      <trkpt lat="49.48236" lon="1.08756">
        <ele>139</ele>
        <time>2018-07-07T06:46:42Z</time>
      </trkpt>
      <trkpt lat="49.48238" lon="1.08765">
        <ele>139</ele>
        <time>2018-07-07T06:46:48Z</time>
      </trkpt>
      <trkpt lat="49.48238" lon="1.08769">
        <ele>139</ele>
        <time>2018-07-07T06:46:53Z</time>
      </trkpt>
      <trkpt lat="49.48242" lon="1.08777">
        <ele>139</ele>
        <time>2018-07-07T06:46:59Z</time>
      </trkpt>
      <trkpt lat="49.48249" lon="1.08786">
        <ele>140</ele>
        <time>2018-07-07T06:47:04Z</time>
      </trkpt>
      <trkpt lat="49.48253" lon="1.08794">
        <ele>142</ele>
        <time>2018-07-07T06:47:09Z</time>
      </trkpt>
      <trkpt lat="49.48259" lon="1.08807">
        <ele>142</ele>
        <time>2018-07-07T06:47:16Z</time>
      </trkpt>
      <trkpt lat="49.48264" lon="1.08818">
        <ele>142</ele>
        <time>2018-07-07T06:47:21Z</time>
      </trkpt>
      <trkpt lat="49.48268" lon="1.08828">
        <ele>142</ele>
        <time>2018-07-07T06:47:26Z</time>
      </trkpt>
      <trkpt lat="49.48273" lon="1.08839">
        <ele>143</ele>
        <time>2018-07-07T06:47:31Z</time>
      </trkpt>
      <trkpt lat="49.48277" lon="1.0885">
        <ele>144</ele>
        <time>2018-07-07T06:47:36Z</time>
      </trkpt>
      <trkpt lat="49.48279" lon="1.0886">
        <ele>144</ele>
        <time>2018-07-07T06:47:41Z</time>
      </trkpt>
      <trkpt lat="49.48279" lon="1.08872">
        <ele>144</ele>
        <time>2018-07-07T06:47:47Z</time>
      </trkpt>
      <trkpt lat="49.48282" lon="1.08885">
        <ele>144</ele>
        <time>2018-07-07T06:47:52Z</time>
      </trkpt>
      <trkpt lat="49.48286" lon="1.08899">
        <ele>144</ele>
        <time>2018-07-07T06:47:57Z</time>
      </trkpt>
      <trkpt lat="49.48288" lon="1.0891">
        <ele>145</ele>
        <time>2018-07-07T06:48:02Z</time>
      </trkpt>
      <trkpt lat="49.48292" lon="1.08921">
        <ele>145</ele>
        <time>2018-07-07T06:48:07Z</time>
      </trkpt>
      <trkpt lat="49.48298" lon="1.08933">
        <ele>146</ele>
        <time>2018-07-07T06:48:12Z</time>
      </trkpt>
      <trkpt lat="49.48301" lon="1.08949">
        <ele>146</ele>
        <time>2018-07-07T06:48:17Z</time>
      </trkpt>
      <trkpt lat="49.48301" lon="1.08957">
        <ele>146</ele>
        <time>2018-07-07T06:48:22Z</time>
      </trkpt>
      <trkpt lat="49.48302" lon="1.08968">
        <ele>146</ele>
        <time>2018-07-07T06:48:27Z</time>
      </trkpt>
      <trkpt lat="49.48305" lon="1.08979">
        <ele>147</ele>
        <time>2018-07-07T06:48:32Z</time>
      </trkpt>
      <trkpt lat="49.48309" lon="1.08992">
        <ele>147</ele>
        <time>2018-07-07T06:48:37Z</time>
      </trkpt>
      <trkpt lat="49.48309" lon="1.09007">
        <ele>149</ele>
        <time>2018-07-07T06:48:42Z</time>
      </trkpt>
      <trkpt lat="49.48312" lon="1.09021">
        <ele>149</ele>
        <time>2018-07-07T06:48:47Z</time>
      </trkpt>
      <trkpt lat="49.48314" lon="1.09039">
        <ele>149</ele>
        <time>2018-07-07T06:48:52Z</time>
      </trkpt>
      <trkpt lat="49.48317" lon="1.09056">
        <ele>149</ele>
        <time>2018-07-07T06:48:57Z</time>
      </trkpt>
      <trkpt lat="49.48318" lon="1.09076">
        <ele>150</ele>
        <time>2018-07-07T06:49:02Z</time>
      </trkpt>
      <trkpt lat="49.48316" lon="1.09093">
        <ele>152</ele>
        <time>2018-07-07T06:49:08Z</time>
      </trkpt>
      <trkpt lat="49.48317" lon="1.09113">
        <ele>152</ele>
        <time>2018-07-07T06:49:13Z</time>
      </trkpt>
      <trkpt lat="49.48317" lon="1.09131">
        <ele>152</ele>
        <time>2018-07-07T06:49:18Z</time>
      </trkpt>
      <trkpt lat="49.48315" lon="1.09149">
        <ele>152</ele>
        <time>2018-07-07T06:49:23Z</time>
      </trkpt>
      <trkpt lat="49.48316" lon="1.0916">
        <ele>153</ele>
        <time>2018-07-07T06:49:28Z</time>
      </trkpt>
      <trkpt lat="49.48319" lon="1.09174">
        <ele>154</ele>
        <time>2018-07-07T06:49:33Z</time>
      </trkpt>
      <trkpt lat="49.4832" lon="1.0919">
        <ele>154</ele>
        <time>2018-07-07T06:49:38Z</time>
      </trkpt>
      <trkpt lat="49.4832" lon="1.09202">
        <ele>154</ele>
        <time>2018-07-07T06:49:43Z</time>
      </trkpt>
      <trkpt lat="49.48319" lon="1.09215">
        <ele>154</ele>
        <time>2018-07-07T06:49:48Z</time>
      </trkpt>
      <trkpt lat="49.48319" lon="1.09233">
        <ele>155</ele>
        <time>2018-07-07T06:49:53Z</time>
      </trkpt>
      <trkpt lat="49.48318" lon="1.09257">
        <ele>156</ele>
        <time>2018-07-07T06:49:58Z</time>
      </trkpt>
      <trkpt lat="49.48317" lon="1.09277">
        <ele>156</ele>
        <time>2018-07-07T06:50:03Z</time>
      </trkpt>
      <trkpt lat="49.4832" lon="1.09295">
        <ele>156</ele>
        <time>2018-07-07T06:50:08Z</time>
      </trkpt>
      <trkpt lat="49.48324" lon="1.09316">
        <ele>157</ele>
        <time>2018-07-07T06:50:13Z</time>
      </trkpt>
      <trkpt lat="49.48328" lon="1.09342">
        <ele>157</ele>
        <time>2018-07-07T06:50:19Z</time>
      </trkpt>
      <trkpt lat="49.48328" lon="1.09357">
        <ele>157</ele>
        <time>2018-07-07T06:50:24Z</time>
      </trkpt>
      <trkpt lat="49.48335" lon="1.09369">
        <ele>160</ele>
        <time>2018-07-07T06:50:29Z</time>
      </trkpt>
      <trkpt lat="49.48338" lon="1.09379">
        <ele>160</ele>
        <time>2018-07-07T06:50:35Z</time>
      </trkpt>
      <trkpt lat="49.48343" lon="1.09397">
        <ele>160</ele>
        <time>2018-07-07T06:50:40Z</time>
      </trkpt>
      <trkpt lat="49.48349" lon="1.09411">
        <ele>159</ele>
        <time>2018-07-07T06:50:46Z</time>
      </trkpt>
      <trkpt lat="49.48349" lon="1.09422">
        <ele>160</ele>
        <time>2018-07-07T06:50:51Z</time>
      </trkpt>
      <trkpt lat="49.48352" lon="1.0944">
        <ele>161</ele>
        <time>2018-07-07T06:50:56Z</time>
      </trkpt>
      <trkpt lat="49.48346" lon="1.0946">
        <ele>161</ele>
        <time>2018-07-07T06:51:01Z</time>
      </trkpt>
      <trkpt lat="49.48344" lon="1.09485">
        <ele>161</ele>
        <time>2018-07-07T06:51:06Z</time>
      </trkpt>
      <trkpt lat="49.4834" lon="1.09502">
        <ele>160</ele>
        <time>2018-07-07T06:51:11Z</time>
      </trkpt>
      <trkpt lat="49.48345" lon="1.09522">
        <ele>162</ele>
        <time>2018-07-07T06:51:16Z</time>
      </trkpt>
      <trkpt lat="49.48352" lon="1.09538">
        <ele>163</ele>
        <time>2018-07-07T06:51:21Z</time>
      </trkpt>
      <trkpt lat="49.48354" lon="1.09559">
        <ele>163</ele>
        <time>2018-07-07T06:51:26Z</time>
      </trkpt>
      <trkpt lat="49.48355" lon="1.0958">
        <ele>163</ele>
        <time>2018-07-07T06:51:31Z</time>
      </trkpt>
      <trkpt lat="49.48354" lon="1.09596">
        <ele>163</ele>
        <time>2018-07-07T06:51:36Z</time>
      </trkpt>
      <trkpt lat="49.48353" lon="1.0961">
        <ele>164</ele>
        <time>2018-07-07T06:51:41Z</time>
      </trkpt>
      <trkpt lat="49.48354" lon="1.09627">
        <ele>164</ele>
        <time>2018-07-07T06:51:46Z</time>
      </trkpt>
      <trkpt lat="49.48359" lon="1.09643">
        <ele>164</ele>
        <time>2018-07-07T06:51:51Z</time>
      </trkpt>
      <trkpt lat="49.48363" lon="1.09666">
        <ele>164</ele>
        <time>2018-07-07T06:51:56Z</time>
      </trkpt>
      <trkpt lat="49.48365" lon="1.09687">
        <ele>164</ele>
        <time>2018-07-07T06:52:01Z</time>
      </trkpt>
      <trkpt lat="49.4837" lon="1.09709">
        <ele>164</ele>
        <time>2018-07-07T06:52:06Z</time>
      </trkpt>
      <trkpt lat="49.48373" lon="1.0973">
        <ele>164</ele>
        <time>2018-07-07T06:52:11Z</time>
      </trkpt>
      <trkpt lat="49.48378" lon="1.09747">
        <ele>165</ele>
        <time>2018-07-07T06:52:16Z</time>
      </trkpt>
      <trkpt lat="49.48383" lon="1.09765">
        <ele>165</ele>
        <time>2018-07-07T06:52:21Z</time>
      </trkpt>
      <trkpt lat="49.48388" lon="1.09787">
        <ele>165</ele>
        <time>2018-07-07T06:52:26Z</time>
      </trkpt>
      <trkpt lat="49.48391" lon="1.09801">
        <ele>165</ele>
        <time>2018-07-07T06:52:31Z</time>
      </trkpt>
      <trkpt lat="49.48397" lon="1.09812">
        <ele>166</ele>
        <time>2018-07-07T06:52:36Z</time>
      </trkpt>
      <trkpt lat="49.48399" lon="1.09836">
        <ele>165</ele>
        <time>2018-07-07T06:52:41Z</time>
      </trkpt>
      <trkpt lat="49.48398" lon="1.09862">
        <ele>164</ele>
        <time>2018-07-07T06:52:46Z</time>
      </trkpt>
      <trkpt lat="49.48404" lon="1.09879">
        <ele>163</ele>
        <time>2018-07-07T06:52:51Z</time>
      </trkpt>
      <trkpt lat="49.48417" lon="1.09896">
        <ele>166</ele>
        <time>2018-07-07T06:52:56Z</time>
      </trkpt>
      <trkpt lat="49.48431" lon="1.09901">
        <ele>167</ele>
        <time>2018-07-07T06:53:01Z</time>
      </trkpt>
      <trkpt lat="49.48444" lon="1.0991">
        <ele>167</ele>
        <time>2018-07-07T06:53:06Z</time>
      </trkpt>
      <trkpt lat="49.48456" lon="1.09918">
        <ele>165</ele>
        <time>2018-07-07T06:53:11Z</time>
      </trkpt>
      <trkpt lat="49.48472" lon="1.09923">
        <ele>166</ele>
        <time>2018-07-07T06:53:16Z</time>
      </trkpt>
      <trkpt lat="49.48484" lon="1.09923">
        <ele>167</ele>
        <time>2018-07-07T06:53:21Z</time>
      </trkpt>
      <trkpt lat="49.48495" lon="1.09918">
        <ele>170</ele>
        <time>2018-07-07T06:53:26Z</time>
      </trkpt>
      <trkpt lat="49.48508" lon="1.09919">
        <ele>171</ele>
        <time>2018-07-07T06:53:31Z</time>
      </trkpt>
      <trkpt lat="49.48522" lon="1.09924">
        <ele>171</ele>
        <time>2018-07-07T06:53:36Z</time>
      </trkpt>
      <trkpt lat="49.48533" lon="1.09927">
        <ele>171</ele>
        <time>2018-07-07T06:53:41Z</time>
      </trkpt>
      <trkpt lat="49.48553" lon="1.09931">
        <ele>172</ele>
        <time>2018-07-07T06:53:46Z</time>
      </trkpt>
      <trkpt lat="49.48567" lon="1.09934">
        <ele>173</ele>
        <time>2018-07-07T06:53:51Z</time>
      </trkpt>
      <trkpt lat="49.4859" lon="1.09938">
        <ele>175</ele>
        <time>2018-07-07T06:53:56Z</time>
      </trkpt>
      <trkpt lat="49.48605" lon="1.09943">
        <ele>175</ele>
        <time>2018-07-07T06:54:01Z</time>
      </trkpt>
      <trkpt lat="49.48618" lon="1.09946">
        <ele>175</ele>
        <time>2018-07-07T06:54:06Z</time>
      </trkpt>
      <trkpt lat="49.48627" lon="1.0996">
        <ele>175</ele>
        <time>2018-07-07T06:54:11Z</time>
      </trkpt>
      <trkpt lat="49.48626" lon="1.09975">
        <ele>174</ele>
        <time>2018-07-07T06:54:16Z</time>
      </trkpt>
      <trkpt lat="49.48637" lon="1.09989">
        <ele>174</ele>
        <time>2018-07-07T06:54:21Z</time>
      </trkpt>
      <trkpt lat="49.48655" lon="1.09993">
        <ele>175</ele>
        <time>2018-07-07T06:54:26Z</time>
      </trkpt>
      <trkpt lat="49.48672" lon="1.0999">
        <ele>175</ele>
        <time>2018-07-07T06:54:31Z</time>
      </trkpt>
      <trkpt lat="49.48686" lon="1.09986">
        <ele>174</ele>
        <time>2018-07-07T06:54:36Z</time>
      </trkpt>
      <trkpt lat="49.48698" lon="1.09981">
        <ele>174</ele>
        <time>2018-07-07T06:54:41Z</time>
      </trkpt>
      <trkpt lat="49.48713" lon="1.09972">
        <ele>173</ele>
        <time>2018-07-07T06:54:46Z</time>
      </trkpt>
      <trkpt lat="49.48722" lon="1.09964">
        <ele>173</ele>
        <time>2018-07-07T06:54:51Z</time>
      </trkpt>
      <trkpt lat="49.48734" lon="1.0996">
        <ele>173</ele>
        <time>2018-07-07T06:54:56Z</time>
      </trkpt>
      <trkpt lat="49.48753" lon="1.09957">
        <ele>169</ele>
        <time>2018-07-07T06:55:01Z</time>
      </trkpt>
      <trkpt lat="49.4877" lon="1.09952">
        <ele>169</ele>
        <time>2018-07-07T06:55:06Z</time>
      </trkpt>
      <trkpt lat="49.48795" lon="1.09943">
        <ele>169</ele>
        <time>2018-07-07T06:55:11Z</time>
      </trkpt>
      <trkpt lat="49.48814" lon="1.09942">
        <ele>168</ele>
        <time>2018-07-07T06:55:16Z</time>
      </trkpt>
      <trkpt lat="49.48824" lon="1.09936">
        <ele>168</ele>
        <time>2018-07-07T06:55:21Z</time>
      </trkpt>
      <trkpt lat="49.48841" lon="1.09931">
        <ele>167</ele>
        <time>2018-07-07T06:55:26Z</time>
      </trkpt>
      <trkpt lat="49.48862" lon="1.09926">
        <ele>167</ele>
        <time>2018-07-07T06:55:31Z</time>
      </trkpt>
      <trkpt lat="49.48885" lon="1.09926">
        <ele>166</ele>
        <time>2018-07-07T06:55:36Z</time>
      </trkpt>
      <trkpt lat="49.48903" lon="1.09924">
        <ele>166</ele>
        <time>2018-07-07T06:55:41Z</time>
      </trkpt>
      <trkpt lat="49.48919" lon="1.09924">
        <ele>167</ele>
        <time>2018-07-07T06:55:46Z</time>
      </trkpt>
      <trkpt lat="49.48933" lon="1.09916">
        <ele>167</ele>
        <time>2018-07-07T06:55:51Z</time>
      </trkpt>
      <trkpt lat="49.4895" lon="1.09918">
        <ele>166</ele>
        <time>2018-07-07T06:55:56Z</time>
      </trkpt>
      <trkpt lat="49.48967" lon="1.09926">
        <ele>166</ele>
        <time>2018-07-07T06:56:01Z</time>
      </trkpt>
      <trkpt lat="49.48983" lon="1.09928">
        <ele>167</ele>
        <time>2018-07-07T06:56:06Z</time>
      </trkpt>
      <trkpt lat="49.48986" lon="1.0995">
        <ele>166</ele>
        <time>2018-07-07T06:56:11Z</time>
      </trkpt>
      <trkpt lat="49.48994" lon="1.09965">
        <ele>166</ele>
        <time>2018-07-07T06:56:16Z</time>
      </trkpt>
      <trkpt lat="49.48995" lon="1.09988">
        <ele>167</ele>
        <time>2018-07-07T06:56:21Z</time>
      </trkpt>
      <trkpt lat="49.48991" lon="1.10012">
        <ele>167</ele>
        <time>2018-07-07T06:56:26Z</time>
      </trkpt>
      <trkpt lat="49.48992" lon="1.10037">
        <ele>167</ele>
        <time>2018-07-07T06:56:31Z</time>
      </trkpt>
      <trkpt lat="49.48996" lon="1.10062">
        <ele>168</ele>
        <time>2018-07-07T06:56:36Z</time>
      </trkpt>
      <trkpt lat="49.48997" lon="1.10087">
        <ele>170</ele>
        <time>2018-07-07T06:56:41Z</time>
      </trkpt>
      <trkpt lat="49.49" lon="1.10113">
        <ele>169</ele>
        <time>2018-07-07T06:56:46Z</time>
      </trkpt>
      <trkpt lat="49.49005" lon="1.10143">
        <ele>172</ele>
        <time>2018-07-07T06:56:51Z</time>
      </trkpt>
      <trkpt lat="49.49015" lon="1.10179">
        <ele>173</ele>
        <time>2018-07-07T06:56:56Z</time>
      </trkpt>
      <trkpt lat="49.49018" lon="1.10206">
        <ele>173</ele>
        <time>2018-07-07T06:57:01Z</time>
      </trkpt>
      <trkpt lat="49.49012" lon="1.1024">
        <ele>174</ele>
        <time>2018-07-07T06:57:06Z</time>
      </trkpt>
      <trkpt lat="49.49011" lon="1.10266">
        <ele>173</ele>
        <time>2018-07-07T06:57:11Z</time>
      </trkpt>
      <trkpt lat="49.49017" lon="1.10293">
        <ele>173</ele>
        <time>2018-07-07T06:57:16Z</time>
      </trkpt>
      <trkpt lat="49.49018" lon="1.10325">
        <ele>172</ele>
        <time>2018-07-07T06:57:21Z</time>
      </trkpt>
      <trkpt lat="49.49016" lon="1.10351">
        <ele>170</ele>
        <time>2018-07-07T06:57:26Z</time>
      </trkpt>
      <trkpt lat="49.4902" lon="1.1037">
        <ele>170</ele>
        <time>2018-07-07T06:57:31Z</time>
      </trkpt>
      <trkpt lat="49.49018" lon="1.10373">
        <ele>170</ele>
        <time>2018-07-07T06:57:36Z</time>
      </trkpt>
      <trkpt lat="49.4902" lon="1.1038">
        <ele>169</ele>
        <time>2018-07-07T06:57:41Z</time>
      </trkpt>
      <trkpt lat="49.49021" lon="1.10384">
        <ele>169</ele>
        <time>2018-07-07T06:57:48Z</time>
      </trkpt>
      <trkpt lat="49.49023" lon="1.10387">
        <ele>169</ele>
        <time>2018-07-07T06:57:55Z</time>
      </trkpt>
      <trkpt lat="49.49025" lon="1.10389">
        <ele>169</ele>
        <time>2018-07-07T06:58:05Z</time>
      </trkpt>
      <trkpt lat="49.49024" lon="1.10389">
        <ele>169</ele>
        <time>2018-07-07T06:58:15Z</time>
      </trkpt>
      <trkpt lat="49.49019" lon="1.10386">
        <ele>169</ele>
        <time>2018-07-07T06:58:26Z</time>
      </trkpt>
      <trkpt lat="49.49022" lon="1.1039">
        <ele>169</ele>
        <time>2018-07-07T06:58:32Z</time>
      </trkpt>
      <trkpt lat="49.49027" lon="1.10404">
        <ele>169</ele>
        <time>2018-07-07T06:58:37Z</time>
      </trkpt>
      <trkpt lat="49.49031" lon="1.10423">
        <ele>168</ele>
        <time>2018-07-07T06:58:42Z</time>
      </trkpt>
      <trkpt lat="49.4903" lon="1.10449">
        <ele>168</ele>
        <time>2018-07-07T06:58:47Z</time>
      </trkpt>
      <trkpt lat="49.4903" lon="1.10472">
        <ele>168</ele>
        <time>2018-07-07T06:58:52Z</time>
      </trkpt>
      <trkpt lat="49.49026" lon="1.10486">
        <ele>169</ele>
        <time>2018-07-07T06:58:57Z</time>
      </trkpt>
      <trkpt lat="49.49025" lon="1.10501">
        <ele>170</ele>
        <time>2018-07-07T06:59:02Z</time>
      </trkpt>
      <trkpt lat="49.49025" lon="1.10522">
        <ele>170</ele>
        <time>2018-07-07T06:59:07Z</time>
      </trkpt>
      <trkpt lat="49.49017" lon="1.10535">
        <ele>170</ele>
        <time>2018-07-07T06:59:12Z</time>
      </trkpt>
      <trkpt lat="49.49006" lon="1.1055">
        <ele>170</ele>
        <time>2018-07-07T06:59:17Z</time>
      </trkpt>
      <trkpt lat="49.49" lon="1.10572">
        <ele>172</ele>
        <time>2018-07-07T06:59:22Z</time>
      </trkpt>
      <trkpt lat="49.48997" lon="1.10611">
        <ele>173</ele>
        <time>2018-07-07T06:59:27Z</time>
      </trkpt>
      <trkpt lat="49.48993" lon="1.10647">
        <ele>171</ele>
        <time>2018-07-07T06:59:32Z</time>
      </trkpt>
      <trkpt lat="49.48991" lon="1.10678">
        <ele>170</ele>
        <time>2018-07-07T06:59:37Z</time>
      </trkpt>
      <trkpt lat="49.48985" lon="1.10711">
        <ele>171</ele>
        <time>2018-07-07T06:59:42Z</time>
      </trkpt>
      <trkpt lat="49.48979" lon="1.10744">
        <ele>170</ele>
        <time>2018-07-07T06:59:47Z</time>
      </trkpt>
      <trkpt lat="49.4897" lon="1.10776">
        <ele>169</ele>
        <time>2018-07-07T06:59:52Z</time>
      </trkpt>
      <trkpt lat="49.48964" lon="1.10822">
        <ele>169</ele>
        <time>2018-07-07T06:59:57Z</time>
      </trkpt>
      <trkpt lat="49.48956" lon="1.10854">
        <ele>171</ele>
        <time>2018-07-07T07:00:02Z</time>
      </trkpt>
      <trkpt lat="49.48951" lon="1.1088">
        <ele>172</ele>
        <time>2018-07-07T07:00:07Z</time>
      </trkpt>
      <trkpt lat="49.48948" lon="1.10909">
        <ele>174</ele>
        <time>2018-07-07T07:00:12Z</time>
      </trkpt>
      <trkpt lat="49.48947" lon="1.10947">
        <ele>178</ele>
        <time>2018-07-07T07:00:17Z</time>
      </trkpt>
      <trkpt lat="49.48941" lon="1.1098">
        <ele>179</ele>
        <time>2018-07-07T07:00:22Z</time>
      </trkpt>
      <trkpt lat="49.48936" lon="1.11013">
        <ele>181</ele>
        <time>2018-07-07T07:00:27Z</time>
      </trkpt>
      <trkpt lat="49.48933" lon="1.11045">
        <ele>180</ele>
        <time>2018-07-07T07:00:32Z</time>
      </trkpt>
      <trkpt lat="49.48931" lon="1.11077">
        <ele>181</ele>
        <time>2018-07-07T07:00:37Z</time>
      </trkpt>
      <trkpt lat="49.48927" lon="1.11106">
        <ele>179</ele>
        <time>2018-07-07T07:00:42Z</time>
      </trkpt>
      <trkpt lat="49.48922" lon="1.11138">
        <ele>178</ele>
        <time>2018-07-07T07:00:47Z</time>
      </trkpt>
      <trkpt lat="49.4892" lon="1.11173">
        <ele>178</ele>
        <time>2018-07-07T07:00:52Z</time>
      </trkpt>
      <trkpt lat="49.48913" lon="1.11206">
        <ele>180</ele>
        <time>2018-07-07T07:00:57Z</time>
      </trkpt>
      <trkpt lat="49.48907" lon="1.11239">
        <ele>179</ele>
        <time>2018-07-07T07:01:02Z</time>
      </trkpt>
      <trkpt lat="49.489" lon="1.11273">
        <ele>177</ele>
        <time>2018-07-07T07:01:07Z</time>
      </trkpt>
      <trkpt lat="49.48893" lon="1.113">
        <ele>177</ele>
        <time>2018-07-07T07:01:12Z</time>
      </trkpt>
      <trkpt lat="49.4889" lon="1.11325">
        <ele>176</ele>
        <time>2018-07-07T07:01:17Z</time>
      </trkpt>
      <trkpt lat="49.48884" lon="1.11356">
        <ele>176</ele>
        <time>2018-07-07T07:01:22Z</time>
      </trkpt>
      <trkpt lat="49.48877" lon="1.11383">
        <ele>176</ele>
        <time>2018-07-07T07:01:27Z</time>
      </trkpt>
      <trkpt lat="49.4887" lon="1.11415">
        <ele>177</ele>
        <time>2018-07-07T07:01:32Z</time>
      </trkpt>
      <trkpt lat="49.48864" lon="1.11451">
        <ele>177</ele>
        <time>2018-07-07T07:01:37Z</time>
      </trkpt>
      <trkpt lat="49.48857" lon="1.1149">
        <ele>177</ele>
        <time>2018-07-07T07:01:42Z</time>
      </trkpt>
      <trkpt lat="49.48851" lon="1.11527">
        <ele>175</ele>
        <time>2018-07-07T07:01:47Z</time>
      </trkpt>
      <trkpt lat="49.48844" lon="1.11573">
        <ele>173</ele>
        <time>2018-07-07T07:01:52Z</time>
      </trkpt>
      <trkpt lat="49.48835" lon="1.11628">
        <ele>172</ele>
        <time>2018-07-07T07:01:57Z</time>
      </trkpt>
      <trkpt lat="49.48827" lon="1.11673">
        <ele>171</ele>
        <time>2018-07-07T07:02:02Z</time>
      </trkpt>
      <trkpt lat="49.48819" lon="1.1171">
        <ele>171</ele>
        <time>2018-07-07T07:02:07Z</time>
      </trkpt>
      <trkpt lat="49.48813" lon="1.11749">
        <ele>171</ele>
        <time>2018-07-07T07:02:12Z</time>
      </trkpt>
      <trkpt lat="49.48809" lon="1.11789">
        <ele>170</ele>
        <time>2018-07-07T07:02:17Z</time>
      </trkpt>
      <trkpt lat="49.48805" lon="1.11828">
        <ele>169</ele>
        <time>2018-07-07T07:02:22Z</time>
      </trkpt>
      <trkpt lat="49.48807" lon="1.11864">
        <ele>166</ele>
        <time>2018-07-07T07:02:27Z</time>
      </trkpt>
      <trkpt lat="49.48812" lon="1.11895">
        <ele>165</ele>
        <time>2018-07-07T07:02:32Z</time>
      </trkpt>
      <trkpt lat="49.48827" lon="1.11922">
        <ele>164</ele>
        <time>2018-07-07T07:02:37Z</time>
      </trkpt>
      <trkpt lat="49.48843" lon="1.11951">
        <ele>164</ele>
        <time>2018-07-07T07:02:42Z</time>
      </trkpt>
      <trkpt lat="49.48862" lon="1.11983">
        <ele>163</ele>
        <time>2018-07-07T07:02:47Z</time>
      </trkpt>
      <trkpt lat="49.48889" lon="1.12021">
        <ele>161</ele>
        <time>2018-07-07T07:02:52Z</time>
      </trkpt>
      <trkpt lat="49.48918" lon="1.12058">
        <ele>162</ele>
        <time>2018-07-07T07:02:57Z</time>
      </trkpt>
      <trkpt lat="49.48943" lon="1.1209">
        <ele>160</ele>
        <time>2018-07-07T07:03:02Z</time>
      </trkpt>
      <trkpt lat="49.48966" lon="1.12124">
        <ele>160</ele>
        <time>2018-07-07T07:03:07Z</time>
      </trkpt>
      <trkpt lat="49.4899" lon="1.12156">
        <ele>160</ele>
        <time>2018-07-07T07:03:12Z</time>
      </trkpt>
      <trkpt lat="49.49012" lon="1.12187">
        <ele>159</ele>
        <time>2018-07-07T07:03:17Z</time>
      </trkpt>
      <trkpt lat="49.49032" lon="1.12214">
        <ele>159</ele>
        <time>2018-07-07T07:03:22Z</time>
      </trkpt>
      <trkpt lat="49.49052" lon="1.12242">
        <ele>159</ele>
        <time>2018-07-07T07:03:27Z</time>
      </trkpt>
      <trkpt lat="49.4907" lon="1.12267">
        <ele>157</ele>
        <time>2018-07-07T07:03:32Z</time>
      </trkpt>
      <trkpt lat="49.4909" lon="1.12289">
        <ele>158</ele>
        <time>2018-07-07T07:03:37Z</time>
      </trkpt>
      <trkpt lat="49.49111" lon="1.12315">
        <ele>158</ele>
        <time>2018-07-07T07:03:42Z</time>
      </trkpt>
      <trkpt lat="49.49128" lon="1.12335">
        <ele>157</ele>
        <time>2018-07-07T07:03:47Z</time>
      </trkpt>
      <trkpt lat="49.49146" lon="1.1236">
        <ele>157</ele>
        <time>2018-07-07T07:03:52Z</time>
      </trkpt>
      <trkpt lat="49.49167" lon="1.12391">
        <ele>160</ele>
        <time>2018-07-07T07:03:57Z</time>
      </trkpt>
      <trkpt lat="49.49181" lon="1.12421">
        <ele>158</ele>
        <time>2018-07-07T07:04:02Z</time>
      </trkpt>
      <trkpt lat="49.49194" lon="1.12452">
        <ele>158</ele>
        <time>2018-07-07T07:04:07Z</time>
      </trkpt>
      <trkpt lat="49.49207" lon="1.12488">
        <ele>158</ele>
        <time>2018-07-07T07:04:12Z</time>
      </trkpt>
      <trkpt lat="49.4922" lon="1.12525">
        <ele>157</ele>
        <time>2018-07-07T07:04:17Z</time>
      </trkpt>
      <trkpt lat="49.4923" lon="1.12563">
        <ele>158</ele>
        <time>2018-07-07T07:04:22Z</time>
      </trkpt>
      <trkpt lat="49.49243" lon="1.12603">
        <ele>158</ele>
        <time>2018-07-07T07:04:27Z</time>
      </trkpt>
      <trkpt lat="49.49253" lon="1.12641">
        <ele>162</ele>
        <time>2018-07-07T07:04:32Z</time>
      </trkpt>
      <trkpt lat="49.49266" lon="1.12682">
        <ele>160</ele>
        <time>2018-07-07T07:04:37Z</time>
      </trkpt>
      <trkpt lat="49.49276" lon="1.1272">
        <ele>160</ele>
        <time>2018-07-07T07:04:42Z</time>
      </trkpt>
      <trkpt lat="49.49286" lon="1.12758">
        <ele>159</ele>
        <time>2018-07-07T07:04:47Z</time>
      </trkpt>
      <trkpt lat="49.49295" lon="1.12797">
        <ele>159</ele>
        <time>2018-07-07T07:04:52Z</time>
      </trkpt>
      <trkpt lat="49.49304" lon="1.12836">
        <ele>159</ele>
        <time>2018-07-07T07:04:57Z</time>
      </trkpt>
      <trkpt lat="49.49314" lon="1.12874">
        <ele>158</ele>
        <time>2018-07-07T07:05:02Z</time>
      </trkpt>
      <trkpt lat="49.4932" lon="1.12915">
        <ele>159</ele>
        <time>2018-07-07T07:05:07Z</time>
      </trkpt>
      <trkpt lat="49.49329" lon="1.12954">
        <ele>157</ele>
        <time>2018-07-07T07:05:12Z</time>
      </trkpt>
      <trkpt lat="49.4934" lon="1.12996">
        <ele>159</ele>
        <time>2018-07-07T07:05:17Z</time>
      </trkpt>
      <trkpt lat="49.49351" lon="1.13032">
        <ele>159</ele>
        <time>2018-07-07T07:05:22Z</time>
      </trkpt>
      <trkpt lat="49.4936" lon="1.13064">
        <ele>159</ele>
        <time>2018-07-07T07:05:27Z</time>
      </trkpt>
      <trkpt lat="49.4937" lon="1.13103">
        <ele>159</ele>
        <time>2018-07-07T07:05:32Z</time>
      </trkpt>
      <trkpt lat="49.49381" lon="1.13142">
        <ele>159</ele>
        <time>2018-07-07T07:05:37Z</time>
      </trkpt>
      <trkpt lat="49.49393" lon="1.13179">
        <ele>159</ele>
        <time>2018-07-07T07:05:42Z</time>
      </trkpt>
      <trkpt lat="49.49408" lon="1.13218">
        <ele>158</ele>
        <time>2018-07-07T07:05:47Z</time>
      </trkpt>
      <trkpt lat="49.49423" lon="1.1325">
        <ele>159</ele>
        <time>2018-07-07T07:05:52Z</time>
      </trkpt>
      <trkpt lat="49.49437" lon="1.13278">
        <ele>158</ele>
        <time>2018-07-07T07:05:57Z</time>
      </trkpt>
      <trkpt lat="49.4946" lon="1.13305">
        <ele>157</ele>
        <time>2018-07-07T07:06:02Z</time>
      </trkpt>
      <trkpt lat="49.49487" lon="1.13337">
        <ele>156</ele>
        <time>2018-07-07T07:06:07Z</time>
      </trkpt>
      <trkpt lat="49.4951" lon="1.13364">
        <ele>157</ele>
        <time>2018-07-07T07:06:12Z</time>
      </trkpt>
      <trkpt lat="49.4953" lon="1.13384">
        <ele>157</ele>
        <time>2018-07-07T07:06:17Z</time>
      </trkpt>
      <trkpt lat="49.49546" lon="1.13402">
        <ele>157</ele>
        <time>2018-07-07T07:06:22Z</time>
      </trkpt>
      <trkpt lat="49.49575" lon="1.13418">
        <ele>157</ele>
        <time>2018-07-07T07:06:27Z</time>
      </trkpt>
      <trkpt lat="49.49604" lon="1.13437">
        <ele>156</ele>
        <time>2018-07-07T07:06:32Z</time>
      </trkpt>
      <trkpt lat="49.49634" lon="1.13456">
        <ele>154</ele>
        <time>2018-07-07T07:06:37Z</time>
      </trkpt>
      <trkpt lat="49.49651" lon="1.1347">
        <ele>154</ele>
        <time>2018-07-07T07:06:42Z</time>
      </trkpt>
      <trkpt lat="49.49676" lon="1.13495">
        <ele>152</ele>
        <time>2018-07-07T07:06:47Z</time>
      </trkpt>
      <trkpt lat="49.49702" lon="1.13518">
        <ele>150</ele>
        <time>2018-07-07T07:06:52Z</time>
      </trkpt>
      <trkpt lat="49.49725" lon="1.13534">
        <ele>150</ele>
        <time>2018-07-07T07:06:57Z</time>
      </trkpt>
      <trkpt lat="49.49747" lon="1.13561">
        <ele>149</ele>
        <time>2018-07-07T07:07:02Z</time>
      </trkpt>
      <trkpt lat="49.49763" lon="1.13597">
        <ele>145</ele>
        <time>2018-07-07T07:07:07Z</time>
      </trkpt>
      <trkpt lat="49.49779" lon="1.13629">
        <ele>142</ele>
        <time>2018-07-07T07:07:12Z</time>
      </trkpt>
      <trkpt lat="49.49799" lon="1.13632">
        <ele>141</ele>
        <time>2018-07-07T07:07:17Z</time>
      </trkpt>
      <trkpt lat="49.49821" lon="1.13629">
        <ele>141</ele>
        <time>2018-07-07T07:07:22Z</time>
      </trkpt>
      <trkpt lat="49.49831" lon="1.13611">
        <ele>141</ele>
        <time>2018-07-07T07:07:27Z</time>
      </trkpt>
      <trkpt lat="49.49846" lon="1.13591">
        <ele>139</ele>
        <time>2018-07-07T07:07:32Z</time>
      </trkpt>
      <trkpt lat="49.49864" lon="1.1356">
        <ele>139</ele>
        <time>2018-07-07T07:07:37Z</time>
      </trkpt>
      <trkpt lat="49.49882" lon="1.13518">
        <ele>137</ele>
        <time>2018-07-07T07:07:42Z</time>
      </trkpt>
      <trkpt lat="49.49909" lon="1.13485">
        <ele>137</ele>
        <time>2018-07-07T07:07:47Z</time>
      </trkpt>
      <trkpt lat="49.49943" lon="1.13469">
        <ele>132</ele>
        <time>2018-07-07T07:07:52Z</time>
      </trkpt>
      <trkpt lat="49.4998" lon="1.13465">
        <ele>131</ele>
        <time>2018-07-07T07:07:57Z</time>
      </trkpt>
      <trkpt lat="49.50017" lon="1.13465">
        <ele>127</ele>
        <time>2018-07-07T07:08:02Z</time>
      </trkpt>
      <trkpt lat="49.50053" lon="1.13468">
        <ele>127</ele>
        <time>2018-07-07T07:08:07Z</time>
      </trkpt>
      <trkpt lat="49.5009" lon="1.13462">
        <ele>131</ele>
        <time>2018-07-07T07:08:12Z</time>
      </trkpt>
      <trkpt lat="49.50111" lon="1.13434">
        <ele>132</ele>
        <time>2018-07-07T07:08:17Z</time>
      </trkpt>
      <trkpt lat="49.50117" lon="1.13416">
        <ele>133</ele>
        <time>2018-07-07T07:08:22Z</time>
      </trkpt>
      <trkpt lat="49.50121" lon="1.134">
        <ele>133</ele>
        <time>2018-07-07T07:08:27Z</time>
      </trkpt>
      <trkpt lat="49.50124" lon="1.13383">
        <ele>133</ele>
        <time>2018-07-07T07:08:32Z</time>
      </trkpt>
      <trkpt lat="49.5013" lon="1.1337">
        <ele>134</ele>
        <time>2018-07-07T07:08:37Z</time>
      </trkpt>
      <trkpt lat="49.50135" lon="1.13354">
        <ele>134</ele>
        <time>2018-07-07T07:08:42Z</time>
      </trkpt>
      <trkpt lat="49.50141" lon="1.13335">
        <ele>135</ele>
        <time>2018-07-07T07:08:47Z</time>
      </trkpt>
      <trkpt lat="49.50147" lon="1.13318">
        <ele>135</ele>
        <time>2018-07-07T07:08:52Z</time>
      </trkpt>
      <trkpt lat="49.50154" lon="1.13301">
        <ele>135</ele>
        <time>2018-07-07T07:08:57Z</time>
      </trkpt>
      <trkpt lat="49.50161" lon="1.13282">
        <ele>134</ele>
        <time>2018-07-07T07:09:02Z</time>
      </trkpt>
      <trkpt lat="49.50169" lon="1.13264">
        <ele>140</ele>
        <time>2018-07-07T07:09:07Z</time>
      </trkpt>
      <trkpt lat="49.50173" lon="1.13248">
        <ele>137</ele>
        <time>2018-07-07T07:09:12Z</time>
      </trkpt>
      <trkpt lat="49.50178" lon="1.1323">
        <ele>139</ele>
        <time>2018-07-07T07:09:17Z</time>
      </trkpt>
      <trkpt lat="49.50187" lon="1.13216">
        <ele>140</ele>
        <time>2018-07-07T07:09:22Z</time>
      </trkpt>
      <trkpt lat="49.50192" lon="1.13199">
        <ele>140</ele>
        <time>2018-07-07T07:09:27Z</time>
      </trkpt>
      <trkpt lat="49.50199" lon="1.13183">
        <ele>140</ele>
        <time>2018-07-07T07:09:32Z</time>
      </trkpt>
      <trkpt lat="49.50204" lon="1.13167">
        <ele>140</ele>
        <time>2018-07-07T07:09:37Z</time>
      </trkpt>
      <trkpt lat="49.50209" lon="1.13152">
        <ele>139</ele>
        <time>2018-07-07T07:09:42Z</time>
      </trkpt>
      <trkpt lat="49.50214" lon="1.13134">
        <ele>140</ele>
        <time>2018-07-07T07:09:47Z</time>
      </trkpt>
      <trkpt lat="49.50219" lon="1.13116">
        <ele>141</ele>
        <time>2018-07-07T07:09:52Z</time>
      </trkpt>
      <trkpt lat="49.50222" lon="1.13096">
        <ele>142</ele>
        <time>2018-07-07T07:09:57Z</time>
      </trkpt>
      <trkpt lat="49.50225" lon="1.1308">
        <ele>144</ele>
        <time>2018-07-07T07:10:02Z</time>
      </trkpt>
      <trkpt lat="49.50223" lon="1.13069">
        <ele>143</ele>
        <time>2018-07-07T07:10:07Z</time>
      </trkpt>
      <trkpt lat="49.50223" lon="1.13059">
        <ele>143</ele>
        <time>2018-07-07T07:10:12Z</time>
      </trkpt>
      <trkpt lat="49.50222" lon="1.13048">
        <ele>143</ele>
        <time>2018-07-07T07:10:17Z</time>
      </trkpt>
      <trkpt lat="49.50219" lon="1.13033">
        <ele>143</ele>
        <time>2018-07-07T07:10:22Z</time>
      </trkpt>
      <trkpt lat="49.50216" lon="1.1302">
        <ele>143</ele>
        <time>2018-07-07T07:10:27Z</time>
      </trkpt>
      <trkpt lat="49.50215" lon="1.13005">
        <ele>143</ele>
        <time>2018-07-07T07:10:32Z</time>
      </trkpt>
      <trkpt lat="49.50211" lon="1.12994">
        <ele>145</ele>
        <time>2018-07-07T07:10:37Z</time>
      </trkpt>
      <trkpt lat="49.50209" lon="1.12979">
        <ele>144</ele>
        <time>2018-07-07T07:10:42Z</time>
      </trkpt>
      <trkpt lat="49.50206" lon="1.12967">
        <ele>144</ele>
        <time>2018-07-07T07:10:47Z</time>
      </trkpt>
      <trkpt lat="49.50208" lon="1.12956">
        <ele>145</ele>
        <time>2018-07-07T07:10:52Z</time>
      </trkpt>
      <trkpt lat="49.50209" lon="1.12942">
        <ele>145</ele>
        <time>2018-07-07T07:10:57Z</time>
      </trkpt>
      <trkpt lat="49.50213" lon="1.12927">
        <ele>146</ele>
        <time>2018-07-07T07:11:02Z</time>
      </trkpt>
      <trkpt lat="49.50219" lon="1.12912">
        <ele>148</ele>
        <time>2018-07-07T07:11:07Z</time>
      </trkpt>
      <trkpt lat="49.50228" lon="1.129">
        <ele>149</ele>
        <time>2018-07-07T07:11:12Z</time>
      </trkpt>
      <trkpt lat="49.50237" lon="1.12886">
        <ele>149</ele>
        <time>2018-07-07T07:11:17Z</time>
      </trkpt>
      <trkpt lat="49.50246" lon="1.12873">
        <ele>149</ele>
        <time>2018-07-07T07:11:22Z</time>
      </trkpt>
      <trkpt lat="49.50255" lon="1.12859">
        <ele>155</ele>
        <time>2018-07-07T07:11:27Z</time>
      </trkpt>
      <trkpt lat="49.50268" lon="1.12845">
        <ele>154</ele>
        <time>2018-07-07T07:11:32Z</time>
      </trkpt>
      <trkpt lat="49.5028" lon="1.1283">
        <ele>155</ele>
        <time>2018-07-07T07:11:37Z</time>
      </trkpt>
      <trkpt lat="49.50291" lon="1.12812">
        <ele>155</ele>
        <time>2018-07-07T07:11:42Z</time>
      </trkpt>
      <trkpt lat="49.50304" lon="1.12789">
        <ele>156</ele>
        <time>2018-07-07T07:11:47Z</time>
      </trkpt>
      <trkpt lat="49.50317" lon="1.12771">
        <ele>156</ele>
        <time>2018-07-07T07:11:52Z</time>
      </trkpt>
      <trkpt lat="49.50329" lon="1.12758">
        <ele>157</ele>
        <time>2018-07-07T07:11:57Z</time>
      </trkpt>
      <trkpt lat="49.5034" lon="1.12747">
        <ele>158</ele>
        <time>2018-07-07T07:12:02Z</time>
      </trkpt>
      <trkpt lat="49.50355" lon="1.12734">
        <ele>158</ele>
        <time>2018-07-07T07:12:07Z</time>
      </trkpt>
      <trkpt lat="49.50371" lon="1.12725">
        <ele>158</ele>
        <time>2018-07-07T07:12:12Z</time>
      </trkpt>
      <trkpt lat="49.50388" lon="1.12715">
        <ele>158</ele>
        <time>2018-07-07T07:12:17Z</time>
      </trkpt>
      <trkpt lat="49.50408" lon="1.12703">
        <ele>158</ele>
        <time>2018-07-07T07:12:22Z</time>
      </trkpt>
      <trkpt lat="49.50424" lon="1.12691">
        <ele>158</ele>
        <time>2018-07-07T07:12:27Z</time>
      </trkpt>
      <trkpt lat="49.50436" lon="1.12669">
        <ele>158</ele>
        <time>2018-07-07T07:12:32Z</time>
      </trkpt>
      <trkpt lat="49.50443" lon="1.12654">
        <ele>157</ele>
        <time>2018-07-07T07:12:37Z</time>
      </trkpt>
      <trkpt lat="49.50445" lon="1.12649">
        <ele>157</ele>
        <time>2018-07-07T07:12:42Z</time>
      </trkpt>
      <trkpt lat="49.50446" lon="1.12643">
        <ele>157</ele>
        <time>2018-07-07T07:12:48Z</time>
      </trkpt>
      <trkpt lat="49.50446" lon="1.12632">
        <ele>157</ele>
        <time>2018-07-07T07:12:54Z</time>
      </trkpt>
      <trkpt lat="49.50446" lon="1.12626">
        <ele>157</ele>
        <time>2018-07-07T07:13:01Z</time>
      </trkpt>
      <trkpt lat="49.5045" lon="1.12616">
        <ele>157</ele>
        <time>2018-07-07T07:13:10Z</time>
      </trkpt>
      <trkpt lat="49.50452" lon="1.12613">
        <ele>157</ele>
        <time>2018-07-07T07:13:17Z</time>
      </trkpt>
      <trkpt lat="49.50455" lon="1.12605">
        <ele>157</ele>
        <time>2018-07-07T07:13:22Z</time>
      </trkpt>
      <trkpt lat="49.50457" lon="1.12603">
        <ele>157</ele>
        <time>2018-07-07T07:13:30Z</time>
      </trkpt>
      <trkpt lat="49.50458" lon="1.12597">
        <ele>157</ele>
        <time>2018-07-07T07:13:35Z</time>
      </trkpt>
      <trkpt lat="49.50457" lon="1.12594">
        <ele>157</ele>
        <time>2018-07-07T07:13:41Z</time>
      </trkpt>
      <trkpt lat="49.5046" lon="1.12581">
        <ele>156</ele>
        <time>2018-07-07T07:13:46Z</time>
      </trkpt>
      <trkpt lat="49.50466" lon="1.12563">
        <ele>156</ele>
        <time>2018-07-07T07:13:51Z</time>
      </trkpt>
      <trkpt lat="49.50473" lon="1.12543">
        <ele>156</ele>
        <time>2018-07-07T07:13:56Z</time>
      </trkpt>
      <trkpt lat="49.50478" lon="1.12527">
        <ele>156</ele>
        <time>2018-07-07T07:14:01Z</time>
      </trkpt>
      <trkpt lat="49.50478" lon="1.12523">
        <ele>156</ele>
        <time>2018-07-07T07:14:07Z</time>
      </trkpt>
      <trkpt lat="49.50477" lon="1.12516">
        <ele>155</ele>
        <time>2018-07-07T07:14:12Z</time>
      </trkpt>
      <trkpt lat="49.50476" lon="1.12514">
        <ele>155</ele>
        <time>2018-07-07T07:14:17Z</time>
      </trkpt>
      <trkpt lat="49.50476" lon="1.1251">
        <ele>155</ele>
        <time>2018-07-07T07:14:23Z</time>
      </trkpt>
      <trkpt lat="49.5048" lon="1.12504">
        <ele>155</ele>
        <time>2018-07-07T07:14:28Z</time>
      </trkpt>
      <trkpt lat="49.50485" lon="1.12484">
        <ele>155</ele>
        <time>2018-07-07T07:14:33Z</time>
      </trkpt>
      <trkpt lat="49.5049" lon="1.12462">
        <ele>155</ele>
        <time>2018-07-07T07:14:38Z</time>
      </trkpt>
      <trkpt lat="49.50497" lon="1.12437">
        <ele>155</ele>
        <time>2018-07-07T07:14:43Z</time>
      </trkpt>
      <trkpt lat="49.50504" lon="1.12411">
        <ele>155</ele>
        <time>2018-07-07T07:14:48Z</time>
      </trkpt>
      <trkpt lat="49.50511" lon="1.12384">
        <ele>155</ele>
        <time>2018-07-07T07:14:53Z</time>
      </trkpt>
      <trkpt lat="49.50517" lon="1.12368">
        <ele>155</ele>
        <time>2018-07-07T07:14:58Z</time>
      </trkpt>
      <trkpt lat="49.50523" lon="1.12344">
        <ele>155</ele>
        <time>2018-07-07T07:15:03Z</time>
      </trkpt>
      <trkpt lat="49.5053" lon="1.12316">
        <ele>154</ele>
        <time>2018-07-07T07:15:08Z</time>
      </trkpt>
      <trkpt lat="49.50536" lon="1.12287">
        <ele>154</ele>
        <time>2018-07-07T07:15:13Z</time>
      </trkpt>
      <trkpt lat="49.50543" lon="1.12262">
        <ele>154</ele>
        <time>2018-07-07T07:15:18Z</time>
      </trkpt>
      <trkpt lat="49.5055" lon="1.1223">
        <ele>154</ele>
        <time>2018-07-07T07:15:23Z</time>
      </trkpt>
      <trkpt lat="49.50557" lon="1.12195">
        <ele>154</ele>
        <time>2018-07-07T07:15:28Z</time>
      </trkpt>
      <trkpt lat="49.50564" lon="1.12163">
        <ele>155</ele>
        <time>2018-07-07T07:15:33Z</time>
      </trkpt>
      <trkpt lat="49.50571" lon="1.12135">
        <ele>156</ele>
        <time>2018-07-07T07:15:38Z</time>
      </trkpt>
      <trkpt lat="49.50576" lon="1.12106">
        <ele>158</ele>
        <time>2018-07-07T07:15:43Z</time>
      </trkpt>
      <trkpt lat="49.5058" lon="1.12083">
        <ele>162</ele>
        <time>2018-07-07T07:15:48Z</time>
      </trkpt>
      <trkpt lat="49.50585" lon="1.12068">
        <ele>164</ele>
        <time>2018-07-07T07:15:54Z</time>
      </trkpt>
      <trkpt lat="49.50592" lon="1.12065">
        <ele>165</ele>
        <time>2018-07-07T07:15:59Z</time>
      </trkpt>
      <trkpt lat="49.50603" lon="1.12063">
        <ele>166</ele>
        <time>2018-07-07T07:16:04Z</time>
      </trkpt>
      <trkpt lat="49.50613" lon="1.12064">
        <ele>166</ele>
        <time>2018-07-07T07:16:09Z</time>
      </trkpt>
      <trkpt lat="49.50626" lon="1.12064">
        <ele>167</ele>
        <time>2018-07-07T07:16:14Z</time>
      </trkpt>
      <trkpt lat="49.50639" lon="1.12067">
        <ele>167</ele>
        <time>2018-07-07T07:16:19Z</time>
      </trkpt>
      <trkpt lat="49.50653" lon="1.12072">
        <ele>168</ele>
        <time>2018-07-07T07:16:24Z</time>
      </trkpt>
      <trkpt lat="49.50667" lon="1.1208">
        <ele>169</ele>
        <time>2018-07-07T07:16:29Z</time>
      </trkpt>
      <trkpt lat="49.50682" lon="1.12082">
        <ele>170</ele>
        <time>2018-07-07T07:16:34Z</time>
      </trkpt>
      <trkpt lat="49.50696" lon="1.12087">
        <ele>167</ele>
        <time>2018-07-07T07:16:39Z</time>
      </trkpt>
      <trkpt lat="49.50711" lon="1.12094">
        <ele>167</ele>
        <time>2018-07-07T07:16:44Z</time>
      </trkpt>
      <trkpt lat="49.50727" lon="1.12095">
        <ele>167</ele>
        <time>2018-07-07T07:16:49Z</time>
      </trkpt>
      <trkpt lat="49.50743" lon="1.12089">
        <ele>169</ele>
        <time>2018-07-07T07:16:54Z</time>
      </trkpt>
      <trkpt lat="49.5076" lon="1.12088">
        <ele>170</ele>
        <time>2018-07-07T07:16:59Z</time>
      </trkpt>
      <trkpt lat="49.5078" lon="1.12089">
        <ele>169</ele>
        <time>2018-07-07T07:17:04Z</time>
      </trkpt>
      <trkpt lat="49.50798" lon="1.12101">
        <ele>168</ele>
        <time>2018-07-07T07:17:09Z</time>
      </trkpt>
      <trkpt lat="49.50817" lon="1.12109">
        <ele>168</ele>
        <time>2018-07-07T07:17:14Z</time>
      </trkpt>
      <trkpt lat="49.50836" lon="1.12116">
        <ele>167</ele>
        <time>2018-07-07T07:17:19Z</time>
      </trkpt>
      <trkpt lat="49.5085" lon="1.1212">
        <ele>167</ele>
        <time>2018-07-07T07:17:24Z</time>
      </trkpt>
      <trkpt lat="49.50863" lon="1.12133">
        <ele>166</ele>
        <time>2018-07-07T07:17:29Z</time>
      </trkpt>
      <trkpt lat="49.50877" lon="1.12154">
        <ele>165</ele>
        <time>2018-07-07T07:17:34Z</time>
      </trkpt>
      <trkpt lat="49.50886" lon="1.1218">
        <ele>160</ele>
        <time>2018-07-07T07:17:39Z</time>
      </trkpt>
      <trkpt lat="49.509" lon="1.12211">
        <ele>158</ele>
        <time>2018-07-07T07:17:44Z</time>
      </trkpt>
      <trkpt lat="49.50927" lon="1.12228">
        <ele>157</ele>
        <time>2018-07-07T07:17:49Z</time>
      </trkpt>
      <trkpt lat="49.50944" lon="1.12225">
        <ele>158</ele>
        <time>2018-07-07T07:17:54Z</time>
      </trkpt>
      <trkpt lat="49.50956" lon="1.12215">
        <ele>158</ele>
        <time>2018-07-07T07:17:59Z</time>
      </trkpt>
      <trkpt lat="49.50969" lon="1.12205">
        <ele>159</ele>
        <time>2018-07-07T07:18:04Z</time>
      </trkpt>
      <trkpt lat="49.50986" lon="1.12196">
        <ele>159</ele>
        <time>2018-07-07T07:18:09Z</time>
      </trkpt>
      <trkpt lat="49.51001" lon="1.12185">
        <ele>160</ele>
        <time>2018-07-07T07:18:14Z</time>
      </trkpt>
      <trkpt lat="49.51016" lon="1.12173">
        <ele>160</ele>
        <time>2018-07-07T07:18:19Z</time>
      </trkpt>
      <trkpt lat="49.51031" lon="1.12161">
        <ele>161</ele>
        <time>2018-07-07T07:18:24Z</time>
      </trkpt>
      <trkpt lat="49.51047" lon="1.12151">
        <ele>162</ele>
        <time>2018-07-07T07:18:29Z</time>
      </trkpt>
      <trkpt lat="49.51061" lon="1.12144">
        <ele>162</ele>
        <time>2018-07-07T07:18:34Z</time>
      </trkpt>
      <trkpt lat="49.51074" lon="1.12137">
        <ele>162</ele>
        <time>2018-07-07T07:18:39Z</time>
      </trkpt>
      <trkpt lat="49.51085" lon="1.12132">
        <ele>163</ele>
        <time>2018-07-07T07:18:44Z</time>
      </trkpt>
      <trkpt lat="49.51099" lon="1.12122">
        <ele>162</ele>
        <time>2018-07-07T07:18:49Z</time>
      </trkpt>
      <trkpt lat="49.51112" lon="1.12107">
        <ele>162</ele>
        <time>2018-07-07T07:18:54Z</time>
      </trkpt>
      <trkpt lat="49.51126" lon="1.1209">
        <ele>162</ele>
        <time>2018-07-07T07:18:59Z</time>
      </trkpt>
      <trkpt lat="49.51141" lon="1.12074">
        <ele>160</ele>
        <time>2018-07-07T07:19:04Z</time>
      </trkpt>
      <trkpt lat="49.51157" lon="1.12058">
        <ele>160</ele>
        <time>2018-07-07T07:19:09Z</time>
      </trkpt>
      <trkpt lat="49.51175" lon="1.12043">
        <ele>160</ele>
        <time>2018-07-07T07:19:14Z</time>
      </trkpt>
      <trkpt lat="49.51198" lon="1.12031">
        <ele>159</ele>
        <time>2018-07-07T07:19:19Z</time>
      </trkpt>
      <trkpt lat="49.51214" lon="1.1204">
        <ele>159</ele>
        <time>2018-07-07T07:19:24Z</time>
      </trkpt>
      <trkpt lat="49.51229" lon="1.12049">
        <ele>159</ele>
        <time>2018-07-07T07:19:29Z</time>
      </trkpt>
      <trkpt lat="49.51243" lon="1.12051">
        <ele>159</ele>
        <time>2018-07-07T07:19:34Z</time>
      </trkpt>
      <trkpt lat="49.51261" lon="1.12049">
        <ele>157</ele>
        <time>2018-07-07T07:19:39Z</time>
      </trkpt>
      <trkpt lat="49.51278" lon="1.12054">
        <ele>157</ele>
        <time>2018-07-07T07:19:44Z</time>
      </trkpt>
      <trkpt lat="49.51289" lon="1.12069">
        <ele>157</ele>
        <time>2018-07-07T07:19:49Z</time>
      </trkpt>
      <trkpt lat="49.51298" lon="1.12085">
        <ele>159</ele>
        <time>2018-07-07T07:19:54Z</time>
      </trkpt>
      <trkpt lat="49.51312" lon="1.12085">
        <ele>159</ele>
        <time>2018-07-07T07:19:59Z</time>
      </trkpt>
      <trkpt lat="49.51328" lon="1.12079">
        <ele>158</ele>
        <time>2018-07-07T07:20:04Z</time>
      </trkpt>
      <trkpt lat="49.51346" lon="1.12072">
        <ele>158</ele>
        <time>2018-07-07T07:20:09Z</time>
      </trkpt>
      <trkpt lat="49.51365" lon="1.1207">
        <ele>157</ele>
        <time>2018-07-07T07:20:14Z</time>
      </trkpt>
      <trkpt lat="49.51384" lon="1.12066">
        <ele>157</ele>
        <time>2018-07-07T07:20:19Z</time>
      </trkpt>
      <trkpt lat="49.51402" lon="1.12062">
        <ele>157</ele>
        <time>2018-07-07T07:20:24Z</time>
      </trkpt>
      <trkpt lat="49.51422" lon="1.12057">
        <ele>159</ele>
        <time>2018-07-07T07:20:29Z</time>
      </trkpt>
      <trkpt lat="49.5144" lon="1.12054">
        <ele>159</ele>
        <time>2018-07-07T07:20:34Z</time>
      </trkpt>
      <trkpt lat="49.5146" lon="1.12056">
        <ele>159</ele>
        <time>2018-07-07T07:20:39Z</time>
      </trkpt>
      <trkpt lat="49.51474" lon="1.1207">
        <ele>160</ele>
        <time>2018-07-07T07:20:44Z</time>
      </trkpt>
      <trkpt lat="49.51489" lon="1.1207">
        <ele>161</ele>
        <time>2018-07-07T07:20:49Z</time>
      </trkpt>
      <trkpt lat="49.51506" lon="1.12077">
        <ele>161</ele>
        <time>2018-07-07T07:20:54Z</time>
      </trkpt>
      <trkpt lat="49.5152" lon="1.12089">
        <ele>161</ele>
        <time>2018-07-07T07:20:59Z</time>
      </trkpt>
      <trkpt lat="49.51537" lon="1.12104">
        <ele>159</ele>
        <time>2018-07-07T07:21:04Z</time>
      </trkpt>
      <trkpt lat="49.51553" lon="1.12119">
        <ele>158</ele>
        <time>2018-07-07T07:21:09Z</time>
      </trkpt>
      <trkpt lat="49.51567" lon="1.12134">
        <ele>158</ele>
        <time>2018-07-07T07:21:14Z</time>
      </trkpt>
      <trkpt lat="49.51574" lon="1.12148">
        <ele>158</ele>
        <time>2018-07-07T07:21:19Z</time>
      </trkpt>
      <trkpt lat="49.51582" lon="1.12169">
        <ele>157</ele>
        <time>2018-07-07T07:21:24Z</time>
      </trkpt>
      <trkpt lat="49.51594" lon="1.12188">
        <ele>154</ele>
        <time>2018-07-07T07:21:29Z</time>
      </trkpt>
      <trkpt lat="49.51609" lon="1.12196">
        <ele>153</ele>
        <time>2018-07-07T07:21:34Z</time>
      </trkpt>
      <trkpt lat="49.51622" lon="1.12194">
        <ele>152</ele>
        <time>2018-07-07T07:21:39Z</time>
      </trkpt>
      <trkpt lat="49.51635" lon="1.12174">
        <ele>151</ele>
        <time>2018-07-07T07:21:44Z</time>
      </trkpt>
      <trkpt lat="49.51652" lon="1.12151">
        <ele>147</ele>
        <time>2018-07-07T07:21:49Z</time>
      </trkpt>
      <trkpt lat="49.51669" lon="1.12131">
        <ele>144</ele>
        <time>2018-07-07T07:21:54Z</time>
      </trkpt>
      <trkpt lat="49.51676" lon="1.12116">
        <ele>144</ele>
        <time>2018-07-07T07:21:59Z</time>
      </trkpt>
      <trkpt lat="49.51678" lon="1.12102">
        <ele>143</ele>
        <time>2018-07-07T07:22:04Z</time>
      </trkpt>
      <trkpt lat="49.51683" lon="1.12088">
        <ele>142</ele>
        <time>2018-07-07T07:22:09Z</time>
      </trkpt>
      <trkpt lat="49.51689" lon="1.12072">
        <ele>141</ele>
        <time>2018-07-07T07:22:14Z</time>
      </trkpt>
      <trkpt lat="49.51695" lon="1.12063">
        <ele>142</ele>
        <time>2018-07-07T07:22:19Z</time>
      </trkpt>
      <trkpt lat="49.51696" lon="1.1205">
        <ele>142</ele>
        <time>2018-07-07T07:22:24Z</time>
      </trkpt>
      <trkpt lat="49.51702" lon="1.12043">
        <ele>143</ele>
        <time>2018-07-07T07:22:29Z</time>
      </trkpt>
      <trkpt lat="49.51707" lon="1.12037">
        <ele>143</ele>
        <time>2018-07-07T07:22:34Z</time>
      </trkpt>
      <trkpt lat="49.51711" lon="1.12031">
        <ele>143</ele>
        <time>2018-07-07T07:22:40Z</time>
      </trkpt>
      <trkpt lat="49.51714" lon="1.12025">
        <ele>143</ele>
        <time>2018-07-07T07:22:46Z</time>
      </trkpt>
      <trkpt lat="49.51715" lon="1.12016">
        <ele>143</ele>
        <time>2018-07-07T07:22:51Z</time>
      </trkpt>
      <trkpt lat="49.51719" lon="1.12008">
        <ele>144</ele>
        <time>2018-07-07T07:22:56Z</time>
      </trkpt>
      <trkpt lat="49.51719" lon="1.11999">
        <ele>148</ele>
        <time>2018-07-07T07:23:01Z</time>
      </trkpt>
      <trkpt lat="49.51722" lon="1.11992">
        <ele>148</ele>
        <time>2018-07-07T07:23:06Z</time>
      </trkpt>
      <trkpt lat="49.51726" lon="1.11985">
        <ele>148</ele>
        <time>2018-07-07T07:23:12Z</time>
      </trkpt>
      <trkpt lat="49.51729" lon="1.11978">
        <ele>149</ele>
        <time>2018-07-07T07:23:18Z</time>
      </trkpt>
      <trkpt lat="49.51732" lon="1.11971">
        <ele>149</ele>
        <time>2018-07-07T07:23:24Z</time>
      </trkpt>
      <trkpt lat="49.51734" lon="1.11967">
        <ele>149</ele>
        <time>2018-07-07T07:23:30Z</time>
      </trkpt>
      <trkpt lat="49.51736" lon="1.11962">
        <ele>150</ele>
        <time>2018-07-07T07:23:36Z</time>
      </trkpt>
      <trkpt lat="49.51739" lon="1.11958">
        <ele>150</ele>
        <time>2018-07-07T07:23:44Z</time>
      </trkpt>
      <trkpt lat="49.51741" lon="1.11953">
        <ele>151</ele>
        <time>2018-07-07T07:23:50Z</time>
      </trkpt>
      <trkpt lat="49.51742" lon="1.11945">
        <ele>152</ele>
        <time>2018-07-07T07:23:55Z</time>
      </trkpt>
      <trkpt lat="49.51745" lon="1.11942">
        <ele>152</ele>
        <time>2018-07-07T07:24:01Z</time>
      </trkpt>
      <trkpt lat="49.51747" lon="1.11945">
        <ele>152</ele>
        <time>2018-07-07T07:24:09Z</time>
      </trkpt>
      <trkpt lat="49.51747" lon="1.11944">
        <ele>152</ele>
        <time>2018-07-07T07:24:18Z</time>
      </trkpt>
      <trkpt lat="49.51749" lon="1.11938">
        <ele>153</ele>
        <time>2018-07-07T07:24:24Z</time>
      </trkpt>
      <trkpt lat="49.51751" lon="1.11934">
        <ele>155</ele>
        <time>2018-07-07T07:24:29Z</time>
      </trkpt>
      <trkpt lat="49.51753" lon="1.1193">
        <ele>156</ele>
        <time>2018-07-07T07:24:34Z</time>
      </trkpt>
      <trkpt lat="49.51755" lon="1.11924">
        <ele>156</ele>
        <time>2018-07-07T07:24:40Z</time>
      </trkpt>
      <trkpt lat="49.51756" lon="1.11914">
        <ele>158</ele>
        <time>2018-07-07T07:24:45Z</time>
      </trkpt>
      <trkpt lat="49.51759" lon="1.11908">
        <ele>159</ele>
        <time>2018-07-07T07:24:51Z</time>
      </trkpt>
      <trkpt lat="49.51761" lon="1.11901">
        <ele>160</ele>
        <time>2018-07-07T07:24:56Z</time>
      </trkpt>
      <trkpt lat="49.51766" lon="1.11891">
        <ele>161</ele>
        <time>2018-07-07T07:25:01Z</time>
      </trkpt>
      <trkpt lat="49.5177" lon="1.11881">
        <ele>161</ele>
        <time>2018-07-07T07:25:06Z</time>
      </trkpt>
      <trkpt lat="49.51775" lon="1.11868">
        <ele>162</ele>
        <time>2018-07-07T07:25:11Z</time>
      </trkpt>
      <trkpt lat="49.51779" lon="1.11854">
        <ele>162</ele>
        <time>2018-07-07T07:25:16Z</time>
      </trkpt>
      <trkpt lat="49.51785" lon="1.11841">
        <ele>163</ele>
        <time>2018-07-07T07:25:21Z</time>
      </trkpt>
      <trkpt lat="49.51791" lon="1.11831">
        <ele>166</ele>
        <time>2018-07-07T07:25:26Z</time>
      </trkpt>
      <trkpt lat="49.51796" lon="1.11817">
        <ele>166</ele>
        <time>2018-07-07T07:25:31Z</time>
      </trkpt>
      <trkpt lat="49.51804" lon="1.11801">
        <ele>166</ele>
        <time>2018-07-07T07:25:36Z</time>
      </trkpt>
      <trkpt lat="49.5181" lon="1.11781">
        <ele>167</ele>
        <time>2018-07-07T07:25:41Z</time>
      </trkpt>
      <trkpt lat="49.51819" lon="1.11765">
        <ele>167</ele>
        <time>2018-07-07T07:25:46Z</time>
      </trkpt>
      <trkpt lat="49.51825" lon="1.11742">
        <ele>168</ele>
        <time>2018-07-07T07:25:51Z</time>
      </trkpt>
      <trkpt lat="49.5183" lon="1.11715">
        <ele>170</ele>
        <time>2018-07-07T07:25:56Z</time>
      </trkpt>
      <trkpt lat="49.51828" lon="1.11689">
        <ele>170</ele>
        <time>2018-07-07T07:26:01Z</time>
      </trkpt>
      <trkpt lat="49.51825" lon="1.11662">
        <ele>171</ele>
        <time>2018-07-07T07:26:06Z</time>
      </trkpt>
      <trkpt lat="49.51824" lon="1.11637">
        <ele>172</ele>
        <time>2018-07-07T07:26:11Z</time>
      </trkpt>
      <trkpt lat="49.51823" lon="1.11609">
        <ele>172</ele>
        <time>2018-07-07T07:26:16Z</time>
      </trkpt>
      <trkpt lat="49.51821" lon="1.11589">
        <ele>171</ele>
        <time>2018-07-07T07:26:21Z</time>
      </trkpt>
      <trkpt lat="49.51813" lon="1.11558">
        <ele>172</ele>
        <time>2018-07-07T07:26:26Z</time>
      </trkpt>
      <trkpt lat="49.51808" lon="1.11526">
        <ele>172</ele>
        <time>2018-07-07T07:26:31Z</time>
      </trkpt>
      <trkpt lat="49.51801" lon="1.11491">
        <ele>171</ele>
        <time>2018-07-07T07:26:36Z</time>
      </trkpt>
      <trkpt lat="49.51787" lon="1.11435">
        <ele>171</ele>
        <time>2018-07-07T07:26:41Z</time>
      </trkpt>
      <trkpt lat="49.51782" lon="1.11396">
        <ele>170</ele>
        <time>2018-07-07T07:26:46Z</time>
      </trkpt>
      <trkpt lat="49.51777" lon="1.11353">
        <ele>170</ele>
        <time>2018-07-07T07:26:51Z</time>
      </trkpt>
      <trkpt lat="49.5177" lon="1.1131">
        <ele>169</ele>
        <time>2018-07-07T07:26:56Z</time>
      </trkpt>
      <trkpt lat="49.51766" lon="1.11271">
        <ele>168</ele>
        <time>2018-07-07T07:27:01Z</time>
      </trkpt>
      <trkpt lat="49.51761" lon="1.1122">
        <ele>168</ele>
        <time>2018-07-07T07:27:06Z</time>
      </trkpt>
      <trkpt lat="49.51757" lon="1.11185">
        <ele>168</ele>
        <time>2018-07-07T07:27:11Z</time>
      </trkpt>
      <trkpt lat="49.5175" lon="1.11149">
        <ele>168</ele>
        <time>2018-07-07T07:27:16Z</time>
      </trkpt>
      <trkpt lat="49.51743" lon="1.11113">
        <ele>170</ele>
        <time>2018-07-07T07:27:21Z</time>
      </trkpt>
      <trkpt lat="49.51736" lon="1.11076">
        <ele>171</ele>
        <time>2018-07-07T07:27:26Z</time>
      </trkpt>
      <trkpt lat="49.51728" lon="1.11036">
        <ele>172</ele>
        <time>2018-07-07T07:27:31Z</time>
      </trkpt>
      <trkpt lat="49.5172" lon="1.11006">
        <ele>173</ele>
        <time>2018-07-07T07:27:36Z</time>
      </trkpt>
      <trkpt lat="49.5171" lon="1.10968">
        <ele>174</ele>
        <time>2018-07-07T07:27:41Z</time>
      </trkpt>
      <trkpt lat="49.51704" lon="1.1093">
        <ele>174</ele>
        <time>2018-07-07T07:27:46Z</time>
      </trkpt>
      <trkpt lat="49.51697" lon="1.10889">
        <ele>173</ele>
        <time>2018-07-07T07:27:51Z</time>
      </trkpt>
      <trkpt lat="49.51688" lon="1.10856">
        <ele>173</ele>
        <time>2018-07-07T07:27:56Z</time>
      </trkpt>
      <trkpt lat="49.51685" lon="1.1083">
        <ele>174</ele>
        <time>2018-07-07T07:28:01Z</time>
      </trkpt>
      <trkpt lat="49.51677" lon="1.10809">
        <ele>174</ele>
        <time>2018-07-07T07:28:06Z</time>
      </trkpt>
      <trkpt lat="49.51675" lon="1.10801">
        <ele>174</ele>
        <time>2018-07-07T07:28:11Z</time>
      </trkpt>
      <trkpt lat="49.5168" lon="1.10791">
        <ele>174</ele>
        <time>2018-07-07T07:28:16Z</time>
      </trkpt>
      <trkpt lat="49.51687" lon="1.1078">
        <ele>175</ele>
        <time>2018-07-07T07:28:21Z</time>
      </trkpt>
      <trkpt lat="49.51693" lon="1.10762">
        <ele>175</ele>
        <time>2018-07-07T07:28:26Z</time>
      </trkpt>
      <trkpt lat="49.51696" lon="1.10741">
        <ele>177</ele>
        <time>2018-07-07T07:28:31Z</time>
      </trkpt>
      <trkpt lat="49.51701" lon="1.10719">
        <ele>177</ele>
        <time>2018-07-07T07:28:36Z</time>
      </trkpt>
      <trkpt lat="49.51701" lon="1.10686">
        <ele>178</ele>
        <time>2018-07-07T07:28:41Z</time>
      </trkpt>
      <trkpt lat="49.51697" lon="1.10651">
        <ele>178</ele>
        <time>2018-07-07T07:28:46Z</time>
      </trkpt>
      <trkpt lat="49.51698" lon="1.10624">
        <ele>178</ele>
        <time>2018-07-07T07:28:51Z</time>
      </trkpt>
      <trkpt lat="49.51696" lon="1.10595">
        <ele>178</ele>
        <time>2018-07-07T07:28:56Z</time>
      </trkpt>
      <trkpt lat="49.51693" lon="1.10573">
        <ele>177</ele>
        <time>2018-07-07T07:29:01Z</time>
      </trkpt>
      <trkpt lat="49.51689" lon="1.10552">
        <ele>177</ele>
        <time>2018-07-07T07:29:06Z</time>
      </trkpt>
      <trkpt lat="49.51685" lon="1.10526">
        <ele>177</ele>
        <time>2018-07-07T07:29:11Z</time>
      </trkpt>
      <trkpt lat="49.51682" lon="1.10506">
        <ele>176</ele>
        <time>2018-07-07T07:29:16Z</time>
      </trkpt>
      <trkpt lat="49.51681" lon="1.10484">
        <ele>175</ele>
        <time>2018-07-07T07:29:21Z</time>
      </trkpt>
      <trkpt lat="49.51679" lon="1.10463">
        <ele>175</ele>
        <time>2018-07-07T07:29:26Z</time>
      </trkpt>
      <trkpt lat="49.51677" lon="1.1044">
        <ele>174</ele>
        <time>2018-07-07T07:29:31Z</time>
      </trkpt>
      <trkpt lat="49.51672" lon="1.10414">
        <ele>173</ele>
        <time>2018-07-07T07:29:36Z</time>
      </trkpt>
      <trkpt lat="49.51668" lon="1.10397">
        <ele>173</ele>
        <time>2018-07-07T07:29:41Z</time>
      </trkpt>
      <trkpt lat="49.51669" lon="1.10368">
        <ele>172</ele>
        <time>2018-07-07T07:29:46Z</time>
      </trkpt>
      <trkpt lat="49.51671" lon="1.10343">
        <ele>171</ele>
        <time>2018-07-07T07:29:52Z</time>
      </trkpt>
      <trkpt lat="49.51672" lon="1.10328">
        <ele>170</ele>
        <time>2018-07-07T07:29:57Z</time>
      </trkpt>
      <trkpt lat="49.51673" lon="1.10306">
        <ele>171</ele>
        <time>2018-07-07T07:30:02Z</time>
      </trkpt>
      <trkpt lat="49.51669" lon="1.10286">
        <ele>171</ele>
        <time>2018-07-07T07:30:07Z</time>
      </trkpt>
      <trkpt lat="49.51664" lon="1.10266">
        <ele>169</ele>
        <time>2018-07-07T07:30:12Z</time>
      </trkpt>
      <trkpt lat="49.51656" lon="1.10234">
        <ele>168</ele>
        <time>2018-07-07T07:30:17Z</time>
      </trkpt>
      <trkpt lat="49.51646" lon="1.10201">
        <ele>167</ele>
        <time>2018-07-07T07:30:22Z</time>
      </trkpt>
      <trkpt lat="49.51633" lon="1.10161">
        <ele>167</ele>
        <time>2018-07-07T07:30:28Z</time>
      </trkpt>
      <trkpt lat="49.51617" lon="1.10135">
        <ele>166</ele>
        <time>2018-07-07T07:30:33Z</time>
      </trkpt>
      <trkpt lat="49.51605" lon="1.10102">
        <ele>166</ele>
        <time>2018-07-07T07:30:38Z</time>
      </trkpt>
      <trkpt lat="49.5159" lon="1.10073">
        <ele>165</ele>
        <time>2018-07-07T07:30:43Z</time>
      </trkpt>
      <trkpt lat="49.51577" lon="1.10048">
        <ele>163</ele>
        <time>2018-07-07T07:30:48Z</time>
      </trkpt>
      <trkpt lat="49.51559" lon="1.1002">
        <ele>163</ele>
        <time>2018-07-07T07:30:53Z</time>
      </trkpt>
      <trkpt lat="49.51545" lon="1.09986">
        <ele>163</ele>
        <time>2018-07-07T07:30:58Z</time>
      </trkpt>
      <trkpt lat="49.51529" lon="1.09952">
        <ele>163</ele>
        <time>2018-07-07T07:31:04Z</time>
      </trkpt>
      <trkpt lat="49.51516" lon="1.09929">
        <ele>163</ele>
        <time>2018-07-07T07:31:09Z</time>
      </trkpt>
      <trkpt lat="49.51504" lon="1.099">
        <ele>163</ele>
        <time>2018-07-07T07:31:14Z</time>
      </trkpt>
      <trkpt lat="49.51493" lon="1.09869">
        <ele>162</ele>
        <time>2018-07-07T07:31:19Z</time>
      </trkpt>
      <trkpt lat="49.51478" lon="1.09843">
        <ele>162</ele>
        <time>2018-07-07T07:31:24Z</time>
      </trkpt>
      <trkpt lat="49.5146" lon="1.09802">
        <ele>160</ele>
        <time>2018-07-07T07:31:29Z</time>
      </trkpt>
      <trkpt lat="49.51441" lon="1.09763">
        <ele>160</ele>
        <time>2018-07-07T07:31:34Z</time>
      </trkpt>
      <trkpt lat="49.51417" lon="1.09715">
        <ele>158</ele>
        <time>2018-07-07T07:31:40Z</time>
      </trkpt>
      <trkpt lat="49.51401" lon="1.09674">
        <ele>157</ele>
        <time>2018-07-07T07:31:45Z</time>
      </trkpt>
      <trkpt lat="49.51384" lon="1.09638">
        <ele>157</ele>
        <time>2018-07-07T07:31:51Z</time>
      </trkpt>
      <trkpt lat="49.51384" lon="1.0962">
        <ele>157</ele>
        <time>2018-07-07T07:31:56Z</time>
      </trkpt>
      <trkpt lat="49.51388" lon="1.096">
        <ele>158</ele>
        <time>2018-07-07T07:32:02Z</time>
      </trkpt>
      <trkpt lat="49.51394" lon="1.09581">
        <ele>159</ele>
        <time>2018-07-07T07:32:08Z</time>
      </trkpt>
      <trkpt lat="49.51398" lon="1.09563">
        <ele>159</ele>
        <time>2018-07-07T07:32:13Z</time>
      </trkpt>
      <trkpt lat="49.51401" lon="1.09542">
        <ele>159</ele>
        <time>2018-07-07T07:32:18Z</time>
      </trkpt>
      <trkpt lat="49.51406" lon="1.09523">
        <ele>159</ele>
        <time>2018-07-07T07:32:23Z</time>
      </trkpt>
      <trkpt lat="49.51412" lon="1.09509">
        <ele>160</ele>
        <time>2018-07-07T07:32:29Z</time>
      </trkpt>
      <trkpt lat="49.51416" lon="1.09492">
        <ele>161</ele>
        <time>2018-07-07T07:32:34Z</time>
      </trkpt>
      <trkpt lat="49.5142" lon="1.09474">
        <ele>162</ele>
        <time>2018-07-07T07:32:39Z</time>
      </trkpt>
      <trkpt lat="49.51423" lon="1.09455">
        <ele>162</ele>
        <time>2018-07-07T07:32:44Z</time>
      </trkpt>
      <trkpt lat="49.51429" lon="1.0944">
        <ele>162</ele>
        <time>2018-07-07T07:32:49Z</time>
      </trkpt>
      <trkpt lat="49.51428" lon="1.09417">
        <ele>161</ele>
        <time>2018-07-07T07:32:54Z</time>
      </trkpt>
      <trkpt lat="49.51423" lon="1.094">
        <ele>160</ele>
        <time>2018-07-07T07:32:59Z</time>
      </trkpt>
      <trkpt lat="49.51416" lon="1.09392">
        <ele>159</ele>
        <time>2018-07-07T07:33:04Z</time>
      </trkpt>
      <trkpt lat="49.51401" lon="1.09391">
        <ele>158</ele>
        <time>2018-07-07T07:33:09Z</time>
      </trkpt>
      <trkpt lat="49.51378" lon="1.09384">
        <ele>158</ele>
        <time>2018-07-07T07:33:14Z</time>
      </trkpt>
      <trkpt lat="49.51357" lon="1.09383">
        <ele>157</ele>
        <time>2018-07-07T07:33:19Z</time>
      </trkpt>
      <trkpt lat="49.51344" lon="1.09375">
        <ele>157</ele>
        <time>2018-07-07T07:33:24Z</time>
      </trkpt>
      <trkpt lat="49.51329" lon="1.09369">
        <ele>156</ele>
        <time>2018-07-07T07:33:29Z</time>
      </trkpt>
      <trkpt lat="49.51313" lon="1.0937">
        <ele>156</ele>
        <time>2018-07-07T07:33:34Z</time>
      </trkpt>
      <trkpt lat="49.513" lon="1.09367">
        <ele>156</ele>
        <time>2018-07-07T07:33:39Z</time>
      </trkpt>
      <trkpt lat="49.51282" lon="1.0937">
        <ele>156</ele>
        <time>2018-07-07T07:33:45Z</time>
      </trkpt>
      <trkpt lat="49.51265" lon="1.09366">
        <ele>156</ele>
        <time>2018-07-07T07:33:51Z</time>
      </trkpt>
      <trkpt lat="49.51252" lon="1.09362">
        <ele>156</ele>
        <time>2018-07-07T07:33:56Z</time>
      </trkpt>
      <trkpt lat="49.51241" lon="1.09348">
        <ele>155</ele>
        <time>2018-07-07T07:34:01Z</time>
      </trkpt>
      <trkpt lat="49.51222" lon="1.09349">
        <ele>154</ele>
        <time>2018-07-07T07:34:06Z</time>
      </trkpt>
      <trkpt lat="49.51197" lon="1.09356">
        <ele>153</ele>
        <time>2018-07-07T07:34:11Z</time>
      </trkpt>
      <trkpt lat="49.51176" lon="1.09362">
        <ele>152</ele>
        <time>2018-07-07T07:34:16Z</time>
      </trkpt>
      <trkpt lat="49.5116" lon="1.09365">
        <ele>150</ele>
        <time>2018-07-07T07:34:21Z</time>
      </trkpt>
      <trkpt lat="49.51141" lon="1.09368">
        <ele>150</ele>
        <time>2018-07-07T07:34:26Z</time>
      </trkpt>
      <trkpt lat="49.51123" lon="1.09372">
        <ele>149</ele>
        <time>2018-07-07T07:34:31Z</time>
      </trkpt>
      <trkpt lat="49.51102" lon="1.09375">
        <ele>149</ele>
        <time>2018-07-07T07:34:36Z</time>
      </trkpt>
      <trkpt lat="49.51077" lon="1.09386">
        <ele>146</ele>
        <time>2018-07-07T07:34:41Z</time>
      </trkpt>
      <trkpt lat="49.51065" lon="1.09387">
        <ele>146</ele>
        <time>2018-07-07T07:34:46Z</time>
      </trkpt>
      <trkpt lat="49.51055" lon="1.09389">
        <ele>145</ele>
        <time>2018-07-07T07:34:51Z</time>
      </trkpt>
      <trkpt lat="49.51041" lon="1.09392">
        <ele>145</ele>
        <time>2018-07-07T07:34:56Z</time>
      </trkpt>
      <trkpt lat="49.51029" lon="1.09395">
        <ele>144</ele>
        <time>2018-07-07T07:35:01Z</time>
      </trkpt>
      <trkpt lat="49.5102" lon="1.09397">
        <ele>143</ele>
        <time>2018-07-07T07:35:06Z</time>
      </trkpt>
      <trkpt lat="49.51012" lon="1.09398">
        <ele>142</ele>
        <time>2018-07-07T07:35:11Z</time>
      </trkpt>
      <trkpt lat="49.51003" lon="1.094">
        <ele>142</ele>
        <time>2018-07-07T07:35:16Z</time>
      </trkpt>
      <trkpt lat="49.50996" lon="1.09402">
        <ele>140</ele>
        <time>2018-07-07T07:35:22Z</time>
      </trkpt>
      <trkpt lat="49.50987" lon="1.09403">
        <ele>140</ele>
        <time>2018-07-07T07:35:27Z</time>
      </trkpt>
      <trkpt lat="49.50979" lon="1.09403">
        <ele>140</ele>
        <time>2018-07-07T07:35:32Z</time>
      </trkpt>
      <trkpt lat="49.50968" lon="1.09403">
        <ele>141</ele>
        <time>2018-07-07T07:35:37Z</time>
      </trkpt>
      <trkpt lat="49.50958" lon="1.09405">
        <ele>141</ele>
        <time>2018-07-07T07:35:42Z</time>
      </trkpt>
      <trkpt lat="49.5095" lon="1.09407">
        <ele>140</ele>
        <time>2018-07-07T07:35:47Z</time>
      </trkpt>
      <trkpt lat="49.50944" lon="1.0941">
        <ele>140</ele>
        <time>2018-07-07T07:35:52Z</time>
      </trkpt>
      <trkpt lat="49.50938" lon="1.09411">
        <ele>140</ele>
        <time>2018-07-07T07:35:57Z</time>
      </trkpt>
      <trkpt lat="49.5093" lon="1.09413">
        <ele>139</ele>
        <time>2018-07-07T07:36:02Z</time>
      </trkpt>
      <trkpt lat="49.50922" lon="1.09414">
        <ele>139</ele>
        <time>2018-07-07T07:36:07Z</time>
      </trkpt>
      <trkpt lat="49.50918" lon="1.09417">
        <ele>138</ele>
        <time>2018-07-07T07:36:13Z</time>
      </trkpt>
      <trkpt lat="49.50916" lon="1.0942">
        <ele>137</ele>
        <time>2018-07-07T07:36:19Z</time>
      </trkpt>
      <trkpt lat="49.50911" lon="1.09421">
        <ele>137</ele>
        <time>2018-07-07T07:36:24Z</time>
      </trkpt>
      <trkpt lat="49.50904" lon="1.09422">
        <ele>136</ele>
        <time>2018-07-07T07:36:29Z</time>
      </trkpt>
      <trkpt lat="49.50894" lon="1.09423">
        <ele>136</ele>
        <time>2018-07-07T07:36:34Z</time>
      </trkpt>
      <trkpt lat="49.50888" lon="1.09418">
        <ele>136</ele>
        <time>2018-07-07T07:36:39Z</time>
      </trkpt>
      <trkpt lat="49.50883" lon="1.09413">
        <ele>141</ele>
        <time>2018-07-07T07:36:44Z</time>
      </trkpt>
      <trkpt lat="49.50881" lon="1.09407">
        <ele>141</ele>
        <time>2018-07-07T07:36:49Z</time>
      </trkpt>
      <trkpt lat="49.50879" lon="1.09397">
        <ele>141</ele>
        <time>2018-07-07T07:36:54Z</time>
      </trkpt>
      <trkpt lat="49.50878" lon="1.09389">
        <ele>142</ele>
        <time>2018-07-07T07:36:59Z</time>
      </trkpt>
      <trkpt lat="49.50877" lon="1.09377">
        <ele>142</ele>
        <time>2018-07-07T07:37:04Z</time>
      </trkpt>
      <trkpt lat="49.50877" lon="1.09367">
        <ele>142</ele>
        <time>2018-07-07T07:37:09Z</time>
      </trkpt>
      <trkpt lat="49.50877" lon="1.09353">
        <ele>143</ele>
        <time>2018-07-07T07:37:14Z</time>
      </trkpt>
      <trkpt lat="49.50873" lon="1.09334">
        <ele>143</ele>
        <time>2018-07-07T07:37:20Z</time>
      </trkpt>
      <trkpt lat="49.50871" lon="1.09322">
        <ele>146</ele>
        <time>2018-07-07T07:37:25Z</time>
      </trkpt>
      <trkpt lat="49.50869" lon="1.09307">
        <ele>146</ele>
        <time>2018-07-07T07:37:30Z</time>
      </trkpt>
      <trkpt lat="49.50865" lon="1.09289">
        <ele>146</ele>
        <time>2018-07-07T07:37:35Z</time>
      </trkpt>
      <trkpt lat="49.50865" lon="1.09273">
        <ele>147</ele>
        <time>2018-07-07T07:37:40Z</time>
      </trkpt>
      <trkpt lat="49.50863" lon="1.09257">
        <ele>147</ele>
        <time>2018-07-07T07:37:45Z</time>
      </trkpt>
      <trkpt lat="49.50858" lon="1.09243">
        <ele>148</ele>
        <time>2018-07-07T07:37:51Z</time>
      </trkpt>
      <trkpt lat="49.50856" lon="1.09225">
        <ele>148</ele>
        <time>2018-07-07T07:37:56Z</time>
      </trkpt>
      <trkpt lat="49.50853" lon="1.09197">
        <ele>149</ele>
        <time>2018-07-07T07:38:01Z</time>
      </trkpt>
      <trkpt lat="49.50852" lon="1.09179">
        <ele>149</ele>
        <time>2018-07-07T07:38:06Z</time>
      </trkpt>
      <trkpt lat="49.5085" lon="1.09155">
        <ele>149</ele>
        <time>2018-07-07T07:38:11Z</time>
      </trkpt>
      <trkpt lat="49.50847" lon="1.09115">
        <ele>150</ele>
        <time>2018-07-07T07:38:16Z</time>
      </trkpt>
      <trkpt lat="49.50842" lon="1.09086">
        <ele>150</ele>
        <time>2018-07-07T07:38:21Z</time>
      </trkpt>
      <trkpt lat="49.5084" lon="1.09062">
        <ele>149</ele>
        <time>2018-07-07T07:38:26Z</time>
      </trkpt>
      <trkpt lat="49.50845" lon="1.09034">
        <ele>149</ele>
        <time>2018-07-07T07:38:31Z</time>
      </trkpt>
      <trkpt lat="49.5085" lon="1.09009">
        <ele>149</ele>
        <time>2018-07-07T07:38:36Z</time>
      </trkpt>
      <trkpt lat="49.50858" lon="1.08984">
        <ele>148</ele>
        <time>2018-07-07T07:38:41Z</time>
      </trkpt>
      <trkpt lat="49.50868" lon="1.08958">
        <ele>147</ele>
        <time>2018-07-07T07:38:46Z</time>
      </trkpt>
      <trkpt lat="49.5088" lon="1.08933">
        <ele>147</ele>
        <time>2018-07-07T07:38:51Z</time>
      </trkpt>
      <trkpt lat="49.5088" lon="1.08902">
        <ele>146</ele>
        <time>2018-07-07T07:38:56Z</time>
      </trkpt>
      <trkpt lat="49.50869" lon="1.08882">
        <ele>146</ele>
        <time>2018-07-07T07:39:01Z</time>
      </trkpt>
      <trkpt lat="49.50864" lon="1.08864">
        <ele>146</ele>
        <time>2018-07-07T07:39:06Z</time>
      </trkpt>
      <trkpt lat="49.50851" lon="1.08841">
        <ele>145</ele>
        <time>2018-07-07T07:39:11Z</time>
      </trkpt>
      <trkpt lat="49.50834" lon="1.08815">
        <ele>145</ele>
        <time>2018-07-07T07:39:16Z</time>
      </trkpt>
      <trkpt lat="49.50816" lon="1.0879">
        <ele>145</ele>
        <time>2018-07-07T07:39:21Z</time>
      </trkpt>
      <trkpt lat="49.5081" lon="1.08769">
        <ele>145</ele>
        <time>2018-07-07T07:39:26Z</time>
      </trkpt>
      <trkpt lat="49.50806" lon="1.08746">
        <ele>145</ele>
        <time>2018-07-07T07:39:31Z</time>
      </trkpt>
      <trkpt lat="49.50801" lon="1.08723">
        <ele>145</ele>
        <time>2018-07-07T07:39:36Z</time>
      </trkpt>
      <trkpt lat="49.50795" lon="1.08704">
        <ele>145</ele>
        <time>2018-07-07T07:39:41Z</time>
      </trkpt>
      <trkpt lat="49.5079" lon="1.08687">
        <ele>144</ele>
        <time>2018-07-07T07:39:46Z</time>
      </trkpt>
      <trkpt lat="49.50787" lon="1.08671">
        <ele>144</ele>
        <time>2018-07-07T07:39:51Z</time>
      </trkpt>
      <trkpt lat="49.5079" lon="1.08649">
        <ele>144</ele>
        <time>2018-07-07T07:39:56Z</time>
      </trkpt>
      <trkpt lat="49.50795" lon="1.08626">
        <ele>145</ele>
        <time>2018-07-07T07:40:01Z</time>
      </trkpt>
      <trkpt lat="49.50793" lon="1.08595">
        <ele>145</ele>
        <time>2018-07-07T07:40:06Z</time>
      </trkpt>
      <trkpt lat="49.50784" lon="1.08561">
        <ele>143</ele>
        <time>2018-07-07T07:40:11Z</time>
      </trkpt>
      <trkpt lat="49.50779" lon="1.08541">
        <ele>143</ele>
        <time>2018-07-07T07:40:16Z</time>
      </trkpt>
      <trkpt lat="49.50771" lon="1.08521">
        <ele>142</ele>
        <time>2018-07-07T07:40:21Z</time>
      </trkpt>
      <trkpt lat="49.50769" lon="1.08463">
        <ele>141</ele>
        <time>2018-07-07T07:40:26Z</time>
      </trkpt>
      <trkpt lat="49.50761" lon="1.08433">
        <ele>140</ele>
        <time>2018-07-07T07:40:31Z</time>
      </trkpt>
      <trkpt lat="49.50756" lon="1.08402">
        <ele>139</ele>
        <time>2018-07-07T07:40:36Z</time>
      </trkpt>
      <trkpt lat="49.50751" lon="1.08381">
        <ele>139</ele>
        <time>2018-07-07T07:40:41Z</time>
      </trkpt>
      <trkpt lat="49.5074" lon="1.08365">
        <ele>135</ele>
        <time>2018-07-07T07:40:46Z</time>
      </trkpt>
      <trkpt lat="49.50733" lon="1.08345">
        <ele>135</ele>
        <time>2018-07-07T07:40:51Z</time>
      </trkpt>
      <trkpt lat="49.50728" lon="1.08334">
        <ele>135</ele>
        <time>2018-07-07T07:40:56Z</time>
      </trkpt>
      <trkpt lat="49.50721" lon="1.08321">
        <ele>138</ele>
        <time>2018-07-07T07:41:01Z</time>
      </trkpt>
      <trkpt lat="49.50714" lon="1.0831">
        <ele>138</ele>
        <time>2018-07-07T07:41:06Z</time>
      </trkpt>
      <trkpt lat="49.50708" lon="1.08302">
        <ele>138</ele>
        <time>2018-07-07T07:41:11Z</time>
      </trkpt>
      <trkpt lat="49.50701" lon="1.08294">
        <ele>138</ele>
        <time>2018-07-07T07:41:16Z</time>
      </trkpt>
      <trkpt lat="49.50698" lon="1.08288">
        <ele>138</ele>
        <time>2018-07-07T07:41:21Z</time>
      </trkpt>
      <trkpt lat="49.50697" lon="1.08282">
        <ele>138</ele>
        <time>2018-07-07T07:41:26Z</time>
      </trkpt>
      <trkpt lat="49.50698" lon="1.08275">
        <ele>139</ele>
        <time>2018-07-07T07:41:31Z</time>
      </trkpt>
      <trkpt lat="49.50699" lon="1.08266">
        <ele>139</ele>
        <time>2018-07-07T07:41:36Z</time>
      </trkpt>
      <trkpt lat="49.50698" lon="1.08256">
        <ele>139</ele>
        <time>2018-07-07T07:41:41Z</time>
      </trkpt>
      <trkpt lat="49.507" lon="1.08243">
        <ele>143</ele>
        <time>2018-07-07T07:41:46Z</time>
      </trkpt>
      <trkpt lat="49.50697" lon="1.08228">
        <ele>143</ele>
        <time>2018-07-07T07:41:51Z</time>
      </trkpt>
      <trkpt lat="49.50689" lon="1.08213">
        <ele>143</ele>
        <time>2018-07-07T07:41:56Z</time>
      </trkpt>
      <trkpt lat="49.5069" lon="1.08196">
        <ele>144</ele>
        <time>2018-07-07T07:42:01Z</time>
      </trkpt>
      <trkpt lat="49.50689" lon="1.08176">
        <ele>144</ele>
        <time>2018-07-07T07:42:06Z</time>
      </trkpt>
      <trkpt lat="49.50686" lon="1.08156">
        <ele>146</ele>
        <time>2018-07-07T07:42:11Z</time>
      </trkpt>
      <trkpt lat="49.50681" lon="1.08137">
        <ele>146</ele>
        <time>2018-07-07T07:42:16Z</time>
      </trkpt>
      <trkpt lat="49.50677" lon="1.08118">
        <ele>146</ele>
        <time>2018-07-07T07:42:21Z</time>
      </trkpt>
      <trkpt lat="49.50672" lon="1.08098">
        <ele>146</ele>
        <time>2018-07-07T07:42:26Z</time>
      </trkpt>
      <trkpt lat="49.50668" lon="1.08073">
        <ele>146</ele>
        <time>2018-07-07T07:42:31Z</time>
      </trkpt>
      <trkpt lat="49.50661" lon="1.08047">
        <ele>146</ele>
        <time>2018-07-07T07:42:36Z</time>
      </trkpt>
      <trkpt lat="49.50655" lon="1.08029">
        <ele>146</ele>
        <time>2018-07-07T07:42:41Z</time>
      </trkpt>
      <trkpt lat="49.50647" lon="1.08011">
        <ele>146</ele>
        <time>2018-07-07T07:42:46Z</time>
      </trkpt>
      <trkpt lat="49.5064" lon="1.07986">
        <ele>148</ele>
        <time>2018-07-07T07:42:51Z</time>
      </trkpt>
      <trkpt lat="49.50632" lon="1.07969">
        <ele>149</ele>
        <time>2018-07-07T07:42:56Z</time>
      </trkpt>
      <trkpt lat="49.5063" lon="1.07953">
        <ele>149</ele>
        <time>2018-07-07T07:43:01Z</time>
      </trkpt>
      <trkpt lat="49.50634" lon="1.07938">
        <ele>150</ele>
        <time>2018-07-07T07:43:06Z</time>
      </trkpt>
      <trkpt lat="49.50642" lon="1.07916">
        <ele>151</ele>
        <time>2018-07-07T07:43:11Z</time>
      </trkpt>
      <trkpt lat="49.50644" lon="1.07892">
        <ele>152</ele>
        <time>2018-07-07T07:43:16Z</time>
      </trkpt>
      <trkpt lat="49.50643" lon="1.0787">
        <ele>152</ele>
        <time>2018-07-07T07:43:21Z</time>
      </trkpt>
      <trkpt lat="49.50634" lon="1.07836">
        <ele>152</ele>
        <time>2018-07-07T07:43:26Z</time>
      </trkpt>
      <trkpt lat="49.50624" lon="1.07803">
        <ele>151</ele>
        <time>2018-07-07T07:43:31Z</time>
      </trkpt>
      <trkpt lat="49.50618" lon="1.07772">
        <ele>150</ele>
        <time>2018-07-07T07:43:36Z</time>
      </trkpt>
      <trkpt lat="49.5061" lon="1.07755">
        <ele>150</ele>
        <time>2018-07-07T07:43:41Z</time>
      </trkpt>
      <trkpt lat="49.50602" lon="1.07739">
        <ele>148</ele>
        <time>2018-07-07T07:43:46Z</time>
      </trkpt>
      <trkpt lat="49.50593" lon="1.07725">
        <ele>148</ele>
        <time>2018-07-07T07:43:51Z</time>
      </trkpt>
      <trkpt lat="49.50585" lon="1.07709">
        <ele>147</ele>
        <time>2018-07-07T07:43:56Z</time>
      </trkpt>
      <trkpt lat="49.50581" lon="1.07695">
        <ele>148</ele>
        <time>2018-07-07T07:44:01Z</time>
      </trkpt>
      <trkpt lat="49.50578" lon="1.07681">
        <ele>148</ele>
        <time>2018-07-07T07:44:06Z</time>
      </trkpt>
      <trkpt lat="49.50575" lon="1.07667">
        <ele>148</ele>
        <time>2018-07-07T07:44:11Z</time>
      </trkpt>
      <trkpt lat="49.50566" lon="1.07655">
        <ele>147</ele>
        <time>2018-07-07T07:44:16Z</time>
      </trkpt>
      <trkpt lat="49.50556" lon="1.07637">
        <ele>148</ele>
        <time>2018-07-07T07:44:21Z</time>
      </trkpt>
      <trkpt lat="49.50545" lon="1.07618">
        <ele>148</ele>
        <time>2018-07-07T07:44:26Z</time>
      </trkpt>
      <trkpt lat="49.50533" lon="1.07602">
        <ele>148</ele>
        <time>2018-07-07T07:44:31Z</time>
      </trkpt>
      <trkpt lat="49.50528" lon="1.07599">
        <ele>148</ele>
        <time>2018-07-07T07:44:37Z</time>
      </trkpt>
      <trkpt lat="49.50523" lon="1.07592">
        <ele>148</ele>
        <time>2018-07-07T07:44:42Z</time>
      </trkpt>
      <trkpt lat="49.50523" lon="1.07585">
        <ele>148</ele>
        <time>2018-07-07T07:44:47Z</time>
      </trkpt>
      <trkpt lat="49.50516" lon="1.07572">
        <ele>148</ele>
        <time>2018-07-07T07:44:52Z</time>
      </trkpt>
      <trkpt lat="49.5051" lon="1.07553">
        <ele>147</ele>
        <time>2018-07-07T07:44:57Z</time>
      </trkpt>
      <trkpt lat="49.505" lon="1.07536">
        <ele>147</ele>
        <time>2018-07-07T07:45:02Z</time>
      </trkpt>
      <trkpt lat="49.50495" lon="1.07531">
        <ele>148</ele>
        <time>2018-07-07T07:45:07Z</time>
      </trkpt>
      <trkpt lat="49.50491" lon="1.07527">
        <ele>148</ele>
        <time>2018-07-07T07:45:12Z</time>
      </trkpt>
      <trkpt lat="49.50486" lon="1.07525">
        <ele>148</ele>
        <time>2018-07-07T07:45:17Z</time>
      </trkpt>
      <trkpt lat="49.50476" lon="1.07516">
        <ele>148</ele>
        <time>2018-07-07T07:45:22Z</time>
      </trkpt>
      <trkpt lat="49.50461" lon="1.075">
        <ele>147</ele>
        <time>2018-07-07T07:45:27Z</time>
      </trkpt>
      <trkpt lat="49.50441" lon="1.07473">
        <ele>143</ele>
        <time>2018-07-07T07:45:32Z</time>
      </trkpt>
      <trkpt lat="49.50419" lon="1.07454">
        <ele>141</ele>
        <time>2018-07-07T07:45:37Z</time>
      </trkpt>
      <trkpt lat="49.50402" lon="1.07443">
        <ele>138</ele>
        <time>2018-07-07T07:45:42Z</time>
      </trkpt>
      <trkpt lat="49.50386" lon="1.07433">
        <ele>137</ele>
        <time>2018-07-07T07:45:47Z</time>
      </trkpt>
      <trkpt lat="49.50375" lon="1.0742">
        <ele>137</ele>
        <time>2018-07-07T07:45:53Z</time>
      </trkpt>
      <trkpt lat="49.50368" lon="1.07399">
        <ele>136</ele>
        <time>2018-07-07T07:45:58Z</time>
      </trkpt>
      <trkpt lat="49.50357" lon="1.07392">
        <ele>136</ele>
        <time>2018-07-07T07:46:03Z</time>
      </trkpt>
      <trkpt lat="49.50356" lon="1.07389">
        <ele>136</ele>
        <time>2018-07-07T07:46:08Z</time>
      </trkpt>
      <trkpt lat="49.50352" lon="1.07385">
        <ele>136</ele>
        <time>2018-07-07T07:46:13Z</time>
      </trkpt>
      <trkpt lat="49.50349" lon="1.07381">
        <ele>136</ele>
        <time>2018-07-07T07:46:19Z</time>
      </trkpt>
      <trkpt lat="49.50342" lon="1.07372">
        <ele>136</ele>
        <time>2018-07-07T07:46:24Z</time>
      </trkpt>
      <trkpt lat="49.50337" lon="1.07362">
        <ele>136</ele>
        <time>2018-07-07T07:46:29Z</time>
      </trkpt>
      <trkpt lat="49.50329" lon="1.07355">
        <ele>136</ele>
        <time>2018-07-07T07:46:34Z</time>
      </trkpt>
      <trkpt lat="49.50321" lon="1.07347">
        <ele>136</ele>
        <time>2018-07-07T07:46:39Z</time>
      </trkpt>
      <trkpt lat="49.50312" lon="1.07339">
        <ele>136</ele>
        <time>2018-07-07T07:46:44Z</time>
      </trkpt>
      <trkpt lat="49.503" lon="1.07331">
        <ele>138</ele>
        <time>2018-07-07T07:46:49Z</time>
      </trkpt>
      <trkpt lat="49.5029" lon="1.07324">
        <ele>139</ele>
        <time>2018-07-07T07:46:54Z</time>
      </trkpt>
      <trkpt lat="49.50277" lon="1.07317">
        <ele>139</ele>
        <time>2018-07-07T07:46:59Z</time>
      </trkpt>
      <trkpt lat="49.50267" lon="1.07311">
        <ele>139</ele>
        <time>2018-07-07T07:47:04Z</time>
      </trkpt>
      <trkpt lat="49.50254" lon="1.07305">
        <ele>140</ele>
        <time>2018-07-07T07:47:09Z</time>
      </trkpt>
      <trkpt lat="49.5024" lon="1.07298">
        <ele>138</ele>
        <time>2018-07-07T07:47:14Z</time>
      </trkpt>
      <trkpt lat="49.50232" lon="1.07292">
        <ele>137</ele>
        <time>2018-07-07T07:47:19Z</time>
      </trkpt>
      <trkpt lat="49.50223" lon="1.07284">
        <ele>137</ele>
        <time>2018-07-07T07:47:24Z</time>
      </trkpt>
      <trkpt lat="49.50214" lon="1.07277">
        <ele>137</ele>
        <time>2018-07-07T07:47:29Z</time>
      </trkpt>
      <trkpt lat="49.50201" lon="1.07268">
        <ele>136</ele>
        <time>2018-07-07T07:47:34Z</time>
      </trkpt>
      <trkpt lat="49.5019" lon="1.0726">
        <ele>136</ele>
        <time>2018-07-07T07:47:39Z</time>
      </trkpt>
      <trkpt lat="49.5018" lon="1.07249">
        <ele>137</ele>
        <time>2018-07-07T07:47:44Z</time>
      </trkpt>
      <trkpt lat="49.50169" lon="1.07234">
        <ele>137</ele>
        <time>2018-07-07T07:47:49Z</time>
      </trkpt>
      <trkpt lat="49.50157" lon="1.07217">
        <ele>131</ele>
        <time>2018-07-07T07:47:54Z</time>
      </trkpt>
      <trkpt lat="49.50148" lon="1.07196">
        <ele>132</ele>
        <time>2018-07-07T07:47:59Z</time>
      </trkpt>
      <trkpt lat="49.50138" lon="1.0718">
        <ele>132</ele>
        <time>2018-07-07T07:48:04Z</time>
      </trkpt>
      <trkpt lat="49.50127" lon="1.07161">
        <ele>134</ele>
        <time>2018-07-07T07:48:09Z</time>
      </trkpt>
      <trkpt lat="49.50116" lon="1.07144">
        <ele>134</ele>
        <time>2018-07-07T07:48:14Z</time>
      </trkpt>
      <trkpt lat="49.50105" lon="1.07123">
        <ele>134</ele>
        <time>2018-07-07T07:48:19Z</time>
      </trkpt>
      <trkpt lat="49.50093" lon="1.07102">
        <ele>134</ele>
        <time>2018-07-07T07:48:24Z</time>
      </trkpt>
      <trkpt lat="49.50084" lon="1.07078">
        <ele>135</ele>
        <time>2018-07-07T07:48:29Z</time>
      </trkpt>
      <trkpt lat="49.5007" lon="1.07049">
        <ele>129</ele>
        <time>2018-07-07T07:48:34Z</time>
      </trkpt>
      <trkpt lat="49.5006" lon="1.07025">
        <ele>129</ele>
        <time>2018-07-07T07:48:39Z</time>
      </trkpt>
      <trkpt lat="49.50052" lon="1.06998">
        <ele>132</ele>
        <time>2018-07-07T07:48:44Z</time>
      </trkpt>
      <trkpt lat="49.50043" lon="1.06973">
        <ele>131</ele>
        <time>2018-07-07T07:48:49Z</time>
      </trkpt>
      <trkpt lat="49.50036" lon="1.06951">
        <ele>131</ele>
        <time>2018-07-07T07:48:54Z</time>
      </trkpt>
      <trkpt lat="49.50032" lon="1.06922">
        <ele>131</ele>
        <time>2018-07-07T07:48:59Z</time>
      </trkpt>
      <trkpt lat="49.50022" lon="1.0689">
        <ele>134</ele>
        <time>2018-07-07T07:49:04Z</time>
      </trkpt>
      <trkpt lat="49.50003" lon="1.06862">
        <ele>135</ele>
        <time>2018-07-07T07:49:09Z</time>
      </trkpt>
      <trkpt lat="49.49995" lon="1.06833">
        <ele>134</ele>
        <time>2018-07-07T07:49:14Z</time>
      </trkpt>
      <trkpt lat="49.49983" lon="1.06808">
        <ele>132</ele>
        <time>2018-07-07T07:49:19Z</time>
      </trkpt>
      <trkpt lat="49.4997" lon="1.06783">
        <ele>132</ele>
        <time>2018-07-07T07:49:24Z</time>
      </trkpt>
      <trkpt lat="49.4996" lon="1.0676">
        <ele>132</ele>
        <time>2018-07-07T07:49:29Z</time>
      </trkpt>
      <trkpt lat="49.49954" lon="1.06738">
        <ele>137</ele>
        <time>2018-07-07T07:49:34Z</time>
      </trkpt>
      <trkpt lat="49.49947" lon="1.06716">
        <ele>137</ele>
        <time>2018-07-07T07:49:39Z</time>
      </trkpt>
      <trkpt lat="49.49939" lon="1.06691">
        <ele>138</ele>
        <time>2018-07-07T07:49:44Z</time>
      </trkpt>
      <trkpt lat="49.4993" lon="1.0667">
        <ele>139</ele>
        <time>2018-07-07T07:49:49Z</time>
      </trkpt>
      <trkpt lat="49.49916" lon="1.06652">
        <ele>141</ele>
        <time>2018-07-07T07:49:54Z</time>
      </trkpt>
      <trkpt lat="49.49902" lon="1.06634">
        <ele>141</ele>
        <time>2018-07-07T07:49:59Z</time>
      </trkpt>
      <trkpt lat="49.49889" lon="1.06618">
        <ele>142</ele>
        <time>2018-07-07T07:50:04Z</time>
      </trkpt>
      <trkpt lat="49.49876" lon="1.06585">
        <ele>142</ele>
        <time>2018-07-07T07:50:09Z</time>
      </trkpt>
      <trkpt lat="49.49858" lon="1.06563">
        <ele>143</ele>
        <time>2018-07-07T07:50:14Z</time>
      </trkpt>
      <trkpt lat="49.4984" lon="1.06544">
        <ele>143</ele>
        <time>2018-07-07T07:50:19Z</time>
      </trkpt>
      <trkpt lat="49.49831" lon="1.06518">
        <ele>142</ele>
        <time>2018-07-07T07:50:24Z</time>
      </trkpt>
      <trkpt lat="49.49816" lon="1.06502">
        <ele>142</ele>
        <time>2018-07-07T07:50:29Z</time>
      </trkpt>
      <trkpt lat="49.49806" lon="1.06494">
        <ele>142</ele>
        <time>2018-07-07T07:50:34Z</time>
      </trkpt>
      <trkpt lat="49.49807" lon="1.06484">
        <ele>142</ele>
        <time>2018-07-07T07:50:40Z</time>
      </trkpt>
      <trkpt lat="49.49808" lon="1.06474">
        <ele>142</ele>
        <time>2018-07-07T07:50:45Z</time>
      </trkpt>
      <trkpt lat="49.49797" lon="1.06452">
        <ele>142</ele>
        <time>2018-07-07T07:50:51Z</time>
      </trkpt>
      <trkpt lat="49.49789" lon="1.0643">
        <ele>141</ele>
        <time>2018-07-07T07:50:56Z</time>
      </trkpt>
      <trkpt lat="49.49786" lon="1.06403">
        <ele>140</ele>
        <time>2018-07-07T07:51:01Z</time>
      </trkpt>
      <trkpt lat="49.49778" lon="1.06373">
        <ele>140</ele>
        <time>2018-07-07T07:51:06Z</time>
      </trkpt>
      <trkpt lat="49.49766" lon="1.06343">
        <ele>139</ele>
        <time>2018-07-07T07:51:11Z</time>
      </trkpt>
      <trkpt lat="49.49758" lon="1.06315">
        <ele>139</ele>
        <time>2018-07-07T07:51:16Z</time>
      </trkpt>
      <trkpt lat="49.49749" lon="1.06284">
        <ele>138</ele>
        <time>2018-07-07T07:51:21Z</time>
      </trkpt>
      <trkpt lat="49.49739" lon="1.06252">
        <ele>138</ele>
        <time>2018-07-07T07:51:26Z</time>
      </trkpt>
      <trkpt lat="49.49731" lon="1.06216">
        <ele>139</ele>
        <time>2018-07-07T07:51:31Z</time>
      </trkpt>
      <trkpt lat="49.49728" lon="1.06191">
        <ele>139</ele>
        <time>2018-07-07T07:51:36Z</time>
      </trkpt>
      <trkpt lat="49.49726" lon="1.06192">
        <ele>139</ele>
        <time>2018-07-07T07:51:41Z</time>
      </trkpt>
      <trkpt lat="49.49727" lon="1.06194">
        <ele>139</ele>
        <time>2018-07-07T07:51:46Z</time>
      </trkpt>
      <trkpt lat="49.49734" lon="1.06184">
        <ele>140</ele>
        <time>2018-07-07T07:51:51Z</time>
      </trkpt>
      <trkpt lat="49.49746" lon="1.06166">
        <ele>142</ele>
        <time>2018-07-07T07:51:56Z</time>
      </trkpt>
      <trkpt lat="49.49757" lon="1.06138">
        <ele>144</ele>
        <time>2018-07-07T07:52:01Z</time>
      </trkpt>
      <trkpt lat="49.49763" lon="1.06106">
        <ele>144</ele>
        <time>2018-07-07T07:52:06Z</time>
      </trkpt>
      <trkpt lat="49.49773" lon="1.06073">
        <ele>144</ele>
        <time>2018-07-07T07:52:11Z</time>
      </trkpt>
      <trkpt lat="49.49783" lon="1.06046">
        <ele>144</ele>
        <time>2018-07-07T07:52:16Z</time>
      </trkpt>
      <trkpt lat="49.49796" lon="1.06021">
        <ele>145</ele>
        <time>2018-07-07T07:52:21Z</time>
      </trkpt>
      <trkpt lat="49.49798" lon="1.05985">
        <ele>144</ele>
        <time>2018-07-07T07:52:26Z</time>
      </trkpt>
      <trkpt lat="49.49805" lon="1.05947">
        <ele>144</ele>
        <time>2018-07-07T07:52:31Z</time>
      </trkpt>
      <trkpt lat="49.49819" lon="1.05918">
        <ele>144</ele>
        <time>2018-07-07T07:52:36Z</time>
      </trkpt>
      <trkpt lat="49.49832" lon="1.05891">
        <ele>143</ele>
        <time>2018-07-07T07:52:41Z</time>
      </trkpt>
      <trkpt lat="49.49847" lon="1.05863">
        <ele>145</ele>
        <time>2018-07-07T07:52:46Z</time>
      </trkpt>
      <trkpt lat="49.49865" lon="1.05843">
        <ele>145</ele>
        <time>2018-07-07T07:52:51Z</time>
      </trkpt>
      <trkpt lat="49.49881" lon="1.0582">
        <ele>144</ele>
        <time>2018-07-07T07:52:56Z</time>
      </trkpt>
      <trkpt lat="49.49896" lon="1.05792">
        <ele>144</ele>
        <time>2018-07-07T07:53:01Z</time>
      </trkpt>
      <trkpt lat="49.4991" lon="1.05757">
        <ele>143</ele>
        <time>2018-07-07T07:53:06Z</time>
      </trkpt>
      <trkpt lat="49.49922" lon="1.05724">
        <ele>142</ele>
        <time>2018-07-07T07:53:11Z</time>
      </trkpt>
      <trkpt lat="49.49937" lon="1.05685">
        <ele>141</ele>
        <time>2018-07-07T07:53:16Z</time>
      </trkpt>
      <trkpt lat="49.49951" lon="1.05652">
        <ele>139</ele>
        <time>2018-07-07T07:53:21Z</time>
      </trkpt>
      <trkpt lat="49.49967" lon="1.0562">
        <ele>138</ele>
        <time>2018-07-07T07:53:26Z</time>
      </trkpt>
      <trkpt lat="49.49987" lon="1.05582">
        <ele>135</ele>
        <time>2018-07-07T07:53:31Z</time>
      </trkpt>
      <trkpt lat="49.50007" lon="1.0555">
        <ele>133</ele>
        <time>2018-07-07T07:53:36Z</time>
      </trkpt>
      <trkpt lat="49.5003" lon="1.05517">
        <ele>133</ele>
        <time>2018-07-07T07:53:41Z</time>
      </trkpt>
      <trkpt lat="49.5005" lon="1.05479">
        <ele>132</ele>
        <time>2018-07-07T07:53:46Z</time>
      </trkpt>
      <trkpt lat="49.50071" lon="1.05443">
        <ele>132</ele>
        <time>2018-07-07T07:53:51Z</time>
      </trkpt>
      <trkpt lat="49.50092" lon="1.0541">
        <ele>133</ele>
        <time>2018-07-07T07:53:56Z</time>
      </trkpt>
      <trkpt lat="49.50109" lon="1.05366">
        <ele>134</ele>
        <time>2018-07-07T07:54:01Z</time>
      </trkpt>
      <trkpt lat="49.50125" lon="1.05325">
        <ele>133</ele>
        <time>2018-07-07T07:54:06Z</time>
      </trkpt>
      <trkpt lat="49.50142" lon="1.05287">
        <ele>132</ele>
        <time>2018-07-07T07:54:11Z</time>
      </trkpt>
      <trkpt lat="49.50166" lon="1.05263">
        <ele>131</ele>
        <time>2018-07-07T07:54:16Z</time>
      </trkpt>
      <trkpt lat="49.50189" lon="1.05236">
        <ele>130</ele>
        <time>2018-07-07T07:54:21Z</time>
      </trkpt>
      <trkpt lat="49.5021" lon="1.05203">
        <ele>130</ele>
        <time>2018-07-07T07:54:26Z</time>
      </trkpt>
      <trkpt lat="49.50229" lon="1.05175">
        <ele>129</ele>
        <time>2018-07-07T07:54:31Z</time>
      </trkpt>
      <trkpt lat="49.50248" lon="1.05151">
        <ele>128</ele>
        <time>2018-07-07T07:54:36Z</time>
      </trkpt>
      <trkpt lat="49.50272" lon="1.05131">
        <ele>125</ele>
        <time>2018-07-07T07:54:41Z</time>
      </trkpt>
      <trkpt lat="49.50296" lon="1.05102">
        <ele>124</ele>
        <time>2018-07-07T07:54:46Z</time>
      </trkpt>
      <trkpt lat="49.5031" lon="1.05061">
        <ele>123</ele>
        <time>2018-07-07T07:54:51Z</time>
      </trkpt>
      <trkpt lat="49.50322" lon="1.05018">
        <ele>123</ele>
        <time>2018-07-07T07:54:56Z</time>
      </trkpt>
      <trkpt lat="49.50341" lon="1.04988">
        <ele>118</ele>
        <time>2018-07-07T07:55:01Z</time>
      </trkpt>
      <trkpt lat="49.50359" lon="1.04969">
        <ele>114</ele>
        <time>2018-07-07T07:55:06Z</time>
      </trkpt>
      <trkpt lat="49.50372" lon="1.04948">
        <ele>113</ele>
        <time>2018-07-07T07:55:11Z</time>
      </trkpt>
      <trkpt lat="49.50385" lon="1.04918">
        <ele>112</ele>
        <time>2018-07-07T07:55:16Z</time>
      </trkpt>
      <trkpt lat="49.50401" lon="1.0488">
        <ele>111</ele>
        <time>2018-07-07T07:55:21Z</time>
      </trkpt>
      <trkpt lat="49.50418" lon="1.04844">
        <ele>107</ele>
        <time>2018-07-07T07:55:26Z</time>
      </trkpt>
      <trkpt lat="49.50436" lon="1.04802">
        <ele>104</ele>
        <time>2018-07-07T07:55:31Z</time>
      </trkpt>
      <trkpt lat="49.50452" lon="1.04766">
        <ele>102</ele>
        <time>2018-07-07T07:55:36Z</time>
      </trkpt>
      <trkpt lat="49.50469" lon="1.04732">
        <ele>98</ele>
        <time>2018-07-07T07:55:41Z</time>
      </trkpt>
      <trkpt lat="49.50483" lon="1.04696">
        <ele>97</ele>
        <time>2018-07-07T07:55:46Z</time>
      </trkpt>
      <trkpt lat="49.50502" lon="1.04656">
        <ele>92</ele>
        <time>2018-07-07T07:55:51Z</time>
      </trkpt>
      <trkpt lat="49.50516" lon="1.04622">
        <ele>89</ele>
        <time>2018-07-07T07:55:56Z</time>
      </trkpt>
      <trkpt lat="49.50533" lon="1.04588">
        <ele>88</ele>
        <time>2018-07-07T07:56:01Z</time>
      </trkpt>
      <trkpt lat="49.50549" lon="1.04556">
        <ele>82</ele>
        <time>2018-07-07T07:56:06Z</time>
      </trkpt>
      <trkpt lat="49.50561" lon="1.04527">
        <ele>80</ele>
        <time>2018-07-07T07:56:11Z</time>
      </trkpt>
      <trkpt lat="49.5057" lon="1.04494">
        <ele>75</ele>
        <time>2018-07-07T07:56:16Z</time>
      </trkpt>
      <trkpt lat="49.50577" lon="1.04466">
        <ele>73</ele>
        <time>2018-07-07T07:56:21Z</time>
      </trkpt>
      <trkpt lat="49.50582" lon="1.04434">
        <ele>71</ele>
        <time>2018-07-07T07:56:26Z</time>
      </trkpt>
      <trkpt lat="49.50592" lon="1.0439">
        <ele>64</ele>
        <time>2018-07-07T07:56:31Z</time>
      </trkpt>
      <trkpt lat="49.50603" lon="1.04347">
        <ele>62</ele>
        <time>2018-07-07T07:56:36Z</time>
      </trkpt>
      <trkpt lat="49.50625" lon="1.04318">
        <ele>57</ele>
        <time>2018-07-07T07:56:41Z</time>
      </trkpt>
      <trkpt lat="49.50648" lon="1.04297">
        <ele>56</ele>
        <time>2018-07-07T07:56:46Z</time>
      </trkpt>
      <trkpt lat="49.50655" lon="1.04282">
        <ele>55</ele>
        <time>2018-07-07T07:56:51Z</time>
      </trkpt>
      <trkpt lat="49.50654" lon="1.04267">
        <ele>55</ele>
        <time>2018-07-07T07:56:56Z</time>
      </trkpt>
      <trkpt lat="49.5065" lon="1.04242">
        <ele>52</ele>
        <time>2018-07-07T07:57:01Z</time>
      </trkpt>
      <trkpt lat="49.50658" lon="1.04198">
        <ele>51</ele>
        <time>2018-07-07T07:57:06Z</time>
      </trkpt>
      <trkpt lat="49.50673" lon="1.04146">
        <ele>47</ele>
        <time>2018-07-07T07:57:11Z</time>
      </trkpt>
      <trkpt lat="49.50684" lon="1.04104">
        <ele>45</ele>
        <time>2018-07-07T07:57:16Z</time>
      </trkpt>
      <trkpt lat="49.50692" lon="1.04085">
        <ele>45</ele>
        <time>2018-07-07T07:57:21Z</time>
      </trkpt>
      <trkpt lat="49.50703" lon="1.04066">
        <ele>41</ele>
        <time>2018-07-07T07:57:31Z</time>
      </trkpt>
      <trkpt lat="49.50709" lon="1.04038">
        <ele>40</ele>
        <time>2018-07-07T07:57:36Z</time>
      </trkpt>
      <trkpt lat="49.50708" lon="1.04034">
        <ele>40</ele>
        <time>2018-07-07T07:57:42Z</time>
      </trkpt>
      <trkpt lat="49.50713" lon="1.04021">
        <ele>40</ele>
        <time>2018-07-07T07:57:50Z</time>
      </trkpt>
      <trkpt lat="49.5071" lon="1.04">
        <ele>40</ele>
        <time>2018-07-07T07:57:55Z</time>
      </trkpt>
      <trkpt lat="49.50694" lon="1.03998">
        <ele>38</ele>
        <time>2018-07-07T07:58:00Z</time>
      </trkpt>
      <trkpt lat="49.50689" lon="1.03969">
        <ele>37</ele>
        <time>2018-07-07T07:58:05Z</time>
      </trkpt>
      <trkpt lat="49.50684" lon="1.0393">
        <ele>36</ele>
        <time>2018-07-07T07:58:10Z</time>
      </trkpt>
      <trkpt lat="49.50679" lon="1.03887">
        <ele>35</ele>
        <time>2018-07-07T07:58:15Z</time>
      </trkpt>
      <trkpt lat="49.50672" lon="1.03833">
        <ele>33</ele>
        <time>2018-07-07T07:58:20Z</time>
      </trkpt>
      <trkpt lat="49.50664" lon="1.03784">
        <ele>32</ele>
        <time>2018-07-07T07:58:25Z</time>
      </trkpt>
      <trkpt lat="49.50655" lon="1.03738">
        <ele>32</ele>
        <time>2018-07-07T07:58:30Z</time>
      </trkpt>
      <trkpt lat="49.50646" lon="1.03694">
        <ele>32</ele>
        <time>2018-07-07T07:58:35Z</time>
      </trkpt>
      <trkpt lat="49.50647" lon="1.03657">
        <ele>32</ele>
        <time>2018-07-07T07:58:40Z</time>
      </trkpt>
      <trkpt lat="49.50655" lon="1.03625">
        <ele>33</ele>
        <time>2018-07-07T07:58:45Z</time>
      </trkpt>
      <trkpt lat="49.50671" lon="1.03595">
        <ele>32</ele>
        <time>2018-07-07T07:58:50Z</time>
      </trkpt>
      <trkpt lat="49.50692" lon="1.03566">
        <ele>33</ele>
        <time>2018-07-07T07:58:55Z</time>
      </trkpt>
      <trkpt lat="49.50716" lon="1.03543">
        <ele>32</ele>
        <time>2018-07-07T07:59:00Z</time>
      </trkpt>
      <trkpt lat="49.50738" lon="1.03519">
        <ele>32</ele>
        <time>2018-07-07T07:59:05Z</time>
      </trkpt>
      <trkpt lat="49.50759" lon="1.03493">
        <ele>32</ele>
        <time>2018-07-07T07:59:10Z</time>
      </trkpt>
      <trkpt lat="49.50778" lon="1.03466">
        <ele>33</ele>
        <time>2018-07-07T07:59:15Z</time>
      </trkpt>
      <trkpt lat="49.50797" lon="1.03441">
        <ele>33</ele>
        <time>2018-07-07T07:59:20Z</time>
      </trkpt>
      <trkpt lat="49.50811" lon="1.03415">
        <ele>36</ele>
        <time>2018-07-07T07:59:25Z</time>
      </trkpt>
      <trkpt lat="49.5082" lon="1.03391">
        <ele>36</ele>
        <time>2018-07-07T07:59:30Z</time>
      </trkpt>
      <trkpt lat="49.50837" lon="1.03386">
        <ele>37</ele>
        <time>2018-07-07T07:59:35Z</time>
      </trkpt>
      <trkpt lat="49.50853" lon="1.03385">
        <ele>37</ele>
        <time>2018-07-07T07:59:40Z</time>
      </trkpt>
      <trkpt lat="49.50867" lon="1.03375">
        <ele>37</ele>
        <time>2018-07-07T07:59:45Z</time>
      </trkpt>
      <trkpt lat="49.5087" lon="1.03361">
        <ele>38</ele>
        <time>2018-07-07T07:59:50Z</time>
      </trkpt>
      <trkpt lat="49.50871" lon="1.03349">
        <ele>38</ele>
        <time>2018-07-07T07:59:55Z</time>
      </trkpt>
      <trkpt lat="49.50867" lon="1.03336">
        <ele>38</ele>
        <time>2018-07-07T08:00:00Z</time>
      </trkpt>
      <trkpt lat="49.50866" lon="1.03324">
        <ele>43</ele>
        <time>2018-07-07T08:00:05Z</time>
      </trkpt>
      <trkpt lat="49.50864" lon="1.03312">
        <ele>43</ele>
        <time>2018-07-07T08:00:11Z</time>
      </trkpt>
      <trkpt lat="49.50862" lon="1.03301">
        <ele>44</ele>
        <time>2018-07-07T08:00:16Z</time>
      </trkpt>
      <trkpt lat="49.50861" lon="1.03291">
        <ele>44</ele>
        <time>2018-07-07T08:00:21Z</time>
      </trkpt>
      <trkpt lat="49.50859" lon="1.03281">
        <ele>45</ele>
        <time>2018-07-07T08:00:26Z</time>
      </trkpt>
      <trkpt lat="49.50856" lon="1.03272">
        <ele>46</ele>
        <time>2018-07-07T08:00:31Z</time>
      </trkpt>
      <trkpt lat="49.5085" lon="1.03265">
        <ele>47</ele>
        <time>2018-07-07T08:00:36Z</time>
      </trkpt>
      <trkpt lat="49.50848" lon="1.03257">
        <ele>48</ele>
        <time>2018-07-07T08:00:42Z</time>
      </trkpt>
      <trkpt lat="49.50845" lon="1.03249">
        <ele>51</ele>
        <time>2018-07-07T08:00:47Z</time>
      </trkpt>
      <trkpt lat="49.50843" lon="1.03239">
        <ele>51</ele>
        <time>2018-07-07T08:00:53Z</time>
      </trkpt>
      <trkpt lat="49.50844" lon="1.0323">
        <ele>51</ele>
        <time>2018-07-07T08:00:58Z</time>
      </trkpt>
      <trkpt lat="49.50844" lon="1.03222">
        <ele>50</ele>
        <time>2018-07-07T08:01:03Z</time>
      </trkpt>
      <trkpt lat="49.50845" lon="1.03211">
        <ele>51</ele>
        <time>2018-07-07T08:01:08Z</time>
      </trkpt>
      <trkpt lat="49.50846" lon="1.03201">
        <ele>51</ele>
        <time>2018-07-07T08:01:13Z</time>
      </trkpt>
      <trkpt lat="49.50848" lon="1.03191">
        <ele>51</ele>
        <time>2018-07-07T08:01:18Z</time>
      </trkpt>
      <trkpt lat="49.50851" lon="1.0318">
        <ele>52</ele>
        <time>2018-07-07T08:01:23Z</time>
      </trkpt>
      <trkpt lat="49.50853" lon="1.0317">
        <ele>52</ele>
        <time>2018-07-07T08:01:28Z</time>
      </trkpt>
      <trkpt lat="49.50855" lon="1.03161">
        <ele>53</ele>
        <time>2018-07-07T08:01:33Z</time>
      </trkpt>
      <trkpt lat="49.50856" lon="1.03149">
        <ele>53</ele>
        <time>2018-07-07T08:01:38Z</time>
      </trkpt>
      <trkpt lat="49.50854" lon="1.03139">
        <ele>53</ele>
        <time>2018-07-07T08:01:43Z</time>
      </trkpt>
      <trkpt lat="49.5085" lon="1.0313">
        <ele>54</ele>
        <time>2018-07-07T08:01:49Z</time>
      </trkpt>
      <trkpt lat="49.50845" lon="1.03123">
        <ele>54</ele>
        <time>2018-07-07T08:01:55Z</time>
      </trkpt>
      <trkpt lat="49.50841" lon="1.03116">
        <ele>55</ele>
        <time>2018-07-07T08:02:01Z</time>
      </trkpt>
      <trkpt lat="49.50836" lon="1.03108">
        <ele>55</ele>
        <time>2018-07-07T08:02:07Z</time>
      </trkpt>
      <trkpt lat="49.50831" lon="1.03102">
        <ele>63</ele>
        <time>2018-07-07T08:02:12Z</time>
      </trkpt>
      <trkpt lat="49.50825" lon="1.03096">
        <ele>63</ele>
        <time>2018-07-07T08:02:17Z</time>
      </trkpt>
      <trkpt lat="49.50819" lon="1.0309">
        <ele>64</ele>
        <time>2018-07-07T08:02:22Z</time>
      </trkpt>
      <trkpt lat="49.50813" lon="1.03084">
        <ele>64</ele>
        <time>2018-07-07T08:02:27Z</time>
      </trkpt>
      <trkpt lat="49.50807" lon="1.03077">
        <ele>68</ele>
        <time>2018-07-07T08:02:33Z</time>
      </trkpt>
      <trkpt lat="49.50801" lon="1.03071">
        <ele>69</ele>
        <time>2018-07-07T08:02:39Z</time>
      </trkpt>
      <trkpt lat="49.50795" lon="1.03066">
        <ele>70</ele>
        <time>2018-07-07T08:02:44Z</time>
      </trkpt>
      <trkpt lat="49.50786" lon="1.03061">
        <ele>71</ele>
        <time>2018-07-07T08:02:49Z</time>
      </trkpt>
      <trkpt lat="49.5078" lon="1.03057">
        <ele>72</ele>
        <time>2018-07-07T08:02:54Z</time>
      </trkpt>
      <trkpt lat="49.50775" lon="1.03053">
        <ele>73</ele>
        <time>2018-07-07T08:02:59Z</time>
      </trkpt>
      <trkpt lat="49.50769" lon="1.03049">
        <ele>73</ele>
        <time>2018-07-07T08:03:05Z</time>
      </trkpt>
      <trkpt lat="49.50764" lon="1.03044">
        <ele>74</ele>
        <time>2018-07-07T08:03:10Z</time>
      </trkpt>
      <trkpt lat="49.50759" lon="1.03041">
        <ele>75</ele>
        <time>2018-07-07T08:03:16Z</time>
      </trkpt>
      <trkpt lat="49.50755" lon="1.03039">
        <ele>75</ele>
        <time>2018-07-07T08:03:21Z</time>
      </trkpt>
      <trkpt lat="49.50753" lon="1.03034">
        <ele>76</ele>
        <time>2018-07-07T08:03:26Z</time>
      </trkpt>
      <trkpt lat="49.5075" lon="1.03029">
        <ele>87</ele>
        <time>2018-07-07T08:03:31Z</time>
      </trkpt>
      <trkpt lat="49.50745" lon="1.03023">
        <ele>88</ele>
        <time>2018-07-07T08:03:37Z</time>
      </trkpt>
      <trkpt lat="49.50743" lon="1.03019">
        <ele>88</ele>
        <time>2018-07-07T08:03:42Z</time>
      </trkpt>
      <trkpt lat="49.5074" lon="1.03016">
        <ele>88</ele>
        <time>2018-07-07T08:03:47Z</time>
      </trkpt>
      <trkpt lat="49.50735" lon="1.03014">
        <ele>88</ele>
        <time>2018-07-07T08:03:53Z</time>
      </trkpt>
      <trkpt lat="49.50734" lon="1.03008">
        <ele>88</ele>
        <time>2018-07-07T08:04:01Z</time>
      </trkpt>
      <trkpt lat="49.50732" lon="1.03004">
        <ele>88</ele>
        <time>2018-07-07T08:04:06Z</time>
      </trkpt>
      <trkpt lat="49.5073" lon="1.03">
        <ele>88</ele>
        <time>2018-07-07T08:04:11Z</time>
      </trkpt>
      <trkpt lat="49.50727" lon="1.02996">
        <ele>92</ele>
        <time>2018-07-07T08:04:16Z</time>
      </trkpt>
      <trkpt lat="49.50724" lon="1.0299">
        <ele>93</ele>
        <time>2018-07-07T08:04:21Z</time>
      </trkpt>
      <trkpt lat="49.50721" lon="1.02982">
        <ele>94</ele>
        <time>2018-07-07T08:04:27Z</time>
      </trkpt>
      <trkpt lat="49.50723" lon="1.02973">
        <ele>94</ele>
        <time>2018-07-07T08:04:32Z</time>
      </trkpt>
      <trkpt lat="49.50724" lon="1.02968">
        <ele>94</ele>
        <time>2018-07-07T08:04:38Z</time>
      </trkpt>
      <trkpt lat="49.50725" lon="1.02968">
        <ele>94</ele>
        <time>2018-07-07T08:04:43Z</time>
      </trkpt>
      <trkpt lat="49.50721" lon="1.02954">
        <ele>95</ele>
        <time>2018-07-07T08:04:49Z</time>
      </trkpt>
      <trkpt lat="49.50721" lon="1.02946">
        <ele>95</ele>
        <time>2018-07-07T08:04:54Z</time>
      </trkpt>
      <trkpt lat="49.50719" lon="1.02939">
        <ele>95</ele>
        <time>2018-07-07T08:05:00Z</time>
      </trkpt>
      <trkpt lat="49.50719" lon="1.02932">
        <ele>95</ele>
        <time>2018-07-07T08:05:05Z</time>
      </trkpt>
      <trkpt lat="49.50719" lon="1.02925">
        <ele>95</ele>
        <time>2018-07-07T08:05:11Z</time>
      </trkpt>
      <trkpt lat="49.50718" lon="1.02921">
        <ele>96</ele>
        <time>2018-07-07T08:05:16Z</time>
      </trkpt>
      <trkpt lat="49.50716" lon="1.02917">
        <ele>96</ele>
        <time>2018-07-07T08:05:21Z</time>
      </trkpt>
      <trkpt lat="49.50714" lon="1.02908">
        <ele>98</ele>
        <time>2018-07-07T08:05:27Z</time>
      </trkpt>
      <trkpt lat="49.5071" lon="1.02892">
        <ele>98</ele>
        <time>2018-07-07T08:05:37Z</time>
      </trkpt>
      <trkpt lat="49.5071" lon="1.02885">
        <ele>98</ele>
        <time>2018-07-07T08:05:43Z</time>
      </trkpt>
      <trkpt lat="49.50708" lon="1.02881">
        <ele>98</ele>
        <time>2018-07-07T08:05:49Z</time>
      </trkpt>
      <trkpt lat="49.50704" lon="1.02875">
        <ele>99</ele>
        <time>2018-07-07T08:05:54Z</time>
      </trkpt>
      <trkpt lat="49.507" lon="1.02865">
        <ele>100</ele>
        <time>2018-07-07T08:05:59Z</time>
      </trkpt>
      <trkpt lat="49.50699" lon="1.02857">
        <ele>100</ele>
        <time>2018-07-07T08:06:04Z</time>
      </trkpt>
      <trkpt lat="49.50693" lon="1.02849">
        <ele>101</ele>
        <time>2018-07-07T08:06:10Z</time>
      </trkpt>
      <trkpt lat="49.50691" lon="1.02842">
        <ele>102</ele>
        <time>2018-07-07T08:06:16Z</time>
      </trkpt>
      <trkpt lat="49.5069" lon="1.02833">
        <ele>102</ele>
        <time>2018-07-07T08:06:21Z</time>
      </trkpt>
      <trkpt lat="49.50688" lon="1.02823">
        <ele>104</ele>
        <time>2018-07-07T08:06:26Z</time>
      </trkpt>
      <trkpt lat="49.50684" lon="1.02816">
        <ele>105</ele>
        <time>2018-07-07T08:06:31Z</time>
      </trkpt>
      <trkpt lat="49.50685" lon="1.02807">
        <ele>104</ele>
        <time>2018-07-07T08:06:36Z</time>
      </trkpt>
      <trkpt lat="49.50682" lon="1.02799">
        <ele>105</ele>
        <time>2018-07-07T08:06:41Z</time>
      </trkpt>
      <trkpt lat="49.5068" lon="1.02788">
        <ele>105</ele>
        <time>2018-07-07T08:06:46Z</time>
      </trkpt>
      <trkpt lat="49.5068" lon="1.02779">
        <ele>106</ele>
        <time>2018-07-07T08:06:51Z</time>
      </trkpt>
      <trkpt lat="49.50679" lon="1.0277">
        <ele>107</ele>
        <time>2018-07-07T08:06:56Z</time>
      </trkpt>
      <trkpt lat="49.50679" lon="1.02761">
        <ele>109</ele>
        <time>2018-07-07T08:07:02Z</time>
      </trkpt>
      <trkpt lat="49.50676" lon="1.02755">
        <ele>111</ele>
        <time>2018-07-07T08:07:07Z</time>
      </trkpt>
      <trkpt lat="49.50673" lon="1.02746">
        <ele>113</ele>
        <time>2018-07-07T08:07:12Z</time>
      </trkpt>
      <trkpt lat="49.50671" lon="1.02736">
        <ele>112</ele>
        <time>2018-07-07T08:07:17Z</time>
      </trkpt>
      <trkpt lat="49.50671" lon="1.02726">
        <ele>111</ele>
        <time>2018-07-07T08:07:22Z</time>
      </trkpt>
      <trkpt lat="49.50668" lon="1.02716">
        <ele>110</ele>
        <time>2018-07-07T08:07:27Z</time>
      </trkpt>
      <trkpt lat="49.50665" lon="1.02704">
        <ele>120</ele>
        <time>2018-07-07T08:07:32Z</time>
      </trkpt>
      <trkpt lat="49.50666" lon="1.02692">
        <ele>120</ele>
        <time>2018-07-07T08:07:37Z</time>
      </trkpt>
      <trkpt lat="49.50664" lon="1.02674">
        <ele>119</ele>
        <time>2018-07-07T08:07:42Z</time>
      </trkpt>
      <trkpt lat="49.50661" lon="1.02662">
        <ele>119</ele>
        <time>2018-07-07T08:07:47Z</time>
      </trkpt>
      <trkpt lat="49.50657" lon="1.02648">
        <ele>121</ele>
        <time>2018-07-07T08:07:52Z</time>
      </trkpt>
      <trkpt lat="49.50655" lon="1.02634">
        <ele>122</ele>
        <time>2018-07-07T08:07:57Z</time>
      </trkpt>
      <trkpt lat="49.50651" lon="1.02622">
        <ele>122</ele>
        <time>2018-07-07T08:08:02Z</time>
      </trkpt>
      <trkpt lat="49.50649" lon="1.02611">
        <ele>122</ele>
        <time>2018-07-07T08:08:07Z</time>
      </trkpt>
      <trkpt lat="49.50647" lon="1.02603">
        <ele>122</ele>
        <time>2018-07-07T08:08:12Z</time>
      </trkpt>
      <trkpt lat="49.50639" lon="1.02591">
        <ele>123</ele>
        <time>2018-07-07T08:08:17Z</time>
      </trkpt>
      <trkpt lat="49.50632" lon="1.02579">
        <ele>124</ele>
        <time>2018-07-07T08:08:22Z</time>
      </trkpt>
      <trkpt lat="49.50627" lon="1.02565">
        <ele>125</ele>
        <time>2018-07-07T08:08:27Z</time>
      </trkpt>
      <trkpt lat="49.50621" lon="1.0256">
        <ele>125</ele>
        <time>2018-07-07T08:08:32Z</time>
      </trkpt>
      <trkpt lat="49.50617" lon="1.0255">
        <ele>126</ele>
        <time>2018-07-07T08:08:37Z</time>
      </trkpt>
      <trkpt lat="49.50606" lon="1.0254">
        <ele>126</ele>
        <time>2018-07-07T08:08:42Z</time>
      </trkpt>
      <trkpt lat="49.50598" lon="1.02528">
        <ele>127</ele>
        <time>2018-07-07T08:08:47Z</time>
      </trkpt>
      <trkpt lat="49.50588" lon="1.0252">
        <ele>127</ele>
        <time>2018-07-07T08:08:52Z</time>
      </trkpt>
      <trkpt lat="49.50583" lon="1.02515">
        <ele>130</ele>
        <time>2018-07-07T08:08:57Z</time>
      </trkpt>
      <trkpt lat="49.50575" lon="1.02506">
        <ele>130</ele>
        <time>2018-07-07T08:09:02Z</time>
      </trkpt>
      <trkpt lat="49.50567" lon="1.02495">
        <ele>132</ele>
        <time>2018-07-07T08:09:07Z</time>
      </trkpt>
      <trkpt lat="49.5056" lon="1.02483">
        <ele>133</ele>
        <time>2018-07-07T08:09:12Z</time>
      </trkpt>
      <trkpt lat="49.50552" lon="1.02471">
        <ele>133</ele>
        <time>2018-07-07T08:09:17Z</time>
      </trkpt>
      <trkpt lat="49.50541" lon="1.02456">
        <ele>134</ele>
        <time>2018-07-07T08:09:22Z</time>
      </trkpt>
      <trkpt lat="49.50529" lon="1.02442">
        <ele>135</ele>
        <time>2018-07-07T08:09:27Z</time>
      </trkpt>
      <trkpt lat="49.50515" lon="1.02424">
        <ele>135</ele>
        <time>2018-07-07T08:09:32Z</time>
      </trkpt>
      <trkpt lat="49.50496" lon="1.02407">
        <ele>136</ele>
        <time>2018-07-07T08:09:37Z</time>
      </trkpt>
      <trkpt lat="49.50475" lon="1.02391">
        <ele>136</ele>
        <time>2018-07-07T08:09:42Z</time>
      </trkpt>
      <trkpt lat="49.50461" lon="1.02371">
        <ele>136</ele>
        <time>2018-07-07T08:09:47Z</time>
      </trkpt>
      <trkpt lat="49.50447" lon="1.02351">
        <ele>135</ele>
        <time>2018-07-07T08:09:52Z</time>
      </trkpt>
      <trkpt lat="49.50431" lon="1.02327">
        <ele>133</ele>
        <time>2018-07-07T08:09:57Z</time>
      </trkpt>
      <trkpt lat="49.50417" lon="1.02304">
        <ele>133</ele>
        <time>2018-07-07T08:10:02Z</time>
      </trkpt>
      <trkpt lat="49.504" lon="1.02288">
        <ele>132</ele>
        <time>2018-07-07T08:10:07Z</time>
      </trkpt>
      <trkpt lat="49.50388" lon="1.02268">
        <ele>131</ele>
        <time>2018-07-07T08:10:12Z</time>
      </trkpt>
      <trkpt lat="49.50375" lon="1.02247">
        <ele>130</ele>
        <time>2018-07-07T08:10:17Z</time>
      </trkpt>
      <trkpt lat="49.50366" lon="1.02222">
        <ele>130</ele>
        <time>2018-07-07T08:10:22Z</time>
      </trkpt>
      <trkpt lat="49.50358" lon="1.02193">
        <ele>130</ele>
        <time>2018-07-07T08:10:27Z</time>
      </trkpt>
      <trkpt lat="49.50349" lon="1.02164">
        <ele>128</ele>
        <time>2018-07-07T08:10:32Z</time>
      </trkpt>
      <trkpt lat="49.50341" lon="1.02136">
        <ele>127</ele>
        <time>2018-07-07T08:10:37Z</time>
      </trkpt>
      <trkpt lat="49.50331" lon="1.02103">
        <ele>127</ele>
        <time>2018-07-07T08:10:42Z</time>
      </trkpt>
      <trkpt lat="49.50323" lon="1.02071">
        <ele>127</ele>
        <time>2018-07-07T08:10:47Z</time>
      </trkpt>
      <trkpt lat="49.50314" lon="1.02043">
        <ele>127</ele>
        <time>2018-07-07T08:10:52Z</time>
      </trkpt>
      <trkpt lat="49.50307" lon="1.0201">
        <ele>126</ele>
        <time>2018-07-07T08:10:57Z</time>
      </trkpt>
      <trkpt lat="49.50301" lon="1.01981">
        <ele>127</ele>
        <time>2018-07-07T08:11:02Z</time>
      </trkpt>
      <trkpt lat="49.50295" lon="1.01957">
        <ele>127</ele>
        <time>2018-07-07T08:11:07Z</time>
      </trkpt>
      <trkpt lat="49.50292" lon="1.0193">
        <ele>127</ele>
        <time>2018-07-07T08:11:12Z</time>
      </trkpt>
      <trkpt lat="49.50291" lon="1.01902">
        <ele>127</ele>
        <time>2018-07-07T08:11:17Z</time>
      </trkpt>
      <trkpt lat="49.50289" lon="1.01873">
        <ele>127</ele>
        <time>2018-07-07T08:11:22Z</time>
      </trkpt>
      <trkpt lat="49.50284" lon="1.01846">
        <ele>127</ele>
        <time>2018-07-07T08:11:27Z</time>
      </trkpt>
      <trkpt lat="49.5028" lon="1.01821">
        <ele>126</ele>
        <time>2018-07-07T08:11:32Z</time>
      </trkpt>
      <trkpt lat="49.50273" lon="1.01793">
        <ele>126</ele>
        <time>2018-07-07T08:11:37Z</time>
      </trkpt>
      <trkpt lat="49.50266" lon="1.01765">
        <ele>127</ele>
        <time>2018-07-07T08:11:42Z</time>
      </trkpt>
      <trkpt lat="49.50261" lon="1.01738">
        <ele>127</ele>
        <time>2018-07-07T08:11:47Z</time>
      </trkpt>
      <trkpt lat="49.50254" lon="1.01712">
        <ele>126</ele>
        <time>2018-07-07T08:11:52Z</time>
      </trkpt>
      <trkpt lat="49.50247" lon="1.01681">
        <ele>128</ele>
        <time>2018-07-07T08:11:57Z</time>
      </trkpt>
      <trkpt lat="49.50238" lon="1.01648">
        <ele>128</ele>
        <time>2018-07-07T08:12:02Z</time>
      </trkpt>
      <trkpt lat="49.50229" lon="1.01616">
        <ele>128</ele>
        <time>2018-07-07T08:12:07Z</time>
      </trkpt>
      <trkpt lat="49.50222" lon="1.01587">
        <ele>128</ele>
        <time>2018-07-07T08:12:12Z</time>
      </trkpt>
      <trkpt lat="49.50215" lon="1.01561">
        <ele>128</ele>
        <time>2018-07-07T08:12:17Z</time>
      </trkpt>
      <trkpt lat="49.50207" lon="1.01535">
        <ele>128</ele>
        <time>2018-07-07T08:12:22Z</time>
      </trkpt>
      <trkpt lat="49.50201" lon="1.01506">
        <ele>128</ele>
        <time>2018-07-07T08:12:27Z</time>
      </trkpt>
      <trkpt lat="49.50199" lon="1.01472">
        <ele>128</ele>
        <time>2018-07-07T08:12:32Z</time>
      </trkpt>
      <trkpt lat="49.5019" lon="1.01445">
        <ele>128</ele>
        <time>2018-07-07T08:12:37Z</time>
      </trkpt>
      <trkpt lat="49.50179" lon="1.0142">
        <ele>129</ele>
        <time>2018-07-07T08:12:42Z</time>
      </trkpt>
      <trkpt lat="49.50171" lon="1.01397">
        <ele>129</ele>
        <time>2018-07-07T08:12:47Z</time>
      </trkpt>
      <trkpt lat="49.50155" lon="1.01403">
        <ele>130</ele>
        <time>2018-07-07T08:12:52Z</time>
      </trkpt>
      <trkpt lat="49.50137" lon="1.01419">
        <ele>130</ele>
        <time>2018-07-07T08:12:57Z</time>
      </trkpt>
      <trkpt lat="49.5012" lon="1.0144">
        <ele>131</ele>
        <time>2018-07-07T08:13:02Z</time>
      </trkpt>
      <trkpt lat="49.50102" lon="1.01458">
        <ele>131</ele>
        <time>2018-07-07T08:13:07Z</time>
      </trkpt>
      <trkpt lat="49.50085" lon="1.0148">
        <ele>131</ele>
        <time>2018-07-07T08:13:12Z</time>
      </trkpt>
      <trkpt lat="49.50074" lon="1.01506">
        <ele>133</ele>
        <time>2018-07-07T08:13:17Z</time>
      </trkpt>
      <trkpt lat="49.50065" lon="1.0153">
        <ele>133</ele>
        <time>2018-07-07T08:13:22Z</time>
      </trkpt>
      <trkpt lat="49.50053" lon="1.01552">
        <ele>133</ele>
        <time>2018-07-07T08:13:27Z</time>
      </trkpt>
      <trkpt lat="49.5004" lon="1.01578">
        <ele>134</ele>
        <time>2018-07-07T08:13:32Z</time>
      </trkpt>
      <trkpt lat="49.50022" lon="1.016">
        <ele>134</ele>
        <time>2018-07-07T08:13:37Z</time>
      </trkpt>
      <trkpt lat="49.50003" lon="1.01617">
        <ele>134</ele>
        <time>2018-07-07T08:13:42Z</time>
      </trkpt>
      <trkpt lat="49.49983" lon="1.01634">
        <ele>135</ele>
        <time>2018-07-07T08:13:47Z</time>
      </trkpt>
      <trkpt lat="49.49963" lon="1.01652">
        <ele>135</ele>
        <time>2018-07-07T08:13:52Z</time>
      </trkpt>
      <trkpt lat="49.49944" lon="1.01668">
        <ele>135</ele>
        <time>2018-07-07T08:13:57Z</time>
      </trkpt>
      <trkpt lat="49.49925" lon="1.01684">
        <ele>135</ele>
        <time>2018-07-07T08:14:02Z</time>
      </trkpt>
      <trkpt lat="49.49908" lon="1.01699">
        <ele>136</ele>
        <time>2018-07-07T08:14:07Z</time>
      </trkpt>
      <trkpt lat="49.49889" lon="1.01712">
        <ele>136</ele>
        <time>2018-07-07T08:14:12Z</time>
      </trkpt>
      <trkpt lat="49.4987" lon="1.01727">
        <ele>136</ele>
        <time>2018-07-07T08:14:17Z</time>
      </trkpt>
      <trkpt lat="49.49852" lon="1.01741">
        <ele>137</ele>
        <time>2018-07-07T08:14:22Z</time>
      </trkpt>
      <trkpt lat="49.49833" lon="1.01753">
        <ele>138</ele>
        <time>2018-07-07T08:14:27Z</time>
      </trkpt>
      <trkpt lat="49.49814" lon="1.01766">
        <ele>139</ele>
        <time>2018-07-07T08:14:32Z</time>
      </trkpt>
      <trkpt lat="49.49798" lon="1.01779">
        <ele>139</ele>
        <time>2018-07-07T08:14:37Z</time>
      </trkpt>
      <trkpt lat="49.49782" lon="1.01791">
        <ele>140</ele>
        <time>2018-07-07T08:14:42Z</time>
      </trkpt>
      <trkpt lat="49.49763" lon="1.01804">
        <ele>140</ele>
        <time>2018-07-07T08:14:47Z</time>
      </trkpt>
      <trkpt lat="49.49743" lon="1.01814">
        <ele>141</ele>
        <time>2018-07-07T08:14:52Z</time>
      </trkpt>
      <trkpt lat="49.49724" lon="1.01822">
        <ele>141</ele>
        <time>2018-07-07T08:14:57Z</time>
      </trkpt>
      <trkpt lat="49.4971" lon="1.01834">
        <ele>142</ele>
        <time>2018-07-07T08:15:02Z</time>
      </trkpt>
      <trkpt lat="49.49696" lon="1.01846">
        <ele>142</ele>
        <time>2018-07-07T08:15:07Z</time>
      </trkpt>
      <trkpt lat="49.49679" lon="1.01853">
        <ele>142</ele>
        <time>2018-07-07T08:15:12Z</time>
      </trkpt>
      <trkpt lat="49.49662" lon="1.01862">
        <ele>142</ele>
        <time>2018-07-07T08:15:17Z</time>
      </trkpt>
      <trkpt lat="49.49648" lon="1.01873">
        <ele>142</ele>
        <time>2018-07-07T08:15:22Z</time>
      </trkpt>
      <trkpt lat="49.49633" lon="1.01883">
        <ele>141</ele>
        <time>2018-07-07T08:15:27Z</time>
      </trkpt>
      <trkpt lat="49.49616" lon="1.01895">
        <ele>141</ele>
        <time>2018-07-07T08:15:32Z</time>
      </trkpt>
      <trkpt lat="49.49598" lon="1.01908">
        <ele>141</ele>
        <time>2018-07-07T08:15:37Z</time>
      </trkpt>
      <trkpt lat="49.49578" lon="1.01925">
        <ele>139</ele>
        <time>2018-07-07T08:15:42Z</time>
      </trkpt>
      <trkpt lat="49.4956" lon="1.01939">
        <ele>138</ele>
        <time>2018-07-07T08:15:47Z</time>
      </trkpt>
      <trkpt lat="49.49542" lon="1.01956">
        <ele>137</ele>
        <time>2018-07-07T08:15:52Z</time>
      </trkpt>
      <trkpt lat="49.49525" lon="1.01973">
        <ele>136</ele>
        <time>2018-07-07T08:15:57Z</time>
      </trkpt>
      <trkpt lat="49.49507" lon="1.01988">
        <ele>136</ele>
        <time>2018-07-07T08:16:02Z</time>
      </trkpt>
      <trkpt lat="49.49488" lon="1.02005">
        <ele>135</ele>
        <time>2018-07-07T08:16:07Z</time>
      </trkpt>
      <trkpt lat="49.49469" lon="1.02022">
        <ele>135</ele>
        <time>2018-07-07T08:16:12Z</time>
      </trkpt>
      <trkpt lat="49.49451" lon="1.02038">
        <ele>135</ele>
        <time>2018-07-07T08:16:17Z</time>
      </trkpt>
      <trkpt lat="49.49433" lon="1.02053">
        <ele>135</ele>
        <time>2018-07-07T08:16:22Z</time>
      </trkpt>
      <trkpt lat="49.49416" lon="1.02068">
        <ele>135</ele>
        <time>2018-07-07T08:16:27Z</time>
      </trkpt>
      <trkpt lat="49.49398" lon="1.02085">
        <ele>134</ele>
        <time>2018-07-07T08:16:32Z</time>
      </trkpt>
      <trkpt lat="49.49378" lon="1.02103">
        <ele>134</ele>
        <time>2018-07-07T08:16:37Z</time>
      </trkpt>
      <trkpt lat="49.4936" lon="1.02119">
        <ele>133</ele>
        <time>2018-07-07T08:16:42Z</time>
      </trkpt>
      <trkpt lat="49.49342" lon="1.02135">
        <ele>133</ele>
        <time>2018-07-07T08:16:47Z</time>
      </trkpt>
      <trkpt lat="49.49325" lon="1.02151">
        <ele>133</ele>
        <time>2018-07-07T08:16:52Z</time>
      </trkpt>
      <trkpt lat="49.49309" lon="1.02166">
        <ele>133</ele>
        <time>2018-07-07T08:16:57Z</time>
      </trkpt>
      <trkpt lat="49.49297" lon="1.02176">
        <ele>133</ele>
        <time>2018-07-07T08:17:02Z</time>
      </trkpt>
      <trkpt lat="49.49293" lon="1.02165">
        <ele>132</ele>
        <time>2018-07-07T08:17:07Z</time>
      </trkpt>
      <trkpt lat="49.4929" lon="1.02148">
        <ele>132</ele>
        <time>2018-07-07T08:17:12Z</time>
      </trkpt>
      <trkpt lat="49.49287" lon="1.02127">
        <ele>132</ele>
        <time>2018-07-07T08:17:17Z</time>
      </trkpt>
      <trkpt lat="49.49285" lon="1.02106">
        <ele>132</ele>
        <time>2018-07-07T08:17:22Z</time>
      </trkpt>
      <trkpt lat="49.49274" lon="1.02098">
        <ele>132</ele>
        <time>2018-07-07T08:17:27Z</time>
      </trkpt>
      <trkpt lat="49.4926" lon="1.02109">
        <ele>132</ele>
        <time>2018-07-07T08:17:32Z</time>
      </trkpt>
      <trkpt lat="49.49248" lon="1.02124">
        <ele>130</ele>
        <time>2018-07-07T08:17:37Z</time>
      </trkpt>
      <trkpt lat="49.49235" lon="1.02135">
        <ele>130</ele>
        <time>2018-07-07T08:17:42Z</time>
      </trkpt>
      <trkpt lat="49.4922" lon="1.02147">
        <ele>130</ele>
        <time>2018-07-07T08:17:47Z</time>
      </trkpt>
      <trkpt lat="49.49205" lon="1.02164">
        <ele>130</ele>
        <time>2018-07-07T08:17:52Z</time>
      </trkpt>
      <trkpt lat="49.49187" lon="1.02164">
        <ele>129</ele>
        <time>2018-07-07T08:17:57Z</time>
      </trkpt>
      <trkpt lat="49.49177" lon="1.02139">
        <ele>129</ele>
        <time>2018-07-07T08:18:02Z</time>
      </trkpt>
      <trkpt lat="49.4917" lon="1.02113">
        <ele>129</ele>
        <time>2018-07-07T08:18:07Z</time>
      </trkpt>
      <trkpt lat="49.4916" lon="1.02086">
        <ele>128</ele>
        <time>2018-07-07T08:18:12Z</time>
      </trkpt>
      <trkpt lat="49.49147" lon="1.0206">
        <ele>128</ele>
        <time>2018-07-07T08:18:17Z</time>
      </trkpt>
      <trkpt lat="49.49133" lon="1.02034">
        <ele>129</ele>
        <time>2018-07-07T08:18:22Z</time>
      </trkpt>
      <trkpt lat="49.49118" lon="1.02009">
        <ele>129</ele>
        <time>2018-07-07T08:18:27Z</time>
      </trkpt>
      <trkpt lat="49.49105" lon="1.01985">
        <ele>130</ele>
        <time>2018-07-07T08:18:32Z</time>
      </trkpt>
      <trkpt lat="49.49092" lon="1.01962">
        <ele>131</ele>
        <time>2018-07-07T08:18:37Z</time>
      </trkpt>
      <trkpt lat="49.49079" lon="1.01939">
        <ele>130</ele>
        <time>2018-07-07T08:18:42Z</time>
      </trkpt>
      <trkpt lat="49.49066" lon="1.01916">
        <ele>132</ele>
        <time>2018-07-07T08:18:47Z</time>
      </trkpt>
      <trkpt lat="49.49053" lon="1.01892">
        <ele>132</ele>
        <time>2018-07-07T08:18:52Z</time>
      </trkpt>
      <trkpt lat="49.4904" lon="1.01868">
        <ele>132</ele>
        <time>2018-07-07T08:18:57Z</time>
      </trkpt>
      <trkpt lat="49.49028" lon="1.01842">
        <ele>132</ele>
        <time>2018-07-07T08:19:02Z</time>
      </trkpt>
      <trkpt lat="49.49016" lon="1.01817">
        <ele>134</ele>
        <time>2018-07-07T08:19:07Z</time>
      </trkpt>
      <trkpt lat="49.49002" lon="1.01793">
        <ele>135</ele>
        <time>2018-07-07T08:19:12Z</time>
      </trkpt>
      <trkpt lat="49.48985" lon="1.01777">
        <ele>133</ele>
        <time>2018-07-07T08:19:17Z</time>
      </trkpt>
      <trkpt lat="49.48964" lon="1.01766">
        <ele>133</ele>
        <time>2018-07-07T08:19:22Z</time>
      </trkpt>
      <trkpt lat="49.48943" lon="1.01754">
        <ele>132</ele>
        <time>2018-07-07T08:19:27Z</time>
      </trkpt>
      <trkpt lat="49.48922" lon="1.01743">
        <ele>132</ele>
        <time>2018-07-07T08:19:32Z</time>
      </trkpt>
      <trkpt lat="49.48907" lon="1.01733">
        <ele>131</ele>
        <time>2018-07-07T08:19:37Z</time>
      </trkpt>
      <trkpt lat="49.48896" lon="1.01719">
        <ele>131</ele>
        <time>2018-07-07T08:19:42Z</time>
      </trkpt>
      <trkpt lat="49.48892" lon="1.01701">
        <ele>132</ele>
        <time>2018-07-07T08:19:47Z</time>
      </trkpt>
      <trkpt lat="49.48895" lon="1.01684">
        <ele>132</ele>
        <time>2018-07-07T08:19:52Z</time>
      </trkpt>
      <trkpt lat="49.48906" lon="1.01674">
        <ele>132</ele>
        <time>2018-07-07T08:19:57Z</time>
      </trkpt>
      <trkpt lat="49.4892" lon="1.01669">
        <ele>133</ele>
        <time>2018-07-07T08:20:02Z</time>
      </trkpt>
      <trkpt lat="49.48933" lon="1.01665">
        <ele>135</ele>
        <time>2018-07-07T08:20:07Z</time>
      </trkpt>
      <trkpt lat="49.48946" lon="1.01661">
        <ele>135</ele>
        <time>2018-07-07T08:20:12Z</time>
      </trkpt>
      <trkpt lat="49.48959" lon="1.01654">
        <ele>136</ele>
        <time>2018-07-07T08:20:17Z</time>
      </trkpt>
      <trkpt lat="49.48972" lon="1.01642">
        <ele>137</ele>
        <time>2018-07-07T08:20:22Z</time>
      </trkpt>
      <trkpt lat="49.48986" lon="1.01629">
        <ele>137</ele>
        <time>2018-07-07T08:20:27Z</time>
      </trkpt>
      <trkpt lat="49.48999" lon="1.01616">
        <ele>137</ele>
        <time>2018-07-07T08:20:32Z</time>
      </trkpt>
      <trkpt lat="49.49012" lon="1.01604">
        <ele>139</ele>
        <time>2018-07-07T08:20:37Z</time>
      </trkpt>
      <trkpt lat="49.49025" lon="1.01592">
        <ele>139</ele>
        <time>2018-07-07T08:20:42Z</time>
      </trkpt>
      <trkpt lat="49.49037" lon="1.01577">
        <ele>140</ele>
        <time>2018-07-07T08:20:47Z</time>
      </trkpt>
      <trkpt lat="49.4905" lon="1.01563">
        <ele>140</ele>
        <time>2018-07-07T08:20:52Z</time>
      </trkpt>
      <trkpt lat="49.49064" lon="1.0155">
        <ele>140</ele>
        <time>2018-07-07T08:20:57Z</time>
      </trkpt>
      <trkpt lat="49.49079" lon="1.01535">
        <ele>141</ele>
        <time>2018-07-07T08:21:02Z</time>
      </trkpt>
      <trkpt lat="49.49087" lon="1.01516">
        <ele>142</ele>
        <time>2018-07-07T08:21:07Z</time>
      </trkpt>
      <trkpt lat="49.49082" lon="1.01493">
        <ele>141</ele>
        <time>2018-07-07T08:21:12Z</time>
      </trkpt>
      <trkpt lat="49.49069" lon="1.0147">
        <ele>141</ele>
        <time>2018-07-07T08:21:17Z</time>
      </trkpt>
      <trkpt lat="49.49054" lon="1.01444">
        <ele>141</ele>
        <time>2018-07-07T08:21:22Z</time>
      </trkpt>
      <trkpt lat="49.49038" lon="1.01417">
        <ele>140</ele>
        <time>2018-07-07T08:21:27Z</time>
      </trkpt>
      <trkpt lat="49.49022" lon="1.01389">
        <ele>141</ele>
        <time>2018-07-07T08:21:32Z</time>
      </trkpt>
      <trkpt lat="49.49006" lon="1.01361">
        <ele>141</ele>
        <time>2018-07-07T08:21:37Z</time>
      </trkpt>
      <trkpt lat="49.48989" lon="1.01333">
        <ele>140</ele>
        <time>2018-07-07T08:21:42Z</time>
      </trkpt>
      <trkpt lat="49.48972" lon="1.01303">
        <ele>140</ele>
        <time>2018-07-07T08:21:47Z</time>
      </trkpt>
      <trkpt lat="49.48953" lon="1.01273">
        <ele>140</ele>
        <time>2018-07-07T08:21:52Z</time>
      </trkpt>
      <trkpt lat="49.48935" lon="1.01245">
        <ele>139</ele>
        <time>2018-07-07T08:21:57Z</time>
      </trkpt>
      <trkpt lat="49.4892" lon="1.01218">
        <ele>139</ele>
        <time>2018-07-07T08:22:02Z</time>
      </trkpt>
      <trkpt lat="49.48904" lon="1.0119">
        <ele>139</ele>
        <time>2018-07-07T08:22:07Z</time>
      </trkpt>
      <trkpt lat="49.48886" lon="1.01162">
        <ele>139</ele>
        <time>2018-07-07T08:22:12Z</time>
      </trkpt>
      <trkpt lat="49.48871" lon="1.01133">
        <ele>139</ele>
        <time>2018-07-07T08:22:17Z</time>
      </trkpt>
      <trkpt lat="49.48855" lon="1.01106">
        <ele>139</ele>
        <time>2018-07-07T08:22:22Z</time>
      </trkpt>
      <trkpt lat="49.48838" lon="1.01078">
        <ele>140</ele>
        <time>2018-07-07T08:22:27Z</time>
      </trkpt>
      <trkpt lat="49.48821" lon="1.01049">
        <ele>140</ele>
        <time>2018-07-07T08:22:32Z</time>
      </trkpt>
      <trkpt lat="49.48806" lon="1.01023">
        <ele>141</ele>
        <time>2018-07-07T08:22:37Z</time>
      </trkpt>
      <trkpt lat="49.48789" lon="1.00996">
        <ele>141</ele>
        <time>2018-07-07T08:22:42Z</time>
      </trkpt>
      <trkpt lat="49.48774" lon="1.0097">
        <ele>141</ele>
        <time>2018-07-07T08:22:47Z</time>
      </trkpt>
      <trkpt lat="49.48756" lon="1.00945">
        <ele>140</ele>
        <time>2018-07-07T08:22:52Z</time>
      </trkpt>
      <trkpt lat="49.48734" lon="1.00926">
        <ele>139</ele>
        <time>2018-07-07T08:22:57Z</time>
      </trkpt>
      <trkpt lat="49.4871" lon="1.00909">
        <ele>138</ele>
        <time>2018-07-07T08:23:02Z</time>
      </trkpt>
      <trkpt lat="49.4869" lon="1.00894">
        <ele>137</ele>
        <time>2018-07-07T08:23:07Z</time>
      </trkpt>
      <trkpt lat="49.48682" lon="1.00883">
        <ele>137</ele>
        <time>2018-07-07T08:23:12Z</time>
      </trkpt>
      <trkpt lat="49.48672" lon="1.00881">
        <ele>137</ele>
        <time>2018-07-07T08:23:17Z</time>
      </trkpt>
      <trkpt lat="49.48661" lon="1.009">
        <ele>136</ele>
        <time>2018-07-07T08:23:22Z</time>
      </trkpt>
      <trkpt lat="49.48649" lon="1.00917">
        <ele>136</ele>
        <time>2018-07-07T08:23:27Z</time>
      </trkpt>
      <trkpt lat="49.48637" lon="1.00941">
        <ele>136</ele>
        <time>2018-07-07T08:23:32Z</time>
      </trkpt>
      <trkpt lat="49.48624" lon="1.00964">
        <ele>136</ele>
        <time>2018-07-07T08:23:37Z</time>
      </trkpt>
      <trkpt lat="49.48613" lon="1.00988">
        <ele>136</ele>
        <time>2018-07-07T08:23:42Z</time>
      </trkpt>
      <trkpt lat="49.48603" lon="1.01008">
        <ele>136</ele>
        <time>2018-07-07T08:23:47Z</time>
      </trkpt>
      <trkpt lat="49.48591" lon="1.01001">
        <ele>136</ele>
        <time>2018-07-07T08:23:52Z</time>
      </trkpt>
      <trkpt lat="49.48576" lon="1.00983">
        <ele>135</ele>
        <time>2018-07-07T08:23:57Z</time>
      </trkpt>
      <trkpt lat="49.4856" lon="1.00967">
        <ele>135</ele>
        <time>2018-07-07T08:24:02Z</time>
      </trkpt>
      <trkpt lat="49.48556" lon="1.00942">
        <ele>135</ele>
        <time>2018-07-07T08:24:07Z</time>
      </trkpt>
      <trkpt lat="49.48562" lon="1.00917">
        <ele>135</ele>
        <time>2018-07-07T08:24:12Z</time>
      </trkpt>
      <trkpt lat="49.48568" lon="1.00885">
        <ele>135</ele>
        <time>2018-07-07T08:24:17Z</time>
      </trkpt>
      <trkpt lat="49.48568" lon="1.0085">
        <ele>135</ele>
        <time>2018-07-07T08:24:22Z</time>
      </trkpt>
      <trkpt lat="49.48565" lon="1.00817">
        <ele>135</ele>
        <time>2018-07-07T08:24:27Z</time>
      </trkpt>
      <trkpt lat="49.48562" lon="1.00783">
        <ele>135</ele>
        <time>2018-07-07T08:24:32Z</time>
      </trkpt>
      <trkpt lat="49.4856" lon="1.00763">
        <ele>135</ele>
        <time>2018-07-07T08:24:37Z</time>
      </trkpt>
      <trkpt lat="49.48558" lon="1.00748">
        <ele>134</ele>
        <time>2018-07-07T08:24:42Z</time>
      </trkpt>
      <trkpt lat="49.48556" lon="1.00734">
        <ele>134</ele>
        <time>2018-07-07T08:24:47Z</time>
      </trkpt>
      <trkpt lat="49.48553" lon="1.00716">
        <ele>134</ele>
        <time>2018-07-07T08:24:52Z</time>
      </trkpt>
      <trkpt lat="49.4855" lon="1.00695">
        <ele>134</ele>
        <time>2018-07-07T08:24:57Z</time>
      </trkpt>
      <trkpt lat="49.48547" lon="1.00675">
        <ele>134</ele>
        <time>2018-07-07T08:25:02Z</time>
      </trkpt>
      <trkpt lat="49.48544" lon="1.00655">
        <ele>133</ele>
        <time>2018-07-07T08:25:07Z</time>
      </trkpt>
      <trkpt lat="49.48541" lon="1.00633">
        <ele>133</ele>
        <time>2018-07-07T08:25:12Z</time>
      </trkpt>
      <trkpt lat="49.48538" lon="1.00613">
        <ele>133</ele>
        <time>2018-07-07T08:25:17Z</time>
      </trkpt>
      <trkpt lat="49.48536" lon="1.00593">
        <ele>133</ele>
        <time>2018-07-07T08:25:22Z</time>
      </trkpt>
      <trkpt lat="49.4854" lon="1.00572">
        <ele>132</ele>
        <time>2018-07-07T08:25:27Z</time>
      </trkpt>
      <trkpt lat="49.48547" lon="1.00551">
        <ele>132</ele>
        <time>2018-07-07T08:25:32Z</time>
      </trkpt>
      <trkpt lat="49.48556" lon="1.00527">
        <ele>131</ele>
        <time>2018-07-07T08:25:37Z</time>
      </trkpt>
      <trkpt lat="49.48565" lon="1.00502">
        <ele>131</ele>
        <time>2018-07-07T08:25:42Z</time>
      </trkpt>
      <trkpt lat="49.48576" lon="1.00477">
        <ele>130</ele>
        <time>2018-07-07T08:25:47Z</time>
      </trkpt>
      <trkpt lat="49.48587" lon="1.00451">
        <ele>130</ele>
        <time>2018-07-07T08:25:52Z</time>
      </trkpt>
      <trkpt lat="49.48599" lon="1.00421">
        <ele>130</ele>
        <time>2018-07-07T08:25:57Z</time>
      </trkpt>
      <trkpt lat="49.48611" lon="1.00392">
        <ele>130</ele>
        <time>2018-07-07T08:26:02Z</time>
      </trkpt>
      <trkpt lat="49.48623" lon="1.00361">
        <ele>130</ele>
        <time>2018-07-07T08:26:07Z</time>
      </trkpt>
      <trkpt lat="49.48636" lon="1.00331">
        <ele>130</ele>
        <time>2018-07-07T08:26:12Z</time>
      </trkpt>
      <trkpt lat="49.48646" lon="1.00302">
        <ele>130</ele>
        <time>2018-07-07T08:26:17Z</time>
      </trkpt>
      <trkpt lat="49.48637" lon="1.0027">
        <ele>131</ele>
        <time>2018-07-07T08:26:22Z</time>
      </trkpt>
      <trkpt lat="49.48633" lon="1.0026">
        <ele>131</ele>
        <time>2018-07-07T08:26:27Z</time>
      </trkpt>
      <trkpt lat="49.48632" lon="1.00241">
        <ele>130</ele>
        <time>2018-07-07T08:26:32Z</time>
      </trkpt>
      <trkpt lat="49.48618" lon="1.00202">
        <ele>129</ele>
        <time>2018-07-07T08:26:37Z</time>
      </trkpt>
      <trkpt lat="49.48584" lon="1.00185">
        <ele>127</ele>
        <time>2018-07-07T08:26:42Z</time>
      </trkpt>
      <trkpt lat="49.48553" lon="1.00173">
        <ele>127</ele>
        <time>2018-07-07T08:26:47Z</time>
      </trkpt>
      <trkpt lat="49.48523" lon="1.00164">
        <ele>125</ele>
        <time>2018-07-07T08:26:52Z</time>
      </trkpt>
      <trkpt lat="49.48495" lon="1.00157">
        <ele>125</ele>
        <time>2018-07-07T08:26:57Z</time>
      </trkpt>
      <trkpt lat="49.4847" lon="1.00158">
        <ele>125</ele>
        <time>2018-07-07T08:27:02Z</time>
      </trkpt>
      <trkpt lat="49.48445" lon="1.0017">
        <ele>127</ele>
        <time>2018-07-07T08:27:07Z</time>
      </trkpt>
      <trkpt lat="49.48421" lon="1.00182">
        <ele>127</ele>
        <time>2018-07-07T08:27:12Z</time>
      </trkpt>
      <trkpt lat="49.48398" lon="1.00193">
        <ele>127</ele>
        <time>2018-07-07T08:27:17Z</time>
      </trkpt>
      <trkpt lat="49.48375" lon="1.00204">
        <ele>127</ele>
        <time>2018-07-07T08:27:22Z</time>
      </trkpt>
      <trkpt lat="49.48353" lon="1.00214">
        <ele>128</ele>
        <time>2018-07-07T08:27:27Z</time>
      </trkpt>
      <trkpt lat="49.48331" lon="1.00223">
        <ele>127</ele>
        <time>2018-07-07T08:27:32Z</time>
      </trkpt>
      <trkpt lat="49.48308" lon="1.00234">
        <ele>127</ele>
        <time>2018-07-07T08:27:37Z</time>
      </trkpt>
      <trkpt lat="49.48286" lon="1.00244">
        <ele>127</ele>
        <time>2018-07-07T08:27:42Z</time>
      </trkpt>
      <trkpt lat="49.48262" lon="1.00256">
        <ele>127</ele>
        <time>2018-07-07T08:27:47Z</time>
      </trkpt>
      <trkpt lat="49.48236" lon="1.00268">
        <ele>126</ele>
        <time>2018-07-07T08:27:52Z</time>
      </trkpt>
      <trkpt lat="49.4821" lon="1.00281">
        <ele>126</ele>
        <time>2018-07-07T08:27:57Z</time>
      </trkpt>
      <trkpt lat="49.48183" lon="1.00294">
        <ele>126</ele>
        <time>2018-07-07T08:28:02Z</time>
      </trkpt>
      <trkpt lat="49.48156" lon="1.00306">
        <ele>126</ele>
        <time>2018-07-07T08:28:07Z</time>
      </trkpt>
      <trkpt lat="49.48127" lon="1.00319">
        <ele>126</ele>
        <time>2018-07-07T08:28:12Z</time>
      </trkpt>
      <trkpt lat="49.48098" lon="1.00331">
        <ele>126</ele>
        <time>2018-07-07T08:28:17Z</time>
      </trkpt>
      <trkpt lat="49.48071" lon="1.00343">
        <ele>125</ele>
        <time>2018-07-07T08:28:22Z</time>
      </trkpt>
      <trkpt lat="49.48046" lon="1.00354">
        <ele>125</ele>
        <time>2018-07-07T08:28:27Z</time>
      </trkpt>
      <trkpt lat="49.48022" lon="1.00364">
        <ele>124</ele>
        <time>2018-07-07T08:28:32Z</time>
      </trkpt>
      <trkpt lat="49.48" lon="1.00373">
        <ele>124</ele>
        <time>2018-07-07T08:28:37Z</time>
      </trkpt>
      <trkpt lat="49.47979" lon="1.00382">
        <ele>124</ele>
        <time>2018-07-07T08:28:42Z</time>
      </trkpt>
      <trkpt lat="49.47961" lon="1.0039">
        <ele>124</ele>
        <time>2018-07-07T08:28:47Z</time>
      </trkpt>
      <trkpt lat="49.47948" lon="1.00395">
        <ele>124</ele>
        <time>2018-07-07T08:28:52Z</time>
      </trkpt>
      <trkpt lat="49.47935" lon="1.00396">
        <ele>124</ele>
        <time>2018-07-07T08:28:58Z</time>
      </trkpt>
      <trkpt lat="49.4792" lon="1.00401">
        <ele>125</ele>
        <time>2018-07-07T08:29:03Z</time>
      </trkpt>
      <trkpt lat="49.47905" lon="1.00405">
        <ele>125</ele>
        <time>2018-07-07T08:29:08Z</time>
      </trkpt>
      <trkpt lat="49.4789" lon="1.00407">
        <ele>124</ele>
        <time>2018-07-07T08:29:13Z</time>
      </trkpt>
      <trkpt lat="49.47875" lon="1.00408">
        <ele>124</ele>
        <time>2018-07-07T08:29:18Z</time>
      </trkpt>
      <trkpt lat="49.4786" lon="1.00408">
        <ele>124</ele>
        <time>2018-07-07T08:29:23Z</time>
      </trkpt>
      <trkpt lat="49.47847" lon="1.00404">
        <ele>124</ele>
        <time>2018-07-07T08:29:28Z</time>
      </trkpt>
      <trkpt lat="49.47834" lon="1.00398">
        <ele>124</ele>
        <time>2018-07-07T08:29:33Z</time>
      </trkpt>
      <trkpt lat="49.47822" lon="1.00389">
        <ele>125</ele>
        <time>2018-07-07T08:29:38Z</time>
      </trkpt>
      <trkpt lat="49.4781" lon="1.00388">
        <ele>125</ele>
        <time>2018-07-07T08:29:43Z</time>
      </trkpt>
      <trkpt lat="49.478" lon="1.00403">
        <ele>125</ele>
        <time>2018-07-07T08:29:48Z</time>
      </trkpt>
      <trkpt lat="49.47793" lon="1.00432">
        <ele>126</ele>
        <time>2018-07-07T08:29:53Z</time>
      </trkpt>
      <trkpt lat="49.47785" lon="1.00468">
        <ele>127</ele>
        <time>2018-07-07T08:29:58Z</time>
      </trkpt>
      <trkpt lat="49.47777" lon="1.00503">
        <ele>129</ele>
        <time>2018-07-07T08:30:03Z</time>
      </trkpt>
      <trkpt lat="49.47771" lon="1.00541">
        <ele>129</ele>
        <time>2018-07-07T08:30:08Z</time>
      </trkpt>
      <trkpt lat="49.47762" lon="1.00583">
        <ele>130</ele>
        <time>2018-07-07T08:30:14Z</time>
      </trkpt>
      <trkpt lat="49.47752" lon="1.0061">
        <ele>130</ele>
        <time>2018-07-07T08:30:19Z</time>
      </trkpt>
      <trkpt lat="49.47742" lon="1.00641">
        <ele>133</ele>
        <time>2018-07-07T08:30:24Z</time>
      </trkpt>
      <trkpt lat="49.47727" lon="1.00664">
        <ele>133</ele>
        <time>2018-07-07T08:30:30Z</time>
      </trkpt>
      <trkpt lat="49.47715" lon="1.0069">
        <ele>134</ele>
        <time>2018-07-07T08:30:35Z</time>
      </trkpt>
      <trkpt lat="49.47708" lon="1.00715">
        <ele>134</ele>
        <time>2018-07-07T08:30:40Z</time>
      </trkpt>
      <trkpt lat="49.47701" lon="1.00743">
        <ele>135</ele>
        <time>2018-07-07T08:30:45Z</time>
      </trkpt>
      <trkpt lat="49.47696" lon="1.00771">
        <ele>135</ele>
        <time>2018-07-07T08:30:51Z</time>
      </trkpt>
      <trkpt lat="49.47696" lon="1.00798">
        <ele>135</ele>
        <time>2018-07-07T08:30:56Z</time>
      </trkpt>
      <trkpt lat="49.47694" lon="1.00826">
        <ele>136</ele>
        <time>2018-07-07T08:31:01Z</time>
      </trkpt>
      <trkpt lat="49.47694" lon="1.00855">
        <ele>136</ele>
        <time>2018-07-07T08:31:06Z</time>
      </trkpt>
      <trkpt lat="49.47693" lon="1.00882">
        <ele>136</ele>
        <time>2018-07-07T08:31:11Z</time>
      </trkpt>
      <trkpt lat="49.47692" lon="1.00906">
        <ele>136</ele>
        <time>2018-07-07T08:31:16Z</time>
      </trkpt>
      <trkpt lat="49.47688" lon="1.00926">
        <ele>136</ele>
        <time>2018-07-07T08:31:21Z</time>
      </trkpt>
      <trkpt lat="49.4768" lon="1.00947">
        <ele>135</ele>
        <time>2018-07-07T08:31:27Z</time>
      </trkpt>
      <trkpt lat="49.47672" lon="1.00964">
        <ele>135</ele>
        <time>2018-07-07T08:31:32Z</time>
      </trkpt>
      <trkpt lat="49.47662" lon="1.0098">
        <ele>135</ele>
        <time>2018-07-07T08:31:38Z</time>
      </trkpt>
      <trkpt lat="49.4765" lon="1.01">
        <ele>135</ele>
        <time>2018-07-07T08:31:44Z</time>
      </trkpt>
      <trkpt lat="49.4764" lon="1.01013">
        <ele>134</ele>
        <time>2018-07-07T08:31:49Z</time>
      </trkpt>
      <trkpt lat="49.4763" lon="1.01025">
        <ele>134</ele>
        <time>2018-07-07T08:31:54Z</time>
      </trkpt>
      <trkpt lat="49.47615" lon="1.01049">
        <ele>133</ele>
        <time>2018-07-07T08:32:00Z</time>
      </trkpt>
      <trkpt lat="49.47598" lon="1.01075">
        <ele>133</ele>
        <time>2018-07-07T08:32:06Z</time>
      </trkpt>
      <trkpt lat="49.47579" lon="1.01103">
        <ele>132</ele>
        <time>2018-07-07T08:32:12Z</time>
      </trkpt>
      <trkpt lat="49.47562" lon="1.01137">
        <ele>132</ele>
        <time>2018-07-07T08:32:17Z</time>
      </trkpt>
      <trkpt lat="49.47542" lon="1.01175">
        <ele>131</ele>
        <time>2018-07-07T08:32:22Z</time>
      </trkpt>
      <trkpt lat="49.4752" lon="1.0122">
        <ele>131</ele>
        <time>2018-07-07T08:32:27Z</time>
      </trkpt>
      <trkpt lat="49.47495" lon="1.01265">
        <ele>132</ele>
        <time>2018-07-07T08:32:32Z</time>
      </trkpt>
      <trkpt lat="49.47473" lon="1.01303">
        <ele>133</ele>
        <time>2018-07-07T08:32:37Z</time>
      </trkpt>
      <trkpt lat="49.47455" lon="1.0134">
        <ele>134</ele>
        <time>2018-07-07T08:32:42Z</time>
      </trkpt>
      <trkpt lat="49.47439" lon="1.01384">
        <ele>135</ele>
        <time>2018-07-07T08:32:48Z</time>
      </trkpt>
      <trkpt lat="49.47426" lon="1.01415">
        <ele>137</ele>
        <time>2018-07-07T08:32:53Z</time>
      </trkpt>
      <trkpt lat="49.47417" lon="1.01449">
        <ele>135</ele>
        <time>2018-07-07T08:32:58Z</time>
      </trkpt>
      <trkpt lat="49.47405" lon="1.01477">
        <ele>138</ele>
        <time>2018-07-07T08:33:03Z</time>
      </trkpt>
      <trkpt lat="49.47394" lon="1.01502">
        <ele>137</ele>
        <time>2018-07-07T08:33:08Z</time>
      </trkpt>
      <trkpt lat="49.4738" lon="1.01537">
        <ele>138</ele>
        <time>2018-07-07T08:33:14Z</time>
      </trkpt>
      <trkpt lat="49.47366" lon="1.01573">
        <ele>138</ele>
        <time>2018-07-07T08:33:20Z</time>
      </trkpt>
      <trkpt lat="49.47354" lon="1.01609">
        <ele>137</ele>
        <time>2018-07-07T08:33:25Z</time>
      </trkpt>
      <trkpt lat="49.47341" lon="1.01635">
        <ele>137</ele>
        <time>2018-07-07T08:33:30Z</time>
      </trkpt>
      <trkpt lat="49.47326" lon="1.01667">
        <ele>140</ele>
        <time>2018-07-07T08:33:36Z</time>
      </trkpt>
      <trkpt lat="49.47311" lon="1.01694">
        <ele>141</ele>
        <time>2018-07-07T08:33:42Z</time>
      </trkpt>
      <trkpt lat="49.47297" lon="1.01707">
        <ele>142</ele>
        <time>2018-07-07T08:33:47Z</time>
      </trkpt>
      <trkpt lat="49.47279" lon="1.0172">
        <ele>143</ele>
        <time>2018-07-07T08:33:52Z</time>
      </trkpt>
      <trkpt lat="49.47259" lon="1.01743">
        <ele>146</ele>
        <time>2018-07-07T08:33:58Z</time>
      </trkpt>
      <trkpt lat="49.47243" lon="1.01761">
        <ele>148</ele>
        <time>2018-07-07T08:34:03Z</time>
      </trkpt>
      <trkpt lat="49.47231" lon="1.01786">
        <ele>148</ele>
        <time>2018-07-07T08:34:08Z</time>
      </trkpt>
      <trkpt lat="49.47221" lon="1.01814">
        <ele>148</ele>
        <time>2018-07-07T08:34:13Z</time>
      </trkpt>
      <trkpt lat="49.47209" lon="1.01838">
        <ele>147</ele>
        <time>2018-07-07T08:34:19Z</time>
      </trkpt>
      <trkpt lat="49.4719" lon="1.01846">
        <ele>147</ele>
        <time>2018-07-07T08:34:25Z</time>
      </trkpt>
      <trkpt lat="49.47167" lon="1.01853">
        <ele>148</ele>
        <time>2018-07-07T08:34:30Z</time>
      </trkpt>
      <trkpt lat="49.47137" lon="1.01861">
        <ele>148</ele>
        <time>2018-07-07T08:34:36Z</time>
      </trkpt>
      <trkpt lat="49.47115" lon="1.01869">
        <ele>148</ele>
        <time>2018-07-07T08:34:41Z</time>
      </trkpt>
      <trkpt lat="49.4709" lon="1.01881">
        <ele>148</ele>
        <time>2018-07-07T08:34:46Z</time>
      </trkpt>
      <trkpt lat="49.47066" lon="1.01886">
        <ele>147</ele>
        <time>2018-07-07T08:34:51Z</time>
      </trkpt>
      <trkpt lat="49.47033" lon="1.01891">
        <ele>147</ele>
        <time>2018-07-07T08:34:57Z</time>
      </trkpt>
      <trkpt lat="49.47007" lon="1.01894">
        <ele>147</ele>
        <time>2018-07-07T08:35:02Z</time>
      </trkpt>
      <trkpt lat="49.46984" lon="1.01897">
        <ele>146</ele>
        <time>2018-07-07T08:35:07Z</time>
      </trkpt>
      <trkpt lat="49.4696" lon="1.01898">
        <ele>146</ele>
        <time>2018-07-07T08:35:13Z</time>
      </trkpt>
      <trkpt lat="49.4694" lon="1.01899">
        <ele>146</ele>
        <time>2018-07-07T08:35:18Z</time>
      </trkpt>
      <trkpt lat="49.4692" lon="1.01898">
        <ele>145</ele>
        <time>2018-07-07T08:35:23Z</time>
      </trkpt>
      <trkpt lat="49.46899" lon="1.01897">
        <ele>145</ele>
        <time>2018-07-07T08:35:28Z</time>
      </trkpt>
      <trkpt lat="49.46876" lon="1.01894">
        <ele>145</ele>
        <time>2018-07-07T08:35:33Z</time>
      </trkpt>
      <trkpt lat="49.46853" lon="1.01896">
        <ele>144</ele>
        <time>2018-07-07T08:35:38Z</time>
      </trkpt>
      <trkpt lat="49.4682" lon="1.01894">
        <ele>143</ele>
        <time>2018-07-07T08:35:43Z</time>
      </trkpt>
      <trkpt lat="49.46791" lon="1.01894">
        <ele>143</ele>
        <time>2018-07-07T08:35:48Z</time>
      </trkpt>
      <trkpt lat="49.46764" lon="1.01896">
        <ele>143</ele>
        <time>2018-07-07T08:35:54Z</time>
      </trkpt>
      <trkpt lat="49.46738" lon="1.01898">
        <ele>142</ele>
        <time>2018-07-07T08:35:59Z</time>
      </trkpt>
      <trkpt lat="49.4671" lon="1.019">
        <ele>143</ele>
        <time>2018-07-07T08:36:04Z</time>
      </trkpt>
      <trkpt lat="49.46691" lon="1.01903">
        <ele>143</ele>
        <time>2018-07-07T08:36:09Z</time>
      </trkpt>
      <trkpt lat="49.46659" lon="1.01902">
        <ele>143</ele>
        <time>2018-07-07T08:36:15Z</time>
      </trkpt>
      <trkpt lat="49.46619" lon="1.01903">
        <ele>144</ele>
        <time>2018-07-07T08:36:21Z</time>
      </trkpt>
      <trkpt lat="49.46593" lon="1.01903">
        <ele>143</ele>
        <time>2018-07-07T08:36:26Z</time>
      </trkpt>
      <trkpt lat="49.46558" lon="1.01902">
        <ele>141</ele>
        <time>2018-07-07T08:36:32Z</time>
      </trkpt>
      <trkpt lat="49.46526" lon="1.01897">
        <ele>140</ele>
        <time>2018-07-07T08:36:37Z</time>
      </trkpt>
      <trkpt lat="49.46505" lon="1.01904">
        <ele>140</ele>
        <time>2018-07-07T08:36:42Z</time>
      </trkpt>
      <trkpt lat="49.4648" lon="1.01912">
        <ele>137</ele>
        <time>2018-07-07T08:36:47Z</time>
      </trkpt>
      <trkpt lat="49.46455" lon="1.01922">
        <ele>137</ele>
        <time>2018-07-07T08:36:52Z</time>
      </trkpt>
      <trkpt lat="49.46428" lon="1.01923">
        <ele>136</ele>
        <time>2018-07-07T08:36:57Z</time>
      </trkpt>
      <trkpt lat="49.46397" lon="1.0192">
        <ele>134</ele>
        <time>2018-07-07T08:37:03Z</time>
      </trkpt>
      <trkpt lat="49.46381" lon="1.01921">
        <ele>134</ele>
        <time>2018-07-07T08:37:08Z</time>
      </trkpt>
      <trkpt lat="49.46366" lon="1.01921">
        <ele>133</ele>
        <time>2018-07-07T08:37:14Z</time>
      </trkpt>
      <trkpt lat="49.46361" lon="1.01924">
        <ele>133</ele>
        <time>2018-07-07T08:37:20Z</time>
      </trkpt>
      <trkpt lat="49.46357" lon="1.01921">
        <ele>133</ele>
        <time>2018-07-07T08:37:27Z</time>
      </trkpt>
      <trkpt lat="49.46354" lon="1.01919">
        <ele>133</ele>
        <time>2018-07-07T08:37:33Z</time>
      </trkpt>
      <trkpt lat="49.4635" lon="1.01918">
        <ele>133</ele>
        <time>2018-07-07T08:37:38Z</time>
      </trkpt>
      <trkpt lat="49.46346" lon="1.01918">
        <ele>133</ele>
        <time>2018-07-07T08:37:45Z</time>
      </trkpt>
      <trkpt lat="49.46347" lon="1.01918">
        <ele>133</ele>
        <time>2018-07-07T08:37:55Z</time>
      </trkpt>
      <trkpt lat="49.46341" lon="1.0192">
        <ele>132</ele>
        <time>2018-07-07T08:38:00Z</time>
      </trkpt>
      <trkpt lat="49.46336" lon="1.01924">
        <ele>132</ele>
        <time>2018-07-07T08:38:05Z</time>
      </trkpt>
      <trkpt lat="49.4633" lon="1.01927">
        <ele>132</ele>
        <time>2018-07-07T08:38:12Z</time>
      </trkpt>
      <trkpt lat="49.46324" lon="1.01928">
        <ele>131</ele>
        <time>2018-07-07T08:38:17Z</time>
      </trkpt>
      <trkpt lat="49.46311" lon="1.01926">
        <ele>131</ele>
        <time>2018-07-07T08:38:22Z</time>
      </trkpt>
      <trkpt lat="49.46294" lon="1.01923">
        <ele>131</ele>
        <time>2018-07-07T08:38:27Z</time>
      </trkpt>
      <trkpt lat="49.46276" lon="1.01928">
        <ele>130</ele>
        <time>2018-07-07T08:38:32Z</time>
      </trkpt>
      <trkpt lat="49.46256" lon="1.01929">
        <ele>130</ele>
        <time>2018-07-07T08:38:37Z</time>
      </trkpt>
      <trkpt lat="49.46239" lon="1.01929">
        <ele>130</ele>
        <time>2018-07-07T08:38:42Z</time>
      </trkpt>
      <trkpt lat="49.46221" lon="1.01929">
        <ele>130</ele>
        <time>2018-07-07T08:38:47Z</time>
      </trkpt>
      <trkpt lat="49.46206" lon="1.01932">
        <ele>130</ele>
        <time>2018-07-07T08:38:52Z</time>
      </trkpt>
      <trkpt lat="49.46193" lon="1.0193">
        <ele>130</ele>
        <time>2018-07-07T08:39:00Z</time>
      </trkpt>
      <trkpt lat="49.46184" lon="1.01921">
        <ele>130</ele>
        <time>2018-07-07T08:39:05Z</time>
      </trkpt>
      <trkpt lat="49.46171" lon="1.01903">
        <ele>129</ele>
        <time>2018-07-07T08:39:11Z</time>
      </trkpt>
      <trkpt lat="49.46159" lon="1.01884">
        <ele>131</ele>
        <time>2018-07-07T08:39:16Z</time>
      </trkpt>
      <trkpt lat="49.46145" lon="1.01867">
        <ele>131</ele>
        <time>2018-07-07T08:39:21Z</time>
      </trkpt>
      <trkpt lat="49.46131" lon="1.01848">
        <ele>132</ele>
        <time>2018-07-07T08:39:26Z</time>
      </trkpt>
      <trkpt lat="49.46122" lon="1.01824">
        <ele>130</ele>
        <time>2018-07-07T08:39:31Z</time>
      </trkpt>
      <trkpt lat="49.46109" lon="1.018">
        <ele>130</ele>
        <time>2018-07-07T08:39:36Z</time>
      </trkpt>
      <trkpt lat="49.46099" lon="1.01778">
        <ele>129</ele>
        <time>2018-07-07T08:39:41Z</time>
      </trkpt>
      <trkpt lat="49.46088" lon="1.01748">
        <ele>129</ele>
        <time>2018-07-07T08:39:46Z</time>
      </trkpt>
      <trkpt lat="49.46067" lon="1.0172">
        <ele>130</ele>
        <time>2018-07-07T08:39:51Z</time>
      </trkpt>
      <trkpt lat="49.46051" lon="1.01696">
        <ele>129</ele>
        <time>2018-07-07T08:39:56Z</time>
      </trkpt>
      <trkpt lat="49.46038" lon="1.01668">
        <ele>129</ele>
        <time>2018-07-07T08:40:01Z</time>
      </trkpt>
      <trkpt lat="49.46026" lon="1.01642">
        <ele>125</ele>
        <time>2018-07-07T08:40:06Z</time>
      </trkpt>
      <trkpt lat="49.4601" lon="1.01618">
        <ele>125</ele>
        <time>2018-07-07T08:40:11Z</time>
      </trkpt>
      <trkpt lat="49.45983" lon="1.01589">
        <ele>127</ele>
        <time>2018-07-07T08:40:16Z</time>
      </trkpt>
      <trkpt lat="49.4596" lon="1.01562">
        <ele>128</ele>
        <time>2018-07-07T08:40:21Z</time>
      </trkpt>
      <trkpt lat="49.45943" lon="1.01531">
        <ele>128</ele>
        <time>2018-07-07T08:40:26Z</time>
      </trkpt>
      <trkpt lat="49.45923" lon="1.01495">
        <ele>128</ele>
        <time>2018-07-07T08:40:31Z</time>
      </trkpt>
      <trkpt lat="49.45906" lon="1.01457">
        <ele>130</ele>
        <time>2018-07-07T08:40:36Z</time>
      </trkpt>
      <trkpt lat="49.4589" lon="1.0143">
        <ele>130</ele>
        <time>2018-07-07T08:40:41Z</time>
      </trkpt>
      <trkpt lat="49.45874" lon="1.01401">
        <ele>130</ele>
        <time>2018-07-07T08:40:46Z</time>
      </trkpt>
      <trkpt lat="49.4586" lon="1.01364">
        <ele>130</ele>
        <time>2018-07-07T08:40:51Z</time>
      </trkpt>
      <trkpt lat="49.45842" lon="1.01339">
        <ele>131</ele>
        <time>2018-07-07T08:40:56Z</time>
      </trkpt>
      <trkpt lat="49.45825" lon="1.01315">
        <ele>131</ele>
        <time>2018-07-07T08:41:01Z</time>
      </trkpt>
      <trkpt lat="49.45823" lon="1.0129">
        <ele>130</ele>
        <time>2018-07-07T08:41:06Z</time>
      </trkpt>
      <trkpt lat="49.45815" lon="1.01279">
        <ele>130</ele>
        <time>2018-07-07T08:41:11Z</time>
      </trkpt>
      <trkpt lat="49.45802" lon="1.01265">
        <ele>130</ele>
        <time>2018-07-07T08:41:16Z</time>
      </trkpt>
      <trkpt lat="49.4577" lon="1.0126">
        <ele>130</ele>
        <time>2018-07-07T08:41:21Z</time>
      </trkpt>
      <trkpt lat="49.45748" lon="1.01263">
        <ele>130</ele>
        <time>2018-07-07T08:41:26Z</time>
      </trkpt>
      <trkpt lat="49.45722" lon="1.01269">
        <ele>129</ele>
        <time>2018-07-07T08:41:31Z</time>
      </trkpt>
      <trkpt lat="49.45696" lon="1.01279">
        <ele>128</ele>
        <time>2018-07-07T08:41:36Z</time>
      </trkpt>
      <trkpt lat="49.45674" lon="1.01295">
        <ele>128</ele>
        <time>2018-07-07T08:41:41Z</time>
      </trkpt>
      <trkpt lat="49.4565" lon="1.01309">
        <ele>126</ele>
        <time>2018-07-07T08:41:46Z</time>
      </trkpt>
      <trkpt lat="49.45633" lon="1.01322">
        <ele>126</ele>
        <time>2018-07-07T08:41:51Z</time>
      </trkpt>
      <trkpt lat="49.45613" lon="1.0134">
        <ele>125</ele>
        <time>2018-07-07T08:41:56Z</time>
      </trkpt>
      <trkpt lat="49.4559" lon="1.0135">
        <ele>125</ele>
        <time>2018-07-07T08:42:01Z</time>
      </trkpt>
      <trkpt lat="49.45572" lon="1.01359">
        <ele>124</ele>
        <time>2018-07-07T08:42:06Z</time>
      </trkpt>
      <trkpt lat="49.45558" lon="1.01367">
        <ele>124</ele>
        <time>2018-07-07T08:42:11Z</time>
      </trkpt>
      <trkpt lat="49.45541" lon="1.01378">
        <ele>124</ele>
        <time>2018-07-07T08:42:16Z</time>
      </trkpt>
      <trkpt lat="49.45523" lon="1.01392">
        <ele>124</ele>
        <time>2018-07-07T08:42:21Z</time>
      </trkpt>
      <trkpt lat="49.45505" lon="1.0141">
        <ele>124</ele>
        <time>2018-07-07T08:42:26Z</time>
      </trkpt>
      <trkpt lat="49.45486" lon="1.0143">
        <ele>125</ele>
        <time>2018-07-07T08:42:31Z</time>
      </trkpt>
      <trkpt lat="49.45467" lon="1.01451">
        <ele>126</ele>
        <time>2018-07-07T08:42:36Z</time>
      </trkpt>
      <trkpt lat="49.45452" lon="1.01473">
        <ele>127</ele>
        <time>2018-07-07T08:42:41Z</time>
      </trkpt>
      <trkpt lat="49.45436" lon="1.01495">
        <ele>128</ele>
        <time>2018-07-07T08:42:46Z</time>
      </trkpt>
      <trkpt lat="49.45415" lon="1.01517">
        <ele>131</ele>
        <time>2018-07-07T08:42:51Z</time>
      </trkpt>
      <trkpt lat="49.45393" lon="1.01539">
        <ele>131</ele>
        <time>2018-07-07T08:42:56Z</time>
      </trkpt>
      <trkpt lat="49.45374" lon="1.01559">
        <ele>131</ele>
        <time>2018-07-07T08:43:01Z</time>
      </trkpt>
      <trkpt lat="49.45362" lon="1.01578">
        <ele>131</ele>
        <time>2018-07-07T08:43:06Z</time>
      </trkpt>
      <trkpt lat="49.4535" lon="1.01583">
        <ele>131</ele>
        <time>2018-07-07T08:43:11Z</time>
      </trkpt>
      <trkpt lat="49.45327" lon="1.01576">
        <ele>130</ele>
        <time>2018-07-07T08:43:16Z</time>
      </trkpt>
      <trkpt lat="49.45293" lon="1.01585">
        <ele>130</ele>
        <time>2018-07-07T08:43:21Z</time>
      </trkpt>
      <trkpt lat="49.4526" lon="1.01597">
        <ele>129</ele>
        <time>2018-07-07T08:43:26Z</time>
      </trkpt>
      <trkpt lat="49.45229" lon="1.01613">
        <ele>127</ele>
        <time>2018-07-07T08:43:31Z</time>
      </trkpt>
      <trkpt lat="49.45205" lon="1.01632">
        <ele>127</ele>
        <time>2018-07-07T08:43:36Z</time>
      </trkpt>
      <trkpt lat="49.45198" lon="1.01662">
        <ele>127</ele>
        <time>2018-07-07T08:43:41Z</time>
      </trkpt>
      <trkpt lat="49.45198" lon="1.01701">
        <ele>130</ele>
        <time>2018-07-07T08:43:46Z</time>
      </trkpt>
      <trkpt lat="49.45198" lon="1.01734">
        <ele>130</ele>
        <time>2018-07-07T08:43:51Z</time>
      </trkpt>
      <trkpt lat="49.45196" lon="1.01764">
        <ele>132</ele>
        <time>2018-07-07T08:43:56Z</time>
      </trkpt>
      <trkpt lat="49.45205" lon="1.01785">
        <ele>132</ele>
        <time>2018-07-07T08:44:01Z</time>
      </trkpt>
      <trkpt lat="49.45217" lon="1.01812">
        <ele>133</ele>
        <time>2018-07-07T08:44:06Z</time>
      </trkpt>
      <trkpt lat="49.45228" lon="1.01837">
        <ele>134</ele>
        <time>2018-07-07T08:44:11Z</time>
      </trkpt>
      <trkpt lat="49.4524" lon="1.0186">
        <ele>133</ele>
        <time>2018-07-07T08:44:16Z</time>
      </trkpt>
      <trkpt lat="49.45253" lon="1.01892">
        <ele>134</ele>
        <time>2018-07-07T08:44:21Z</time>
      </trkpt>
      <trkpt lat="49.45261" lon="1.01923">
        <ele>133</ele>
        <time>2018-07-07T08:44:26Z</time>
      </trkpt>
      <trkpt lat="49.45271" lon="1.01941">
        <ele>133</ele>
        <time>2018-07-07T08:44:31Z</time>
      </trkpt>
      <trkpt lat="49.45276" lon="1.01964">
        <ele>133</ele>
        <time>2018-07-07T08:44:36Z</time>
      </trkpt>
      <trkpt lat="49.45278" lon="1.01982">
        <ele>133</ele>
        <time>2018-07-07T08:44:41Z</time>
      </trkpt>
      <trkpt lat="49.45271" lon="1.01992">
        <ele>132</ele>
        <time>2018-07-07T08:44:46Z</time>
      </trkpt>
      <trkpt lat="49.45261" lon="1.01999">
        <ele>131</ele>
        <time>2018-07-07T08:44:51Z</time>
      </trkpt>
      <trkpt lat="49.45253" lon="1.0201">
        <ele>131</ele>
        <time>2018-07-07T08:44:56Z</time>
      </trkpt>
      <trkpt lat="49.45261" lon="1.02017">
        <ele>131</ele>
        <time>2018-07-07T08:45:01Z</time>
      </trkpt>
      <trkpt lat="49.45253" lon="1.02015">
        <ele>131</ele>
        <time>2018-07-07T08:45:06Z</time>
      </trkpt>
      <trkpt lat="49.45233" lon="1.02017">
        <ele>129</ele>
        <time>2018-07-07T08:45:11Z</time>
      </trkpt>
      <trkpt lat="49.4521" lon="1.02016">
        <ele>129</ele>
        <time>2018-07-07T08:45:16Z</time>
      </trkpt>
      <trkpt lat="49.45194" lon="1.02033">
        <ele>128</ele>
        <time>2018-07-07T08:45:21Z</time>
      </trkpt>
      <trkpt lat="49.45176" lon="1.02036">
        <ele>128</ele>
        <time>2018-07-07T08:45:26Z</time>
      </trkpt>
      <trkpt lat="49.45154" lon="1.02023">
        <ele>128</ele>
        <time>2018-07-07T08:45:31Z</time>
      </trkpt>
      <trkpt lat="49.45132" lon="1.02017">
        <ele>128</ele>
        <time>2018-07-07T08:45:36Z</time>
      </trkpt>
      <trkpt lat="49.45111" lon="1.02019">
        <ele>128</ele>
        <time>2018-07-07T08:45:41Z</time>
      </trkpt>
      <trkpt lat="49.45086" lon="1.02019">
        <ele>128</ele>
        <time>2018-07-07T08:45:46Z</time>
      </trkpt>
      <trkpt lat="49.4506" lon="1.02022">
        <ele>127</ele>
        <time>2018-07-07T08:45:51Z</time>
      </trkpt>
      <trkpt lat="49.45036" lon="1.02024">
        <ele>127</ele>
        <time>2018-07-07T08:45:56Z</time>
      </trkpt>
      <trkpt lat="49.45012" lon="1.02024">
        <ele>127</ele>
        <time>2018-07-07T08:46:01Z</time>
      </trkpt>
      <trkpt lat="49.44991" lon="1.02025">
        <ele>126</ele>
        <time>2018-07-07T08:46:06Z</time>
      </trkpt>
      <trkpt lat="49.4497" lon="1.02028">
        <ele>125</ele>
        <time>2018-07-07T08:46:11Z</time>
      </trkpt>
      <trkpt lat="49.44951" lon="1.02044">
        <ele>125</ele>
        <time>2018-07-07T08:46:16Z</time>
      </trkpt>
      <trkpt lat="49.44941" lon="1.02071">
        <ele>124</ele>
        <time>2018-07-07T08:46:21Z</time>
      </trkpt>
      <trkpt lat="49.44939" lon="1.02104">
        <ele>123</ele>
        <time>2018-07-07T08:46:26Z</time>
      </trkpt>
      <trkpt lat="49.4494" lon="1.02131">
        <ele>123</ele>
        <time>2018-07-07T08:46:31Z</time>
      </trkpt>
      <trkpt lat="49.44933" lon="1.02141">
        <ele>123</ele>
        <time>2018-07-07T08:46:38Z</time>
      </trkpt>
      <trkpt lat="49.44934" lon="1.02143">
        <ele>123</ele>
        <time>2018-07-07T08:46:43Z</time>
      </trkpt>
      <trkpt lat="49.4493" lon="1.02145">
        <ele>123</ele>
        <time>2018-07-07T08:46:51Z</time>
      </trkpt>
      <trkpt lat="49.44922" lon="1.02146">
        <ele>123</ele>
        <time>2018-07-07T08:46:56Z</time>
      </trkpt>
      <trkpt lat="49.44925" lon="1.02142">
        <ele>123</ele>
        <time>2018-07-07T08:47:02Z</time>
      </trkpt>
      <trkpt lat="49.4493" lon="1.02138">
        <ele>123</ele>
        <time>2018-07-07T08:47:08Z</time>
      </trkpt>
      <trkpt lat="49.44929" lon="1.02138">
        <ele>123</ele>
        <time>2018-07-07T08:47:18Z</time>
      </trkpt>
      <trkpt lat="49.44929" lon="1.02137">
        <ele>123</ele>
        <time>2018-07-07T08:47:29Z</time>
      </trkpt>
      <trkpt lat="49.44928" lon="1.02141">
        <ele>123</ele>
        <time>2018-07-07T08:47:34Z</time>
      </trkpt>
      <trkpt lat="49.44931" lon="1.02141">
        <ele>123</ele>
        <time>2018-07-07T08:47:40Z</time>
      </trkpt>
      <trkpt lat="49.44936" lon="1.02141">
        <ele>123</ele>
        <time>2018-07-07T08:47:46Z</time>
      </trkpt>
      <trkpt lat="49.44942" lon="1.0214">
        <ele>123</ele>
        <time>2018-07-07T08:47:51Z</time>
      </trkpt>
      <trkpt lat="49.44946" lon="1.02139">
        <ele>123</ele>
        <time>2018-07-07T08:47:56Z</time>
      </trkpt>
      <trkpt lat="49.44946" lon="1.02129">
        <ele>123</ele>
        <time>2018-07-07T08:48:01Z</time>
      </trkpt>
      <trkpt lat="49.44944" lon="1.02106">
        <ele>123</ele>
        <time>2018-07-07T08:48:06Z</time>
      </trkpt>
      <trkpt lat="49.44944" lon="1.02081">
        <ele>124</ele>
        <time>2018-07-07T08:48:11Z</time>
      </trkpt>
      <trkpt lat="49.44949" lon="1.02059">
        <ele>125</ele>
        <time>2018-07-07T08:48:16Z</time>
      </trkpt>
      <trkpt lat="49.44961" lon="1.0204">
        <ele>125</ele>
        <time>2018-07-07T08:48:21Z</time>
      </trkpt>
      <trkpt lat="49.44981" lon="1.02032">
        <ele>125</ele>
        <time>2018-07-07T08:48:26Z</time>
      </trkpt>
      <trkpt lat="49.45007" lon="1.02028">
        <ele>126</ele>
        <time>2018-07-07T08:48:31Z</time>
      </trkpt>
      <trkpt lat="49.4503" lon="1.02027">
        <ele>127</ele>
        <time>2018-07-07T08:48:36Z</time>
      </trkpt>
      <trkpt lat="49.45054" lon="1.02023">
        <ele>127</ele>
        <time>2018-07-07T08:48:41Z</time>
      </trkpt>
      <trkpt lat="49.45079" lon="1.02023">
        <ele>127</ele>
        <time>2018-07-07T08:48:46Z</time>
      </trkpt>
      <trkpt lat="49.45105" lon="1.02023">
        <ele>128</ele>
        <time>2018-07-07T08:48:51Z</time>
      </trkpt>
      <trkpt lat="49.4513" lon="1.02022">
        <ele>128</ele>
        <time>2018-07-07T08:48:56Z</time>
      </trkpt>
      <trkpt lat="49.45157" lon="1.02026">
        <ele>128</ele>
        <time>2018-07-07T08:49:01Z</time>
      </trkpt>
      <trkpt lat="49.45177" lon="1.0204">
        <ele>128</ele>
        <time>2018-07-07T08:49:06Z</time>
      </trkpt>
      <trkpt lat="49.45193" lon="1.02033">
        <ele>128</ele>
        <time>2018-07-07T08:49:11Z</time>
      </trkpt>
      <trkpt lat="49.45215" lon="1.02021">
        <ele>129</ele>
        <time>2018-07-07T08:49:16Z</time>
      </trkpt>
      <trkpt lat="49.45235" lon="1.02024">
        <ele>129</ele>
        <time>2018-07-07T08:49:21Z</time>
      </trkpt>
      <trkpt lat="49.45256" lon="1.02017">
        <ele>131</ele>
        <time>2018-07-07T08:49:26Z</time>
      </trkpt>
      <trkpt lat="49.45275" lon="1.02015">
        <ele>132</ele>
        <time>2018-07-07T08:49:31Z</time>
      </trkpt>
      <trkpt lat="49.45283" lon="1.0201">
        <ele>132</ele>
        <time>2018-07-07T08:49:36Z</time>
      </trkpt>
      <trkpt lat="49.45293" lon="1.02014">
        <ele>133</ele>
        <time>2018-07-07T08:49:42Z</time>
      </trkpt>
      <trkpt lat="49.45292" lon="1.02033">
        <ele>133</ele>
        <time>2018-07-07T08:49:47Z</time>
      </trkpt>
      <trkpt lat="49.45293" lon="1.02061">
        <ele>132</ele>
        <time>2018-07-07T08:49:52Z</time>
      </trkpt>
      <trkpt lat="49.45295" lon="1.02091">
        <ele>132</ele>
        <time>2018-07-07T08:49:57Z</time>
      </trkpt>
      <trkpt lat="49.45295" lon="1.02118">
        <ele>132</ele>
        <time>2018-07-07T08:50:02Z</time>
      </trkpt>
      <trkpt lat="49.45298" lon="1.02151">
        <ele>132</ele>
        <time>2018-07-07T08:50:07Z</time>
      </trkpt>
      <trkpt lat="49.45301" lon="1.02179">
        <ele>133</ele>
        <time>2018-07-07T08:50:12Z</time>
      </trkpt>
      <trkpt lat="49.45299" lon="1.02209">
        <ele>133</ele>
        <time>2018-07-07T08:50:17Z</time>
      </trkpt>
      <trkpt lat="49.453" lon="1.02231">
        <ele>133</ele>
        <time>2018-07-07T08:50:22Z</time>
      </trkpt>
      <trkpt lat="49.45297" lon="1.02248">
        <ele>133</ele>
        <time>2018-07-07T08:50:27Z</time>
      </trkpt>
      <trkpt lat="49.45296" lon="1.02267">
        <ele>133</ele>
        <time>2018-07-07T08:50:32Z</time>
      </trkpt>
      <trkpt lat="49.45295" lon="1.02285">
        <ele>133</ele>
        <time>2018-07-07T08:50:37Z</time>
      </trkpt>
      <trkpt lat="49.45289" lon="1.02304">
        <ele>133</ele>
        <time>2018-07-07T08:50:42Z</time>
      </trkpt>
      <trkpt lat="49.45287" lon="1.02325">
        <ele>133</ele>
        <time>2018-07-07T08:50:47Z</time>
      </trkpt>
      <trkpt lat="49.4529" lon="1.02353">
        <ele>133</ele>
        <time>2018-07-07T08:50:52Z</time>
      </trkpt>
      <trkpt lat="49.45287" lon="1.02371">
        <ele>133</ele>
        <time>2018-07-07T08:50:57Z</time>
      </trkpt>
      <trkpt lat="49.45284" lon="1.02398">
        <ele>133</ele>
        <time>2018-07-07T08:51:02Z</time>
      </trkpt>
      <trkpt lat="49.45283" lon="1.02424">
        <ele>133</ele>
        <time>2018-07-07T08:51:07Z</time>
      </trkpt>
      <trkpt lat="49.45293" lon="1.02451">
        <ele>133</ele>
        <time>2018-07-07T08:51:12Z</time>
      </trkpt>
      <trkpt lat="49.45297" lon="1.02477">
        <ele>134</ele>
        <time>2018-07-07T08:51:17Z</time>
      </trkpt>
      <trkpt lat="49.45298" lon="1.02513">
        <ele>134</ele>
        <time>2018-07-07T08:51:22Z</time>
      </trkpt>
      <trkpt lat="49.45298" lon="1.02534">
        <ele>134</ele>
        <time>2018-07-07T08:51:27Z</time>
      </trkpt>
      <trkpt lat="49.45298" lon="1.02576">
        <ele>134</ele>
        <time>2018-07-07T08:51:32Z</time>
      </trkpt>
      <trkpt lat="49.45302" lon="1.02617">
        <ele>134</ele>
        <time>2018-07-07T08:51:37Z</time>
      </trkpt>
      <trkpt lat="49.45303" lon="1.02657">
        <ele>134</ele>
        <time>2018-07-07T08:51:42Z</time>
      </trkpt>
      <trkpt lat="49.45303" lon="1.02704">
        <ele>134</ele>
        <time>2018-07-07T08:51:47Z</time>
      </trkpt>
      <trkpt lat="49.45304" lon="1.02752">
        <ele>135</ele>
        <time>2018-07-07T08:51:52Z</time>
      </trkpt>
      <trkpt lat="49.45309" lon="1.02795">
        <ele>134</ele>
        <time>2018-07-07T08:51:57Z</time>
      </trkpt>
      <trkpt lat="49.45309" lon="1.02828">
        <ele>134</ele>
        <time>2018-07-07T08:52:02Z</time>
      </trkpt>
      <trkpt lat="49.45307" lon="1.02865">
        <ele>135</ele>
        <time>2018-07-07T08:52:07Z</time>
      </trkpt>
      <trkpt lat="49.45308" lon="1.02908">
        <ele>136</ele>
        <time>2018-07-07T08:52:12Z</time>
      </trkpt>
      <trkpt lat="49.45307" lon="1.02947">
        <ele>136</ele>
        <time>2018-07-07T08:52:17Z</time>
      </trkpt>
      <trkpt lat="49.45306" lon="1.02987">
        <ele>136</ele>
        <time>2018-07-07T08:52:22Z</time>
      </trkpt>
      <trkpt lat="49.45304" lon="1.03018">
        <ele>136</ele>
        <time>2018-07-07T08:52:27Z</time>
      </trkpt>
      <trkpt lat="49.45297" lon="1.0305">
        <ele>135</ele>
        <time>2018-07-07T08:52:32Z</time>
      </trkpt>
      <trkpt lat="49.45301" lon="1.03091">
        <ele>134</ele>
        <time>2018-07-07T08:52:37Z</time>
      </trkpt>
      <trkpt lat="49.45303" lon="1.03128">
        <ele>134</ele>
        <time>2018-07-07T08:52:42Z</time>
      </trkpt>
      <trkpt lat="49.45298" lon="1.03134">
        <ele>134</ele>
        <time>2018-07-07T08:52:48Z</time>
      </trkpt>
      <trkpt lat="49.45289" lon="1.03148">
        <ele>133</ele>
        <time>2018-07-07T08:52:53Z</time>
      </trkpt>
      <trkpt lat="49.45284" lon="1.03161">
        <ele>133</ele>
        <time>2018-07-07T08:52:58Z</time>
      </trkpt>
      <trkpt lat="49.45279" lon="1.03182">
        <ele>134</ele>
        <time>2018-07-07T08:53:04Z</time>
      </trkpt>
      <trkpt lat="49.45269" lon="1.03206">
        <ele>134</ele>
        <time>2018-07-07T08:53:09Z</time>
      </trkpt>
      <trkpt lat="49.45253" lon="1.03233">
        <ele>135</ele>
        <time>2018-07-07T08:53:14Z</time>
      </trkpt>
      <trkpt lat="49.45232" lon="1.03264">
        <ele>136</ele>
        <time>2018-07-07T08:53:20Z</time>
      </trkpt>
      <trkpt lat="49.45217" lon="1.03295">
        <ele>136</ele>
        <time>2018-07-07T08:53:25Z</time>
      </trkpt>
      <trkpt lat="49.452" lon="1.0332">
        <ele>136</ele>
        <time>2018-07-07T08:53:30Z</time>
      </trkpt>
      <trkpt lat="49.45181" lon="1.03338">
        <ele>136</ele>
        <time>2018-07-07T08:53:35Z</time>
      </trkpt>
      <trkpt lat="49.45169" lon="1.03356">
        <ele>135</ele>
        <time>2018-07-07T08:53:40Z</time>
      </trkpt>
      <trkpt lat="49.45163" lon="1.03362">
        <ele>134</ele>
        <time>2018-07-07T08:53:45Z</time>
      </trkpt>
      <trkpt lat="49.4516" lon="1.03373">
        <ele>134</ele>
        <time>2018-07-07T08:53:52Z</time>
      </trkpt>
      <trkpt lat="49.45152" lon="1.03385">
        <ele>133</ele>
        <time>2018-07-07T08:53:58Z</time>
      </trkpt>
      <trkpt lat="49.45136" lon="1.03408">
        <ele>133</ele>
        <time>2018-07-07T08:54:03Z</time>
      </trkpt>
      <trkpt lat="49.45117" lon="1.03431">
        <ele>131</ele>
        <time>2018-07-07T08:54:08Z</time>
      </trkpt>
      <trkpt lat="49.45097" lon="1.03446">
        <ele>131</ele>
        <time>2018-07-07T08:54:13Z</time>
      </trkpt>
      <trkpt lat="49.45077" lon="1.03468">
        <ele>131</ele>
        <time>2018-07-07T08:54:19Z</time>
      </trkpt>
      <trkpt lat="49.45061" lon="1.03488">
        <ele>131</ele>
        <time>2018-07-07T08:54:24Z</time>
      </trkpt>
      <trkpt lat="49.45042" lon="1.03494">
        <ele>131</ele>
        <time>2018-07-07T08:54:29Z</time>
      </trkpt>
      <trkpt lat="49.45031" lon="1.03508">
        <ele>130</ele>
        <time>2018-07-07T08:54:34Z</time>
      </trkpt>
      <trkpt lat="49.45026" lon="1.0351">
        <ele>130</ele>
        <time>2018-07-07T08:54:41Z</time>
      </trkpt>
      <trkpt lat="49.45024" lon="1.03517">
        <ele>130</ele>
        <time>2018-07-07T08:54:48Z</time>
      </trkpt>
      <trkpt lat="49.45023" lon="1.03521">
        <ele>130</ele>
        <time>2018-07-07T08:54:53Z</time>
      </trkpt>
      <trkpt lat="49.45032" lon="1.03524">
        <ele>130</ele>
        <time>2018-07-07T08:55:00Z</time>
      </trkpt>
      <trkpt lat="49.45033" lon="1.03522">
        <ele>130</ele>
        <time>2018-07-07T08:55:07Z</time>
      </trkpt>
      <trkpt lat="49.45028" lon="1.03527">
        <ele>130</ele>
        <time>2018-07-07T08:55:14Z</time>
      </trkpt>
      <trkpt lat="49.45029" lon="1.03531">
        <ele>130</ele>
        <time>2018-07-07T08:55:25Z</time>
      </trkpt>
      <trkpt lat="49.45026" lon="1.03527">
        <ele>130</ele>
        <time>2018-07-07T08:55:30Z</time>
      </trkpt>
      <trkpt lat="49.45023" lon="1.03525">
        <ele>130</ele>
        <time>2018-07-07T08:55:35Z</time>
      </trkpt>
      <trkpt lat="49.45021" lon="1.0353">
        <ele>130</ele>
        <time>2018-07-07T08:55:40Z</time>
      </trkpt>
      <trkpt lat="49.45022" lon="1.03533">
        <ele>130</ele>
        <time>2018-07-07T08:55:45Z</time>
      </trkpt>
      <trkpt lat="49.45025" lon="1.03535">
        <ele>130</ele>
        <time>2018-07-07T08:55:51Z</time>
      </trkpt>
      <trkpt lat="49.45028" lon="1.03533">
        <ele>130</ele>
        <time>2018-07-07T08:56:00Z</time>
      </trkpt>
      <trkpt lat="49.45024" lon="1.03527">
        <ele>130</ele>
        <time>2018-07-07T08:56:08Z</time>
      </trkpt>
      <trkpt lat="49.45022" lon="1.03524">
        <ele>130</ele>
        <time>2018-07-07T08:56:16Z</time>
      </trkpt>
      <trkpt lat="49.45025" lon="1.03533">
        <ele>130</ele>
        <time>2018-07-07T08:56:24Z</time>
      </trkpt>
      <trkpt lat="49.45023" lon="1.0353">
        <ele>130</ele>
        <time>2018-07-07T08:56:30Z</time>
      </trkpt>
      <trkpt lat="49.45022" lon="1.03525">
        <ele>130</ele>
        <time>2018-07-07T08:56:36Z</time>
      </trkpt>
      <trkpt lat="49.4502" lon="1.03521">
        <ele>130</ele>
        <time>2018-07-07T08:56:43Z</time>
      </trkpt>
      <trkpt lat="49.45019" lon="1.03522">
        <ele>130</ele>
        <time>2018-07-07T08:56:54Z</time>
      </trkpt>
      <trkpt lat="49.45018" lon="1.03518">
        <ele>130</ele>
        <time>2018-07-07T08:57:02Z</time>
      </trkpt>
      <trkpt lat="49.45014" lon="1.03517">
        <ele>131</ele>
        <time>2018-07-07T08:57:08Z</time>
      </trkpt>
      <trkpt lat="49.45012" lon="1.03522">
        <ele>130</ele>
        <time>2018-07-07T08:57:14Z</time>
      </trkpt>
      <trkpt lat="49.45012" lon="1.03528">
        <ele>130</ele>
        <time>2018-07-07T08:57:20Z</time>
      </trkpt>
      <trkpt lat="49.45018" lon="1.03528">
        <ele>130</ele>
        <time>2018-07-07T08:57:28Z</time>
      </trkpt>
      <trkpt lat="49.45021" lon="1.03542">
        <ele>130</ele>
        <time>2018-07-07T08:57:35Z</time>
      </trkpt>
      <trkpt lat="49.45025" lon="1.03535">
        <ele>130</ele>
        <time>2018-07-07T08:57:40Z</time>
      </trkpt>
      <trkpt lat="49.45023" lon="1.03531">
        <ele>130</ele>
        <time>2018-07-07T08:57:45Z</time>
      </trkpt>
      <trkpt lat="49.45027" lon="1.03528">
        <ele>130</ele>
        <time>2018-07-07T08:57:52Z</time>
      </trkpt>
      <trkpt lat="49.45026" lon="1.03528">
        <ele>130</ele>
        <time>2018-07-07T08:57:59Z</time>
      </trkpt>
      <trkpt lat="49.45029" lon="1.03528">
        <ele>130</ele>
        <time>2018-07-07T08:58:04Z</time>
      </trkpt>
      <trkpt lat="49.45024" lon="1.03527">
        <ele>130</ele>
        <time>2018-07-07T08:58:09Z</time>
      </trkpt>
      <trkpt lat="49.4502" lon="1.03527">
        <ele>130</ele>
        <time>2018-07-07T08:58:14Z</time>
      </trkpt>
      <trkpt lat="49.45022" lon="1.03523">
        <ele>130</ele>
        <time>2018-07-07T08:58:19Z</time>
      </trkpt>
      <trkpt lat="49.45016" lon="1.03523">
        <ele>130</ele>
        <time>2018-07-07T08:58:24Z</time>
      </trkpt>
      <trkpt lat="49.45015" lon="1.0352">
        <ele>131</ele>
        <time>2018-07-07T08:58:30Z</time>
      </trkpt>
      <trkpt lat="49.45027" lon="1.03517">
        <ele>130</ele>
        <time>2018-07-07T08:58:35Z</time>
      </trkpt>
      <trkpt lat="49.45035" lon="1.03509">
        <ele>130</ele>
        <time>2018-07-07T08:58:41Z</time>
      </trkpt>
      <trkpt lat="49.45037" lon="1.03502">
        <ele>130</ele>
        <time>2018-07-07T08:58:46Z</time>
      </trkpt>
      <trkpt lat="49.45044" lon="1.03502">
        <ele>130</ele>
        <time>2018-07-07T08:58:51Z</time>
      </trkpt>
      <trkpt lat="49.45056" lon="1.03495">
        <ele>131</ele>
        <time>2018-07-07T08:58:56Z</time>
      </trkpt>
      <trkpt lat="49.45066" lon="1.03484">
        <ele>131</ele>
        <time>2018-07-07T08:59:01Z</time>
      </trkpt>
      <trkpt lat="49.45073" lon="1.03471">
        <ele>131</ele>
        <time>2018-07-07T08:59:07Z</time>
      </trkpt>
      <trkpt lat="49.45079" lon="1.03458">
        <ele>131</ele>
        <time>2018-07-07T08:59:12Z</time>
      </trkpt>
      <trkpt lat="49.45088" lon="1.03443">
        <ele>131</ele>
        <time>2018-07-07T08:59:17Z</time>
      </trkpt>
      <trkpt lat="49.45096" lon="1.03422">
        <ele>131</ele>
        <time>2018-07-07T08:59:22Z</time>
      </trkpt>
      <trkpt lat="49.45103" lon="1.03406">
        <ele>132</ele>
        <time>2018-07-07T08:59:27Z</time>
      </trkpt>
      <trkpt lat="49.45107" lon="1.03389">
        <ele>133</ele>
        <time>2018-07-07T08:59:32Z</time>
      </trkpt>
      <trkpt lat="49.45115" lon="1.03378">
        <ele>133</ele>
        <time>2018-07-07T08:59:37Z</time>
      </trkpt>
      <trkpt lat="49.45126" lon="1.03359">
        <ele>133</ele>
        <time>2018-07-07T08:59:42Z</time>
      </trkpt>
      <trkpt lat="49.45136" lon="1.03341">
        <ele>134</ele>
        <time>2018-07-07T08:59:47Z</time>
      </trkpt>
      <trkpt lat="49.4514" lon="1.03315">
        <ele>134</ele>
        <time>2018-07-07T08:59:52Z</time>
      </trkpt>
      <trkpt lat="49.45141" lon="1.03289">
        <ele>134</ele>
        <time>2018-07-07T08:59:57Z</time>
      </trkpt>
      <trkpt lat="49.4514" lon="1.03263">
        <ele>135</ele>
        <time>2018-07-07T09:00:02Z</time>
      </trkpt>
      <trkpt lat="49.45137" lon="1.03226">
        <ele>133</ele>
        <time>2018-07-07T09:00:07Z</time>
      </trkpt>
      <trkpt lat="49.45135" lon="1.03188">
        <ele>132</ele>
        <time>2018-07-07T09:00:13Z</time>
      </trkpt>
      <trkpt lat="49.45132" lon="1.03157">
        <ele>130</ele>
        <time>2018-07-07T09:00:18Z</time>
      </trkpt>
      <trkpt lat="49.45133" lon="1.03134">
        <ele>130</ele>
        <time>2018-07-07T09:00:23Z</time>
      </trkpt>
      <trkpt lat="49.45134" lon="1.03105">
        <ele>129</ele>
        <time>2018-07-07T09:00:28Z</time>
      </trkpt>
      <trkpt lat="49.45142" lon="1.03081">
        <ele>129</ele>
        <time>2018-07-07T09:00:33Z</time>
      </trkpt>
      <trkpt lat="49.45148" lon="1.0307">
        <ele>129</ele>
        <time>2018-07-07T09:00:38Z</time>
      </trkpt>
      <trkpt lat="49.45147" lon="1.03052">
        <ele>129</ele>
        <time>2018-07-07T09:00:43Z</time>
      </trkpt>
      <trkpt lat="49.45146" lon="1.03027">
        <ele>129</ele>
        <time>2018-07-07T09:00:48Z</time>
      </trkpt>
      <trkpt lat="49.45146" lon="1.03006">
        <ele>129</ele>
        <time>2018-07-07T09:00:53Z</time>
      </trkpt>
      <trkpt lat="49.45142" lon="1.02985">
        <ele>129</ele>
        <time>2018-07-07T09:00:58Z</time>
      </trkpt>
      <trkpt lat="49.45128" lon="1.02972">
        <ele>129</ele>
        <time>2018-07-07T09:01:03Z</time>
      </trkpt>
      <trkpt lat="49.45127" lon="1.02939">
        <ele>129</ele>
        <time>2018-07-07T09:01:08Z</time>
      </trkpt>
      <trkpt lat="49.45132" lon="1.02907">
        <ele>128</ele>
        <time>2018-07-07T09:01:13Z</time>
      </trkpt>
      <trkpt lat="49.45135" lon="1.02871">
        <ele>128</ele>
        <time>2018-07-07T09:01:18Z</time>
      </trkpt>
      <trkpt lat="49.45135" lon="1.02833">
        <ele>127</ele>
        <time>2018-07-07T09:01:23Z</time>
      </trkpt>
      <trkpt lat="49.45133" lon="1.02794">
        <ele>127</ele>
        <time>2018-07-07T09:01:28Z</time>
      </trkpt>
      <trkpt lat="49.45132" lon="1.02753">
        <ele>127</ele>
        <time>2018-07-07T09:01:33Z</time>
      </trkpt>
      <trkpt lat="49.45132" lon="1.02714">
        <ele>127</ele>
        <time>2018-07-07T09:01:38Z</time>
      </trkpt>
      <trkpt lat="49.45132" lon="1.02673">
        <ele>127</ele>
        <time>2018-07-07T09:01:43Z</time>
      </trkpt>
      <trkpt lat="49.45131" lon="1.02631">
        <ele>127</ele>
        <time>2018-07-07T09:01:48Z</time>
      </trkpt>
      <trkpt lat="49.45131" lon="1.02591">
        <ele>127</ele>
        <time>2018-07-07T09:01:53Z</time>
      </trkpt>
      <trkpt lat="49.45131" lon="1.02556">
        <ele>127</ele>
        <time>2018-07-07T09:01:58Z</time>
      </trkpt>
      <trkpt lat="49.45135" lon="1.02526">
        <ele>127</ele>
        <time>2018-07-07T09:02:03Z</time>
      </trkpt>
      <trkpt lat="49.45139" lon="1.025">
        <ele>127</ele>
        <time>2018-07-07T09:02:08Z</time>
      </trkpt>
      <trkpt lat="49.45145" lon="1.02471">
        <ele>127</ele>
        <time>2018-07-07T09:02:13Z</time>
      </trkpt>
      <trkpt lat="49.45152" lon="1.0244">
        <ele>127</ele>
        <time>2018-07-07T09:02:18Z</time>
      </trkpt>
      <trkpt lat="49.45158" lon="1.02413">
        <ele>126</ele>
        <time>2018-07-07T09:02:23Z</time>
      </trkpt>
      <trkpt lat="49.45163" lon="1.02382">
        <ele>127</ele>
        <time>2018-07-07T09:02:28Z</time>
      </trkpt>
      <trkpt lat="49.45165" lon="1.02354">
        <ele>127</ele>
        <time>2018-07-07T09:02:33Z</time>
      </trkpt>
      <trkpt lat="49.45161" lon="1.0232">
        <ele>127</ele>
        <time>2018-07-07T09:02:38Z</time>
      </trkpt>
      <trkpt lat="49.45156" lon="1.02285">
        <ele>127</ele>
        <time>2018-07-07T09:02:43Z</time>
      </trkpt>
      <trkpt lat="49.45149" lon="1.02251">
        <ele>127</ele>
        <time>2018-07-07T09:02:48Z</time>
      </trkpt>
      <trkpt lat="49.45137" lon="1.02222">
        <ele>126</ele>
        <time>2018-07-07T09:02:53Z</time>
      </trkpt>
      <trkpt lat="49.45117" lon="1.022">
        <ele>126</ele>
        <time>2018-07-07T09:02:58Z</time>
      </trkpt>
      <trkpt lat="49.45094" lon="1.02193">
        <ele>126</ele>
        <time>2018-07-07T09:03:03Z</time>
      </trkpt>
      <trkpt lat="49.4507" lon="1.02193">
        <ele>126</ele>
        <time>2018-07-07T09:03:08Z</time>
      </trkpt>
      <trkpt lat="49.45044" lon="1.02195">
        <ele>125</ele>
        <time>2018-07-07T09:03:13Z</time>
      </trkpt>
      <trkpt lat="49.45019" lon="1.02197">
        <ele>125</ele>
        <time>2018-07-07T09:03:18Z</time>
      </trkpt>
      <trkpt lat="49.44994" lon="1.022">
        <ele>124</ele>
        <time>2018-07-07T09:03:23Z</time>
      </trkpt>
      <trkpt lat="49.4497" lon="1.02203">
        <ele>124</ele>
        <time>2018-07-07T09:03:28Z</time>
      </trkpt>
      <trkpt lat="49.44947" lon="1.02204">
        <ele>124</ele>
        <time>2018-07-07T09:03:33Z</time>
      </trkpt>
      <trkpt lat="49.44945" lon="1.02173">
        <ele>123</ele>
        <time>2018-07-07T09:03:38Z</time>
      </trkpt>
      <trkpt lat="49.44944" lon="1.02146">
        <ele>123</ele>
        <time>2018-07-07T09:03:43Z</time>
      </trkpt>
      <trkpt lat="49.44938" lon="1.02144">
        <ele>123</ele>
        <time>2018-07-07T09:03:49Z</time>
      </trkpt>
      <trkpt lat="49.44944" lon="1.02143">
        <ele>123</ele>
        <time>2018-07-07T09:03:56Z</time>
      </trkpt>
      <trkpt lat="49.44951" lon="1.02142">
        <ele>123</ele>
        <time>2018-07-07T09:04:01Z</time>
      </trkpt>
      <trkpt lat="49.44952" lon="1.02142">
        <ele>123</ele>
        <time>2018-07-07T09:04:06Z</time>
      </trkpt>
      <trkpt lat="49.44959" lon="1.02144">
        <ele>123</ele>
        <time>2018-07-07T09:04:14Z</time>
      </trkpt>
      <trkpt lat="49.44955" lon="1.02141">
        <ele>123</ele>
        <time>2018-07-07T09:04:22Z</time>
      </trkpt>
      <trkpt lat="49.44943" lon="1.02143">
        <ele>123</ele>
        <time>2018-07-07T09:04:29Z</time>
      </trkpt>
      <trkpt lat="49.44936" lon="1.02143">
        <ele>123</ele>
        <time>2018-07-07T09:04:35Z</time>
      </trkpt>
      <trkpt lat="49.44932" lon="1.02142">
        <ele>123</ele>
        <time>2018-07-07T09:04:40Z</time>
      </trkpt>
      <trkpt lat="49.4493" lon="1.02143">
        <ele>123</ele>
        <time>2018-07-07T09:04:46Z</time>
      </trkpt>
      <trkpt lat="49.44926" lon="1.02146">
        <ele>123</ele>
        <time>2018-07-07T09:04:53Z</time>
      </trkpt>
      <trkpt lat="49.44916" lon="1.02148">
        <ele>122</ele>
        <time>2018-07-07T09:05:03Z</time>
      </trkpt>
      <trkpt lat="49.44912" lon="1.02137">
        <ele>122</ele>
        <time>2018-07-07T09:05:10Z</time>
      </trkpt>
      <trkpt lat="49.44916" lon="1.0214">
        <ele>122</ele>
        <time>2018-07-07T09:05:17Z</time>
      </trkpt>
      <trkpt lat="49.44911" lon="1.02141">
        <ele>122</ele>
        <time>2018-07-07T09:05:27Z</time>
      </trkpt>
      <trkpt lat="49.44914" lon="1.02138">
        <ele>122</ele>
        <time>2018-07-07T09:05:34Z</time>
      </trkpt>
      <trkpt lat="49.44917" lon="1.02138">
        <ele>122</ele>
        <time>2018-07-07T09:05:42Z</time>
      </trkpt>
    </trkseg>
  </trk>
</gpx>